[[{"header":{"parameterUnit":"m.s-1","parameterCategory":1,"la1":30.6,"la2":28.766,"lo1":-90.7593,"lo2":-88.6598,"dy":0.0162,"dx":0.0183,"nx":116,"ny":114,"refTime":"2024-02-28T18:00:00:Z","depth":0,"parameterNumber":2,"parameterNumberName":"U-component_of_WINDS"},"data":[0.0,0.0,0.0,0.0,0.0,0.0,0.0,0.0,0.0,0.0,0.0,0.0,0.0,0.0,0.0,0.0,0.0,0.0,0.0,0.0,0.0,0.0,0.0,0.0,0.0,0.0,0.0,0.0,0.0,0.0,0.0,0.0,0.0,0.0,0.0,0.0,0.0,0.0,0.0,0.0,0.0,0.0,0.0,0.0,0.0,0.0,0.0,0.0,0.0,0.0,0.0,0.0,0.0,0.0,0.0,0.0,0.0,0.0,0.0,0.0,0.0,0.0,0.0,0.0,0.0,0.0,0.0,0.0,0.0,0.0,0.0,0.0,0.0,0.0,0.0,0.0,0.0,0.0,0.0,0.0,0.0,0.0,0.0,0.0,0.0,0.0,0.0,0.0,0.0,0.0,0.0,0.0,0.0,0.0,0.0,0.0,0.0,0.0,0.0,0.0,0.0,0.0,0.0,0.0,0.0,0.0,0.0,0.0,0.0,0.0,0.0,0.0,0.0,0.0,0.0,0.0,0.0,0.0,0.0,0.0,0.0,0.0,0.0,0.0,0.0,0.0,0.0,0.0,0.0,0.0,0.0,0.0,0.0,0.0,0.0,0.0,0.0,0.0,0.0,0.0,0.0,0.0,0.0,0.0,0.0,0.0,0.0,0.0,0.0,0.0,0.0,0.0,0.0,0.0,0.0,0.0,0.0,0.0,0.0,0.0,0.0,0.0,0.0,0.0,0.0,0.0,0.0,0.0,0.0,0.0,0.0,0.0,0.0,0.0,0.0,0.0,0.0,0.0,0.0,0.0,0.0,0.0,0.0,0.0,0.0,0.0,0.0,0.0,0.0,0.0,0.0,0.0,0.0,0.0,0.0,0.0,0.0,0.0,0.0,0.0,0.0,0.0,0.0,0.0,0.0,0.0,0.0,0.0,0.0,0.0,0.0,0.0,0.0,0.0,0.0,0.0,0.0,0.0,0.0,0.0,0.0,0.0,0.0,0.0,0.0,0.0,0.0,0.0,0.0,0.0,0.0,0.0,0.0,0.0,0.0,0.0,0.0,0.0,0.0,0.0,0.0,0.0,0.0,0.0,0.0,0.0,0.0,0.0,0.0,0.0,0.0,0.0,0.0,0.0,0.0,0.0,0.0,0.0,0.0,0.0,0.0,0.0,0.0,0.0,0.0,0.0,0.0,0.0,0.0,0.0,0.0,0.0,0.0,0.0,0.0,0.0,0.0,0.0,0.0,0.0,0.0,0.0,0.0,0.0,0.0,0.0,0.0,0.0,0.0,0.0,0.0,0.0,0.0,0.0,0.0,0.0,0.0,0.0,0.0,0.0,0.0,0.0,0.0,0.0,0.0,0.0,0.0,0.0,0.0,0.0,0.0,0.0,0.0,0.0,0.0,0.0,0.0,0.0,0.0,0.0,0.0,0.0,0.0,0.0,0.0,0.0,0.0,0.0,0.0,0.0,0.0,0.0,0.0,0.0,0.0,0.0,0.0,0.0,0.0,0.0,0.0,0.0,0.0,0.0,0.0,0.0,0.0,0.0,0.0,0.0,0.0,0.0,0.0,0.0,0.0,0.0,0.0,0.0,0.0,0.0,0.0,0.0,0.0,0.0,0.0,0.0,0.0,0.0,0.0,0.0,0.0,0.0,0.0,0.0,0.0,0.0,0.0,0.0,0.0,0.0,0.0,0.0,0.0,0.0,0.0,0.0,0.0,0.0,0.0,0.0,0.0,0.0,0.0,0.0,0.0,0.0,0.0,0.0,0.0,0.0,0.0,0.0,0.0,0.0,0.0,0.0,0.0,0.0,0.0,0.0,0.0,0.0,0.0,0.0,0.0,0.0,0.0,0.0,0.0,0.0,0.0,0.0,0.0,0.0,0.0,0.0,0.0,0.0,0.0,0.0,0.0,0.0,0.0,0.0,0.0,0.0,0.0,0.0,0.0,0.0,0.0,0.0,0.0,0.0,0.0,0.0,0.0,0.0,0.0,0.0,0.0,0.0,0.0,0.0,0.0,0.0,0.0,0.0,0.0,0.0,0.0,0.0,0.0,0.0,0.0,0.0,0.0,0.0,0.0,0.0,0.0,0.0,0.0,0.0,0.0,0.0,0.0,0.0,0.0,0.0,0.0,0.0,0.0,0.0,0.0,0.0,0.0,0.0,0.0,0.0,0.0,0.0,0.0,0.0,0.0,0.0,0.0,0.0,0.0,0.0,0.0,0.0,0.0,0.0,0.0,0.0,0.0,0.0,0.0,0.0,0.0,0.0,0.0,0.0,0.0,0.0,0.0,0.0,0.0,0.0,0.0,0.0,0.0,0.0,0.0,0.0,0.0,0.0,0.0,0.0,0.0,0.0,0.0,0.0,0.0,0.0,0.0,0.0,0.0,0.0,0.0,0.0,0.0,0.0,0.0,0.0,0.0,0.0,0.0,0.0,0.0,0.0,0.0,0.0,0.0,0.0,0.0,0.0,0.0,0.0,0.0,0.0,0.0,0.0,0.0,0.0,0.0,0.0,0.0,0.0,0.0,0.0,0.0,0.0,0.0,0.0,0.0,0.0,0.0,0.0,0.0,0.0,0.0,0.0,0.0,0.0,0.0,0.0,0.0,0.0,0.0,0.0,0.0,0.0,0.0,0.0,0.0,0.0,0.0,0.0,0.0,0.0,0.0,0.0,0.0,0.0,0.0,0.0,0.0,0.0,0.0,0.0,0.0,0.0,0.0,0.0,0.0,0.0,0.0,0.0,0.0,0.0,0.0,0.0,0.0,0.0,0.0,0.0,0.0,0.0,0.0,0.0,0.0,0.0,0.0,0.0,0.0,0.0,0.0,0.0,0.0,0.0,0.0,0.0,0.0,0.0,0.0,0.0,0.0,0.0,0.0,0.0,0.0,0.0,0.0,0.0,0.0,0.0,0.0,0.0,0.0,0.0,0.0,0.0,0.0,0.0,0.0,0.0,0.0,0.0,0.0,0.0,0.0,0.0,0.0,0.0,0.0,0.0,0.0,0.0,0.0,0.0,0.0,0.0,0.0,0.0,0.0,0.0,0.0,0.0,0.0,0.0,0.0,0.0,0.0,0.0,0.0,0.0,0.0,0.0,0.0,0.0,0.0,0.0,0.0,0.0,0.0,0.0,0.0,0.0,0.0,0.0,0.0,0.0,0.0,0.0,0.0,0.0,0.0,0.0,0.0,0.0,0.0,0.0,0.0,0.0,0.0,0.0,0.0,0.0,0.0,0.0,0.0,0.0,0.0,0.0,0.0,0.0,0.0,0.0,0.0,0.0,0.0,0.0,0.0,0.0,0.0,0.0,0.0,0.0,0.0,0.0,0.0,0.0,0.0,0.0,0.0,0.0,0.0,0.0,0.0,0.0,0.0,0.0,0.0,0.0,0.0,0.0,0.0,0.0,0.0,0.0,0.0,0.0,0.0,0.0,0.0,0.0,0.0,0.0,0.0,0.0,0.0,0.0,0.0,0.0,0.0,0.0,0.0,0.0,0.0,0.0,0.0,0.0,0.0,0.0,0.0,0.0,0.0,0.0,0.0,0.0,0.0,0.0,0.0,0.0,0.0,0.0,0.0,0.0,0.0,0.0,0.0,0.0,0.0,0.0,0.0,0.0,0.0,0.0,0.0,0.0,0.0,0.0,0.0,0.0,0.0,0.0,0.0,0.0,0.0,0.0,0.0,0.0,0.0,0.0,0.0,0.0,0.0,0.0,0.0,0.0,0.0,0.0,0.0,0.0,0.0,0.0,0.0,0.0,0.0,0.0,0.0,0.0,0.0,0.0,0.0,0.0,0.0,0.0,0.0,0.0,0.0,0.0,0.0,0.0,0.0,0.0,0.0,0.0,0.0,0.0,0.0,0.0,0.0,0.0,0.0,0.0,0.0,0.0,0.0,0.0,0.0,0.0,0.0,0.0,0.0,0.0,0.0,0.0,0.0,0.0,0.0,0.0,0.0,0.0,0.0,0.0,0.0,0.0,0.0,0.0,0.0,0.0,0.0,0.0,0.0,0.0,0.0,0.0,0.0,0.0,0.0,0.0,0.0,0.0,0.0,0.0,0.0,0.0,0.0,0.0,0.0,0.0,0.0,0.0,0.0,0.0,0.0,0.0,0.0,0.0,0.0,0.0,0.0,0.0,0.0,0.0,0.0,0.0,0.0,0.0,0.0,0.0,0.0,0.0,0.0,0.0,0.0,0.0,0.0,0.0,0.0,0.0,0.0,0.0,0.0,0.0,0.0,0.0,0.0,0.0,0.0,0.0,0.0,0.0,0.0,0.0,0.0,0.0,0.0,0.0,0.0,0.0,0.0,0.0,0.0,0.0,0.0,0.0,0.0,0.0,0.0,0.0,0.0,0.0,0.0,0.0,0.0,0.0,0.0,0.0,0.0,0.0,0.0,0.0,0.0,0.0,0.0,0.0,0.0,0.0,0.0,0.0,0.0,0.0,0.0,0.0,0.0,0.0,0.0,0.0,0.0,0.0,0.0,0.0,0.0,0.0,0.0,0.0,0.0,0.0,0.0,0.0,0.0,0.0,0.0,0.0,0.0,0.0,0.0,0.0,0.0,0.0,0.0,0.0,0.0,0.0,0.0,0.0,0.0,0.0,0.0,0.0,0.0,0.0,0.0,0.0,0.0,0.0,0.0,0.0,0.0,0.0,0.0,0.0,0.0,0.0,0.0,0.0,0.0,0.0,0.0,0.0,0.0,0.0,0.0,0.0,0.0,0.0,0.0,0.0,0.0,0.0,0.0,0.0,0.0,0.0,0.0,0.0,0.0,0.0,0.0,0.0,0.0,0.0,0.0,0.0,0.0,0.0,0.0,0.0,0.0,0.0,0.0,0.0,0.0,0.0,0.0,0.0,0.0,0.0,0.0,0.0,0.0,0.0,0.0,0.0,0.0,0.0,0.0,0.0,0.0,0.0,0.0,0.0,0.0,0.0,0.0,0.0,0.0,0.0,0.0,0.0,0.0,0.0,0.0,0.0,0.0,0.0,0.0,0.0,0.0,0.0,0.0,0.0,0.0,0.0,0.0,0.0,0.0,0.0,0.0,0.0,0.0,0.0,0.0,0.0,0.0,0.0,0.0,0.0,0.0,0.0,0.0,0.0,0.0,0.0,0.0,0.0,0.0,0.0,0.0,0.0,0.0,0.0,0.0,0.0,0.0,0.0,0.0,0.0,0.0,0.0,0.0,0.0,0.0,0.0,0.0,0.0,0.0,0.0,0.0,0.0,0.0,0.0,0.0,0.0,0.0,0.0,0.0,0.0,0.0,0.0,0.0,0.0,0.0,0.0,0.0,0.0,0.0,0.0,0.0,0.0,0.0,0.0,0.0,0.0,0.0,0.0,0.0,0.0,0.0,0.0,0.0,0.0,0.0,0.0,0.0,0.0,0.0,0.0,0.0,0.0,0.0,0.0,0.0,0.0,0.0,0.0,0.0,0.0,0.0,0.0,0.0,0.0,0.0,0.0,0.0,0.0,0.0,0.0,0.0,0.0,0.0,0.0,0.0,0.0,0.0,0.0,0.0,0.0,0.0,0.0,0.0,0.0,0.0,0.0,0.0,0.0,0.0,0.0,0.0,0.0,0.0,0.0,0.0,0.0,0.0,0.0,0.0,0.0,0.0,0.0,0.0,0.0,0.0,0.0,0.0,0.0,0.0,0.0,0.0,0.0,0.0,0.0,0.0,0.0,0.0,0.0,0.0,0.0,0.0,0.0,0.0,0.0,0.0,0.0,0.0,0.0,0.0,0.0,0.0,0.0,0.0,0.0,0.0,0.0,0.0,0.0,0.0,0.0,0.0,0.0,0.0,0.0,0.0,0.0,0.0,0.0,0.0,0.0,0.0,0.0,0.0,0.0,0.0,0.0,0.0,0.0,0.0,0.0,0.0,0.0,0.0,0.0,0.0,0.0,0.0,0.0,0.0,0.0,0.0,0.0,0.0,0.0,0.0,0.0,0.0,0.0,0.0,0.0,0.0,0.0,0.0,0.0,0.0,0.0,0.0,0.0,0.0,0.0,0.0,0.0,0.0,0.0,0.0,0.0,0.0,0.0,0.0,0.0,0.0,0.0,0.0,0.0,0.0,0.0,0.0,0.0,2.3122,0.0,0.0,0.0,0.0,0.0,0.0,0.0,0.0,0.0,0.0,0.0,0.0,0.0,0.0,0.0,0.0,0.0,0.0,0.0,0.0,0.0,0.0,0.0,0.0,0.0,0.0,0.0,0.0,0.0,0.0,0.0,0.0,0.0,0.0,0.0,1.6277,1.6095,1.6315,1.7014,1.7576,1.8278,1.9066,1.8619,1.7563,1.5995,0.0,0.0,0.0,0.0,0.0,0.0,0.0,0.0,0.0,0.0,0.0,0.0,0.0,0.0,0.0,0.0,0.0,0.0,0.0,0.0,0.0,0.0,0.0,0.0,0.0,0.0,0.0,0.0,0.0,0.0,0.0,0.0,0.0,0.0,0.0,0.0,0.0,0.0,0.0,0.0,0.0,0.0,0.0,0.0,0.0,0.0,0.0,0.0,0.0,0.0,0.0,0.0,0.0,0.0,0.0,0.0,0.0,0.0,0.0,0.0,0.0,0.0,0.0,0.0,0.0,0.0,0.0,0.0,0.0,0.0,0.0,2.3737,0.0,0.0,0.0,0.0,0.0,0.0,0.0,0.0,0.0,0.0,0.0,0.0,0.0,0.0,0.0,0.0,0.0,0.0,0.0,0.0,0.0,0.0,0.0,1.7005,1.7465,1.7435,1.8081,1.8484,0.0,0.0,0.0,0.0,0.0,1.7018,1.6431,1.622,1.6879,1.8431,1.9265,2.0445,2.1946,2.2064,2.0917,1.8758,1.7671,0.0,0.0,0.0,0.0,0.0,0.0,0.0,0.0,0.0,0.0,0.0,0.0,0.0,0.0,0.0,0.0,0.0,0.0,0.0,0.0,0.0,0.0,0.0,0.0,0.0,0.0,0.0,0.0,0.0,0.0,0.0,0.0,0.0,0.0,0.0,0.0,0.0,0.0,0.0,0.0,0.0,0.0,0.0,0.0,0.0,0.0,0.0,0.0,0.0,0.0,0.0,0.0,0.0,0.0,0.0,0.0,0.0,0.0,0.0,0.0,0.0,0.0,0.0,2.6087,2.6614,2.7604,2.7343,2.7887,2.8868,2.7034,2.6402,2.6514,2.4487,0.0,0.0,0.0,0.0,0.0,0.0,0.0,0.0,0.0,0.0,0.0,0.0,0.0,0.0,0.0,0.0,0.0,0.0,0.0,0.0,0.0,1.7669,1.8069,1.7991,1.8254,1.8377,1.8269,1.8316,1.8007,1.7194,1.7029,1.6954,1.6922,1.6729,1.7646,1.9747,2.2043,2.3473,2.4119,2.4623,2.4557,2.3931,2.1493,2.032,2.0081,0.0,0.0,0.0,0.0,0.0,0.0,0.0,0.0,0.0,0.0,0.0,0.0,0.0,0.0,0.0,0.0,0.0,0.0,0.0,0.0,0.0,0.0,0.0,0.0,0.0,0.0,0.0,0.0,0.0,0.0,0.0,0.0,0.0,0.0,0.0,0.0,0.0,0.0,0.0,0.0,0.0,2.2678,2.3137,0.0,0.0,0.0,0.0,0.0,0.0,0.0,0.0,0.0,0.0,0.0,0.0,0.0,2.5313,2.5634,2.7218,2.769,2.7147,2.9805,3.0527,2.9688,3.1083,3.1466,3.0929,3.0731,0.0,2.81,2.6766,0.0,0.0,0.0,0.0,0.0,0.0,0.0,0.0,0.0,0.0,0.0,0.0,0.0,0.0,0.0,0.0,0.0,0.0,0.0,0.0,0.0,1.8987,1.9978,2.0325,2.1541,2.1763,2.0507,2.0601,2.002,1.8517,1.7992,1.7731,1.767,1.8258,2.0074,2.3152,2.5285,2.6589,2.7092,2.7638,2.7749,2.7465,2.6616,2.4867,2.2423,2.0653,0.0,0.0,0.0,0.0,0.0,0.0,0.0,0.0,0.0,0.0,0.0,0.0,0.0,0.0,0.0,0.0,0.0,0.0,0.0,0.0,0.0,0.0,0.0,0.0,0.0,0.0,0.0,0.0,0.0,0.0,0.0,0.0,0.0,0.0,0.0,0.0,0.0,0.0,0.0,2.1652,2.2684,2.343,2.3004,2.2164,0.0,0.0,0.0,0.0,0.0,0.0,0.0,0.0,0.0,2.6536,2.7732,2.8566,2.9057,2.9888,3.0118,2.9665,3.0659,3.0965,3.0583,3.116,3.1358,3.1269,3.1556,3.1026,2.9822,2.8727,2.7175,2.5401,0.0,0.0,0.0,0.0,2.3988,2.4111,0.0,0.0,0.0,0.0,0.0,0.0,0.0,0.0,0.0,0.0,0.0,0.0,1.8851,2.0543,2.1957,2.2851,2.4193,2.4357,2.2862,2.237,2.1358,1.971,1.87,1.8313,1.8585,2.0643,2.3239,2.6378,2.8345,2.9474,2.975,3.0324,3.035,3.0047,3.0553,2.8642,2.4991,2.3065,2.1778,2.0741,0.0,0.0,0.0,0.0,0.0,0.0,0.0,0.0,0.0,0.0,0.0,0.0,0.0,0.0,0.0,0.0,0.0,0.0,0.0,0.0,0.0,0.0,0.0,0.0,0.0,0.0,0.0,0.0,0.0,0.0,0.0,0.0,0.0,0.0,0.0,0.0,0.0,2.2929,2.3211,2.3686,2.3526,2.2831,0.0,0.0,0.0,0.0,0.0,0.0,2.6548,2.729,2.807,2.8909,3.0426,3.1338,3.1605,3.1955,3.1881,3.1467,3.1179,3.1,3.0935,3.0916,3.0981,3.1145,3.1707,3.1666,3.1217,3.0523,2.9193,2.7537,2.7196,2.615,2.5028,2.6666,2.6831,2.6659,0.0,0.0,0.0,0.0,0.0,0.0,0.0,0.0,0.0,0.0,0.0,1.9501,2.0819,2.2194,2.3595,2.4998,2.4529,2.4177,2.421,2.2085,2.0557,1.9975,1.8485,1.8313,1.9677,2.407,2.7045,2.8442,3.086,3.1824,3.1579,3.2222,3.2275,3.1775,3.2012,3.0831,2.8576,2.7258,2.5821,2.4287,2.1206,0.0,0.0,0.0,0.0,0.0,0.0,0.0,0.0,0.0,0.0,0.0,0.0,0.0,0.0,0.0,0.0,0.0,0.0,0.0,0.0,0.0,0.0,0.0,0.0,0.0,0.0,0.0,0.0,0.0,0.0,0.0,0.0,0.0,0.0,0.0,0.0,0.0,0.0,2.4466,2.6013,0.0,0.0,0.0,0.0,2.6142,2.6333,2.7324,2.9475,2.9751,3.0461,3.1737,3.2323,3.2418,3.1992,3.2451,3.2221,3.1396,3.2205,3.1938,3.0749,3.1599,3.1631,3.0945,3.1741,3.2043,3.1968,3.2161,3.1342,2.9922,2.9915,2.887,2.7573,2.908,2.9504,2.9632,0.0,0.0,0.0,0.0,0.0,0.0,0.0,0.0,1.68,1.7,1.8979,2.0926,2.2286,2.4411,2.6321,2.7684,2.7959,2.7483,2.6274,2.4197,2.2919,2.2635,2.0855,2.1416,2.4672,2.6861,2.8936,3.0934,3.2108,3.265,3.254,3.2867,3.2846,3.253,3.2944,3.2277,3.082,2.8839,2.7689,2.6903,2.3197,2.0896,0.0,0.0,0.0,0.0,0.0,0.0,0.0,0.0,0.0,0.0,0.0,0.0,0.0,0.0,0.0,0.0,0.0,0.0,0.0,0.0,0.0,0.0,0.0,0.0,0.0,0.0,0.0,0.0,0.0,0.0,0.0,0.0,0.0,0.0,0.0,0.0,0.0,2.627,2.747,0.0,2.6056,2.6514,2.7268,2.8084,2.8782,2.9717,3.0923,3.1593,3.2189,3.2692,3.3545,3.3806,3.3486,3.3346,3.2984,3.2427,3.2015,3.1863,3.1841,3.1374,3.1525,3.2031,3.1933,3.2031,3.2293,3.2929,3.2737,3.2034,3.2083,3.1297,3.0303,3.1805,3.1722,3.1149,0.0,0.0,0.0,0.0,0.0,0.0,0.0,0.0,1.7273,1.7941,1.998,2.2201,2.4304,2.6276,2.8155,2.9817,2.9852,2.9195,2.7684,2.5663,2.4273,2.3773,2.2985,2.4206,2.7808,2.9128,3.0857,3.2972,3.3391,3.3603,3.3539,3.3587,3.3442,3.3118,3.3559,3.324,3.2305,3.0609,2.9664,2.8983,2.5465,2.3237,2.1767,0.0,0.0,0.0,0.0,0.0,0.0,0.0,0.0,0.0,0.0,0.0,0.0,0.0,0.0,0.0,0.0,0.0,0.0,0.0,0.0,0.0,0.0,0.0,0.0,0.0,0.0,0.0,0.0,0.0,0.0,0.0,0.0,0.0,0.0,0.0,2.7845,2.7371,2.8653,2.9046,2.7635,2.837,2.925,3.0085,3.0863,3.1566,3.2121,3.2834,3.3306,3.3387,3.4202,3.4546,3.4349,3.4213,3.3851,3.3321,3.2615,3.2288,3.2299,3.1816,3.1883,3.2463,3.2584,3.2558,3.257,3.3571,3.3694,3.3273,3.3389,3.2657,3.1785,3.3112,3.2807,3.1967,0.0,0.0,0.0,0.0,0.0,0.0,0.0,1.6575,1.7649,1.9712,2.1205,2.3371,2.6856,2.7753,2.8956,3.1243,2.9953,2.8865,2.844,2.626,2.4407,2.3132,2.4642,2.6545,2.8682,3.1053,3.2987,3.4502,3.4756,3.4817,3.4698,3.4511,3.4157,3.3605,3.3842,3.3605,3.2988,3.2775,3.1887,3.0487,2.8091,2.6335,2.4718,0.0,0.0,0.0,0.0,0.0,0.0,0.0,0.0,0.0,0.0,0.0,0.0,0.0,0.0,0.0,0.0,0.0,0.0,0.0,0.0,0.0,0.0,0.0,0.0,0.0,0.0,0.0,0.0,0.0,0.0,0.0,0.0,0.0,2.6412,2.7072,2.7674,2.7797,2.9621,3.0389,2.9234,3.0139,3.1236,3.2132,3.2384,3.2736,3.3261,3.3555,3.3797,3.3899,3.43,3.4497,3.4497,3.4899,3.4738,3.401,3.4006,3.3345,3.211,3.2942,3.2874,3.216,3.3583,3.3634,3.2862,3.4112,3.4213,3.3571,3.3727,3.3018,3.1924,3.284,3.2723,3.2319,0.0,0.0,0.0,0.0,0.0,0.0,1.5197,1.6547,1.8082,1.9602,2.1838,2.447,2.743,2.8799,3.0107,3.1833,3.0601,2.9498,2.888,2.6427,2.5,2.5032,2.7056,2.9183,3.1144,3.2241,3.3435,3.4801,3.4795,3.4765,3.4712,3.481,3.4574,3.3951,3.4255,3.3847,3.2988,3.2775,3.2311,3.1575,2.9603,2.7501,2.5401,0.0,0.0,0.0,0.0,0.0,0.0,0.0,0.0,0.0,0.0,0.0,0.0,0.0,0.0,0.0,0.0,0.0,0.0,0.0,0.0,0.0,0.0,0.0,0.0,0.0,0.0,0.0,0.0,0.0,0.0,0.0,2.5674,2.672,2.6871,2.8919,3.0443,3.0408,3.1228,3.1705,3.1495,3.1789,3.2083,3.2446,3.2851,3.3208,3.3435,3.3899,3.4201,3.4349,3.4643,3.4787,3.4787,3.4899,3.48,3.449,3.4163,3.3981,3.3925,3.3466,3.3594,3.4201,3.3606,3.3717,3.4237,3.3266,3.2749,3.2665,3.3343,3.3164,3.2459,3.2746,3.3117,3.35,0.0,0.0,0.0,0.0,0.0,0.0,1.5297,1.6668,1.8407,2.0384,2.246,2.5077,2.8545,2.9331,3.022,3.175,3.019,2.8763,2.7905,2.6274,2.5817,2.6958,2.9223,3.1175,3.2705,3.3406,3.4133,3.5001,3.4831,3.4631,3.4563,3.4654,3.4419,3.3882,3.403,3.3691,3.2846,3.2632,3.2208,3.1577,3.0441,2.9039,2.7427,2.6441,2.4614,2.2682,2.2716,2.2415,2.1918,2.1576,0.0,0.0,0.0,0.0,0.0,0.0,0.0,0.0,0.0,0.0,0.0,0.0,0.0,0.0,0.0,0.0,0.0,0.0,0.0,0.0,0.0,0.0,0.0,0.0,2.6686,2.7661,2.8188,2.9978,3.1359,3.1469,3.1946,3.2287,3.2398,3.2453,3.2686,3.3091,3.345,3.3719,3.3826,3.4126,3.429,3.43,3.4448,3.4594,3.4787,3.4804,3.4804,3.4787,3.4579,3.4446,3.4388,3.4191,3.4242,3.4496,3.3751,3.3715,3.4133,3.3043,3.2575,0.0,0.0,0.0,0.0,0.0,3.2717,3.3155,0.0,0.0,0.0,0.0,0.0,0.0,1.5856,1.6877,1.8608,2.1409,2.2911,2.5289,2.948,2.9286,2.955,3.1205,2.9297,2.7534,2.655,2.6242,2.6988,2.8922,3.1012,3.2566,3.3589,3.433,3.4817,3.5148,3.4831,3.4563,3.4414,3.4268,3.3994,3.3675,3.3676,3.3297,3.2704,3.2489,3.1843,3.1039,3.0868,3.0428,2.9751,2.7855,2.6356,2.5031,2.4001,2.3327,2.2929,2.2695,0.0,0.0,0.0,0.0,0.0,0.0,0.0,0.0,0.0,0.0,0.0,0.0,0.0,0.0,0.0,0.0,0.0,0.0,0.0,0.0,0.0,0.0,0.0,0.0,2.7783,2.9185,2.9841,3.0458,3.102,3.1607,3.2064,3.2342,3.2398,3.2508,3.2967,3.3817,3.403,3.4179,3.4288,0.0,0.0,0.0,0.0,3.425,3.4691,3.4691,3.4787,3.4899,3.4994,3.4725,3.4126,3.4768,3.4672,3.3909,3.3931,3.37,3.3323,3.3258,3.3048,3.2724,3.1607,3.0941,3.0773,3.1826,3.2194,3.2244,0.0,0.0,0.0,0.0,0.0,0.0,1.5799,1.6877,1.8444,2.0655,2.2488,2.4852,2.8084,2.8197,2.8879,3.1083,2.9143,2.7911,2.8111,2.8075,2.8906,3.0866,3.2273,3.3419,3.4277,3.4566,3.475,3.4935,3.4601,3.4414,3.4428,3.473,3.4548,3.402,3.4115,3.3619,3.2704,3.2372,3.1969,3.1436,3.1262,3.0262,2.89,2.8851,2.8046,2.6855,2.67,2.6793,2.6773,2.5968,2.5346,2.4771,2.4123,2.2312,0.0,0.0,0.0,0.0,0.0,0.0,0.0,0.0,0.0,0.0,0.0,0.0,0.0,0.0,0.0,0.0,0.0,0.0,0.0,2.7824,2.8869,2.9726,3.0484,3.0793,3.1114,3.148,3.1754,3.2038,3.2342,3.2492,3.2951,3.3817,3.4234,3.4397,3.4288,3.4734,3.4726,3.4267,3.4448,3.4643,3.4851,3.4851,3.4804,3.4739,0.0,0.0,3.4525,3.411,3.4159,3.4508,3.3804,3.3791,3.4202,3.3437,3.2336,3.1257,3.246,3.2594,3.2149,3.2727,3.3144,3.3428,0.0,0.0,0.0,0.0,0.0,0.0,1.577,1.6547,1.7855,1.9944,2.1281,2.3188,2.6152,2.5803,2.6137,2.8033,2.7111,2.6585,2.7066,2.8637,3.0298,3.1958,3.3404,3.4446,3.4981,3.4787,3.475,3.4935,3.4534,3.4278,3.4157,3.4266,3.4098,3.3675,3.3691,3.3223,3.2561,3.2359,3.1936,3.1434,3.1211,3.0537,2.9608,2.9548,2.9041,2.8254,2.7969,2.7875,2.7736,2.7234,2.682,2.6424,2.5306,2.4163,2.2744,0.0,0.0,0.0,0.0,0.0,0.0,0.0,0.0,0.0,0.0,0.0,0.0,0.0,0.0,2.3059,2.409,0.0,2.7018,2.8555,2.9072,2.9502,3.0225,3.0768,3.1203,3.1366,3.1796,3.2135,3.2302,3.2578,3.3092,3.3928,3.4526,3.4951,3.5154,3.5559,3.5648,3.5356,3.4915,3.4888,3.5349,3.4985,3.4804,3.4804,3.4851,3.4787,3.4578,3.4216,3.4153,3.4267,3.3679,3.3713,3.4168,3.3827,3.3096,3.2294,3.3625,3.3288,3.2122,3.2844,3.355,3.4125,0.0,0.0,0.0,0.0,0.0,0.0,0.0,1.6188,1.7178,1.9091,1.9901,2.1296,2.3855,2.3201,2.3061,2.4444,2.5043,2.5621,2.6318,2.922,3.1554,3.3036,3.4494,3.5294,3.5439,3.4964,3.475,3.4868,3.4534,3.421,3.3951,3.3744,3.3536,3.3326,3.3072,3.2775,3.2417,3.2286,3.185,3.1198,3.0986,3.0761,3.0495,3.0018,2.9676,2.9289,2.8409,2.7889,2.7531,2.7536,2.7417,2.7143,2.6087,2.5882,2.5333,2.1787,2.1348,0.0,0.0,0.0,0.0,0.0,0.0,0.0,0.0,0.0,2.0755,2.1574,2.3149,2.4572,2.5232,2.6778,2.8211,2.8898,2.9054,2.927,2.9752,3.0621,3.1195,3.1337,3.2016,3.244,3.2262,3.2664,3.3271,3.4093,3.4746,3.5348,3.5915,3.6126,3.6222,3.6044,3.5395,3.5182,3.5531,3.5136,3.4936,3.4851,3.4899,3.4739,3.4497,3.4349,3.417,3.3951,3.3518,3.3502,3.379,3.3893,3.3727,3.3439,3.419,3.3504,3.223,3.3215,3.4017,3.4711,0.0,0.0,0.0,0.0,0.0,0.0,0.0,0.0,1.6901,1.7802,1.9016,2.0212,2.1303,2.1311,2.1523,2.2306,2.4941,2.7338,2.9011,3.1106,3.3155,3.5085,3.5385,3.5359,3.5228,3.5016,3.4817,3.4698,3.4481,3.4278,3.4059,3.3951,3.3744,3.3536,3.3002,3.2632,3.2345,3.1877,3.1447,3.0986,3.0849,3.0546,3.0152,3.0088,3.0063,2.977,2.8189,2.7468,2.7356,2.7482,2.6735,2.5992,2.7043,2.6582,2.5388,2.4077,2.2946,2.1731,2.0141,1.9991,2.0335,2.0627,2.1377,2.2185,0.0,0.0,2.4072,2.4596,2.6155,2.7434,2.7591,2.868,2.9553,2.9538,2.9614,2.9813,3.0036,3.0398,3.088,3.1437,3.2324,3.2806,3.2404,3.2812,3.3417,3.4241,3.46,3.5042,3.5625,3.5776,3.5559,3.4894,3.5605,3.5613,3.4628,3.5432,3.5497,3.4739,3.4851,3.4739,3.448,3.3825,3.3778,3.4218,3.3518,3.3226,3.3226,3.2782,3.2639,3.2632,3.285,3.3328,3.4019,3.4908,3.5273,3.5352,0.0,0.0,0.0,0.0,0.0,0.0,0.0,0.0,0.0,1.7025,1.7704,1.8371,1.9,1.9144,1.9299,1.9502,2.2908,2.5648,2.7086,3.0511,3.3005,3.4181,3.5036,3.5439,3.5213,3.5001,3.4802,3.4698,3.4481,3.4278,3.3951,3.3813,3.3605,3.3382,3.2931,3.2561,3.2345,3.1936,3.1495,3.1123,3.0849,3.0622,3.0355,2.9707,2.9505,2.9353,2.7875,2.6785,0.0,2.6578,2.6257,2.5949,2.7169,2.686,2.5766,2.4569,2.3571,2.2636,2.1888,2.1475,0.0,0.0,2.263,2.3187,2.4175,2.4549,2.4958,2.5841,2.7047,2.8002,2.8263,2.9181,2.9837,0.0,2.9435,2.9574,2.9789,3.0397,3.0913,3.1176,3.2269,3.2883,3.253,3.2866,3.326,3.3704,3.4191,3.4648,3.509,3.5761,3.6135,3.6107,3.6435,3.633,3.5724,3.5877,3.5546,3.4804,3.4899,3.4739,3.4497,3.4088,3.4007,3.4134,3.3677,3.3598,3.3844,3.3679,3.3491,3.333,3.3943,3.427,3.4425,3.4878,3.5355,3.5739,0.0,0.0,0.0,0.0,0.0,0.0,0.0,0.0,0.0,0.0,1.6578,1.6804,1.7163,1.7285,1.7467,1.7764,2.0948,2.3758,2.5622,2.948,3.2184,3.3332,3.4607,3.5155,3.4996,3.4912,3.4714,3.442,3.422,3.3951,3.3625,3.3303,3.3196,3.3227,3.268,3.2409,3.2286,3.1936,3.1569,3.1198,3.0685,3.0353,2.9943,2.9012,2.8296,2.7624,2.6864,2.5909,2.4991,2.4936,2.4925,2.4963,2.5833,2.5845,2.5382,2.4134,2.3106,2.2389,2.2225,0.0,0.0,2.3153,2.3403,2.3662,2.4771,2.5022,2.5261,2.629,2.7346,2.8188,2.8568,2.944,2.9913,2.9449,2.9498,2.9623,2.9713,3.0468,3.1061,3.1205,3.2103,3.2741,3.271,3.2881,3.3112,3.3309,3.3789,3.4276,3.4697,3.5697,3.6365,3.6701,3.6894,3.6761,3.6261,3.6025,3.5595,3.4899,3.4851,3.4739,3.4546,3.4399,3.425,3.4134,3.374,3.3759,3.4056,3.4202,3.4129,3.4039,3.4973,3.5166,3.4941,3.507,3.5557,3.6131,0.0,0.0,0.0,0.0,0.0,0.0,0.0,0.0,0.0,0.0,0.0,0.0,0.0,1.596,1.6502,1.7864,1.9687,2.2469,2.6417,2.8554,3.0863,3.3593,3.4267,3.4502,3.4439,3.4741,3.4494,3.3718,3.3616,3.3353,3.2925,3.2325,3.2401,3.296,3.2166,3.1954,3.2182,3.1743,3.1373,3.0986,3.0381,2.949,2.8426,2.8,2.6201,2.4014,2.4846,2.4775,2.399,2.2513,2.2128,2.2223,2.2432,2.3107,2.3675,2.2652,2.1368,2.0293,2.0293,0.0,2.1428,2.3005,2.3403,2.3722,2.4951,2.5309,2.5547,2.6205,2.745,2.8465,2.881,2.9562,2.9988,2.9665,2.996,3.0251,3.0129,3.0613,3.1161,3.161,3.1981,3.2404,0.0,3.2897,3.3005,3.3309,3.3414,3.3821,3.4451,3.5345,3.5799,3.5633,3.6731,3.6697,3.544,3.5811,3.5628,3.4899,3.4756,3.4691,3.4691,3.4399,3.43,3.4251,3.3551,3.3306,3.3434,3.359,3.3881,3.4381,3.5138,3.565,3.5985,3.6088,3.6343,3.6591,0.0,0.0,0.0,0.0,0.0,0.0,0.0,0.0,0.0,0.0,0.0,0.0,0.0,0.0,0.0,0.0,1.9846,2.1829,2.4448,2.7335,2.9714,3.1507,3.2587,3.3513,3.4237,3.3391,3.3187,3.3688,3.3021,3.2573,3.2297,3.1937,3.1867,3.2008,3.1595,3.1418,3.1336,3.1012,3.0374,2.95,2.9404,2.8528,2.7221,2.646,2.5239,2.3717,0.0,2.1502,2.0822,2.0586,2.0498,2.0646,2.1635,2.2035,2.1902,2.0923,2.1014,2.1354,2.0939,0.0,2.2702,2.3806,2.4227,2.4624,2.5516,2.5892,2.6304,2.7316,2.7367,2.7376,2.828,2.8484,2.8498,2.8384,2.9064,2.9906,3.0659,3.0814,3.1117,3.1797,3.201,0.0,0.0,0.0,0.0,3.3309,3.3398,3.3614,3.3837,3.4734,3.5417,3.5867,3.6249,3.6244,3.5902,3.5705,3.5218,3.4497,3.4448,3.4644,3.4933,3.4311,3.4101,3.4134,3.3792,3.3794,3.3991,3.4039,3.4312,3.4722,3.5081,3.5515,3.5924,3.5932,3.6259,3.6713,0.0,0.0,0.0,0.0,0.0,0.0,0.0,0.0,0.0,0.0,0.0,0.0,0.0,0.0,0.0,0.0,0.0,2.0908,2.3188,2.53,2.721,2.9041,2.9899,3.0798,3.1797,3.0835,3.0646,3.141,3.0947,3.0733,3.0688,3.0563,3.0743,3.1199,3.0779,3.0516,3.0471,3.0225,2.9358,2.804,2.7764,2.6771,2.5346,2.4277,2.3031,0.0,2.0076,1.8816,1.808,1.8536,1.9058,1.961,2.0281,2.0589,2.0641,2.0267,2.0715,2.1391,2.1453,2.2135,2.3085,2.4208,2.4706,2.5101,2.5725,2.627,2.6769,2.728,2.7041,2.6919,2.7441,2.7619,2.7633,2.7698,2.8555,2.9551,3.0577,3.0704,3.0969,3.1693,3.1995,3.2191,0.0,0.0,0.0,3.3309,3.3398,3.3503,3.3555,3.4418,3.5223,3.5764,3.5796,3.5849,3.5938,3.5291,3.4886,3.4691,3.4951,3.5259,3.5525,3.4607,3.432,3.4524,3.4062,3.405,3.4333,3.4023,3.4348,3.5055,3.491,3.5368,3.6028,3.5975,3.6259,3.6574,0.0,0.0,0.0,0.0,0.0,0.0,0.0,0.0,0.0,0.0,0.0,0.0,0.0,0.0,0.0,0.0,0.0,0.0,2.2627,2.2622,2.3687,2.6336,2.6434,2.6743,2.755,2.7217,2.7115,2.7122,2.7568,2.7897,2.8182,2.8182,2.8983,3.0354,2.9546,2.9317,2.9395,2.9211,2.8195,2.6591,2.5599,2.4249,2.2691,2.1537,1.988,1.8106,1.7869,1.6888,1.584,1.6471,1.7842,1.9116,1.8442,1.8958,1.991,2.0539,2.039,2.0404,2.1745,2.2255,2.2707,2.4093,2.4754,2.5069,2.5448,2.6399,2.6951,2.6077,2.6536,2.694,0.0,0.0,2.7429,2.7621,2.8492,2.9348,2.9999,3.0357,3.075,0.0,0.0,0.0,0.0,0.0,0.0,3.3309,0.0,3.3571,3.3758,3.4523,3.5101,3.544,3.5375,3.5342,3.534,3.4707,3.474,3.5505,3.6088,3.6397,3.6312,3.523,3.4945,3.5293,3.4156,3.3951,3.4399,3.355,3.403,3.529,3.4732,3.5197,3.6182,3.6233,3.6259,3.6259,0.0,0.0,0.0,0.0,0.0,0.0,0.0,0.0,0.0,0.0,0.0,0.0,0.0,0.0,0.0,0.0,0.0,0.0,2.1333,2.2088,2.3148,2.4579,2.4927,2.5659,2.6879,2.5726,2.5568,2.6459,2.585,2.5575,2.5552,2.5478,2.5578,2.5873,2.5756,2.5755,2.5823,2.5709,2.4946,2.3811,2.3302,2.2192,2.0665,2.0003,1.8733,1.722,1.7174,1.6251,1.5274,1.6157,0.0,0.0,0.0,1.9629,1.9958,2.0563,2.0958,2.1323,2.1793,2.2758,2.3662,2.3957,2.4515,2.4938,2.4985,2.5287,2.56,2.5744,2.5289,2.4869,0.0,0.0,0.0,2.6746,2.8321,0.0,3.153,3.1453,0.0,3.2576,0.0,3.2413,3.2866,3.3134,0.0,0.0,3.3398,3.3778,3.4462,3.4417,3.481,3.5792,3.4823,3.443,3.4819,3.48,3.5421,3.6664,3.6416,3.6254,3.6061,3.5283,3.4723,3.4394,3.3598,3.3486,3.3806,3.3339,3.3641,3.4566,3.4839,3.5273,3.5756,3.5888,3.5949,3.5973,0.0,0.0,0.0,0.0,0.0,0.0,0.0,0.0,0.0,0.0,0.0,0.0,0.0,0.0,0.0,0.0,0.0,0.0,0.0,2.0923,2.1585,2.2435,2.2345,2.2825,2.3954,2.277,2.2669,2.3644,2.336,2.3293,2.3447,2.364,2.388,2.404,2.3942,2.3928,2.3947,2.3741,2.2937,0.0,0.0,2.0211,1.9019,1.8316,1.7447,1.6643,1.6553,1.6287,0.0,0.0,0.0,1.9218,2.06,2.1001,2.1205,2.195,0.0,2.2809,2.2822,2.369,2.4467,2.3906,2.4653,2.5329,2.4587,2.5131,2.5619,2.4912,2.4375,0.0,2.3999,0.0,0.0,0.0,0.0,0.0,3.114,3.1162,3.145,0.0,3.2588,0.0,3.285,3.3455,3.3678,0.0,3.3361,3.3625,3.4181,3.397,3.4398,3.572,3.453,3.4041,3.4302,3.4764,3.5594,3.6761,3.6664,3.667,3.6637,3.5766,3.5094,3.4623,0.0,3.3437,3.4001,3.3172,3.3584,3.4829,3.5199,3.5424,3.5656,3.6263,3.6222,3.5841,0.0,0.0,0.0,0.0,0.0,0.0,0.0,0.0,0.0,0.0,0.0,0.0,0.0,0.0,0.0,0.0,0.0,0.0,0.0,0.0,1.9827,2.0391,1.9797,1.9716,2.0368,1.967,1.9618,2.0253,2.0724,2.1158,2.1627,2.2048,2.2598,2.3161,2.2737,2.2607,2.2701,2.2283,2.1301,2.0089,1.9189,1.838,1.7614,0.0,1.6355,1.6237,1.6009,1.6587,0.0,0.0,1.9731,2.057,2.1956,2.2543,2.2926,2.3654,2.4104,2.4254,2.4017,2.457,2.4962,2.3957,2.5009,2.5902,2.4363,2.537,2.605,2.3969,0.0,2.3794,2.3291,2.3869,2.4747,2.5657,0.0,2.8531,3.0179,3.0545,3.1021,3.1967,3.2687,3.3027,3.2765,3.3786,3.4143,3.3409,3.352,3.3636,3.3646,3.3646,3.4178,3.5307,3.4371,3.3947,3.4043,3.4804,3.5598,3.6448,3.7019,3.7404,3.7454,3.6416,3.5743,3.5361,3.3697,3.3615,3.4492,3.3159,3.3727,3.5448,3.5673,3.569,3.5751,3.6945,3.6713,3.5834,0.0,0.0,0.0,0.0,0.0,0.0,0.0,0.0,0.0,0.0,1.8558,1.8823,0.0,0.0,0.0,0.0,0.0,0.0,0.0,0.0,0.0,1.9906,1.9707,1.9656,1.9818,1.9546,1.9435,1.9501,1.9581,1.9599,1.9522,1.9075,1.9051,1.9412,1.8914,1.9053,1.9651,1.9043,1.8631,1.8288,1.7636,1.7034,1.6567,1.6511,0.0,0.0,1.5583,0.0,0.0,0.0,2.03,2.0921,2.2258,2.3083,2.3542,2.3415,2.3784,2.4211,2.384,2.419,2.4582,2.4406,2.5236,2.5841,2.4792,2.5094,0.0,0.0,2.3133,2.3021,2.2794,2.3572,2.4705,2.6198,0.0,0.0,0.0,0.0,3.2446,0.0,0.0,0.0,0.0,0.0,0.0,0.0,3.4606,3.4966,3.4462,3.4537,3.4743,3.5065,3.4233,3.4085,3.4784,3.5667,3.6432,3.7161,3.8062,3.8133,3.7476,3.6845,3.6179,3.5462,3.3746,0.0,3.4151,3.3395,3.3831,3.5104,3.6135,3.6146,3.5751,3.6901,3.6669,3.5902,0.0,0.0,0.0,0.0,0.0,0.0,0.0,1.7417,1.8243,1.9531,1.9821,1.9859,1.9777,1.9507,1.9413,0.0,0.0,0.0,0.0,0.0,0.0,0.0,1.9705,1.9669,1.969,1.9508,1.9376,1.9339,0.0,1.9153,1.904,1.87,1.8616,1.8736,1.8309,1.8352,1.8779,1.8325,1.8121,1.8055,1.7679,1.7275,1.6901,0.0,0.0,0.0,0.0,0.0,0.0,0.0,1.98,2.0978,2.3187,2.4231,2.4687,2.4887,2.5231,2.5471,2.551,2.556,2.5576,2.541,2.5801,2.5904,2.4472,0.0,0.0,0.0,2.2538,2.2616,2.2644,0.0,0.0,0.0,0.0,0.0,0.0,0.0,0.0,0.0,0.0,0.0,0.0,0.0,0.0,0.0,3.5828,3.5726,3.4181,3.4611,3.4872,3.4872,3.4691,3.46,3.4619,3.5486,3.6323,3.7094,3.7958,3.8229,3.785,3.7211,3.6238,3.5071,3.3922,3.3419,3.3467,3.3624,3.437,3.5462,3.6435,3.6639,3.6474,3.717,3.7172,3.6792,0.0,0.0,0.0,0.0,0.0,0.0,0.0,1.841,1.9132,2.0905,2.1305,2.114,2.0364,1.9943,1.9669,0.0,0.0,0.0,0.0,0.0,0.0,0.0,0.0,0.0,0.0,0.0,0.0,0.0,1.9213,0.0,0.0,0.0,0.0,0.0,1.8531,1.8468,1.8659,1.8397,1.8235,0.0,0.0,1.776,0.0,0.0,0.0,0.0,0.0,0.0,0.0,0.0,1.9287,2.0677,2.3392,2.4562,2.511,2.5703,2.6149,2.6511,2.6916,2.6875,2.6647,2.6452,2.6477,2.612,2.4354,2.4184,0.0,0.0,2.2184,2.2509,2.2799,0.0,0.0,0.0,2.7442,0.0,0.0,0.0,0.0,0.0,0.0,0.0,0.0,0.0,0.0,0.0,3.6492,3.6082,3.4342,3.4659,3.4868,3.4803,3.5075,3.5002,3.4528,3.5413,3.6252,3.7094,3.7837,3.8206,3.8197,3.7433,3.629,3.4802,3.427,3.376,3.3322,3.4147,3.5182,3.6283,3.7035,3.7257,3.7271,3.7759,3.7706,3.7359,0.0,0.0,0.0,0.0,0.0,0.0,0.0,1.8797,1.9788,2.1741,2.2046,2.1783,2.0988,2.0968,2.0841,0.0,0.0,0.0,0.0,0.0,0.0,0.0,0.0,0.0,0.0,0.0,0.0,0.0,0.0,0.0,0.0,0.0,0.0,0.0,0.0,0.0,1.8592,1.8383,0.0,0.0,0.0,0.0,0.0,0.0,0.0,0.0,0.0,0.0,0.0,0.0,0.0,1.9793,2.1533,2.2748,2.3563,2.3441,0.0,0.0,2.6259,2.6478,2.6788,2.7284,2.7041,2.6469,2.5297,0.0,0.0,2.2847,2.2463,2.2601,2.3275,0.0,0.0,0.0,0.0,2.8482,0.0,0.0,0.0,0.0,0.0,0.0,0.0,0.0,0.0,3.5486,3.5758,3.5936,3.6044,3.498,3.4607,3.5153,3.479,3.4824,3.5277,3.6165,3.6954,3.7744,3.8541,3.8685,3.8284,3.7484,3.6421,3.5333,3.4958,3.4693,0.0,3.5226,3.6256,3.7603,3.8347,3.8138,3.756,3.8581,3.7955,3.6631,0.0,0.0,0.0,0.0,0.0,0.0,1.8699,1.9463,2.0538,2.2541,2.2849,2.2702,2.2294,2.2001,2.1278,1.9929,0.0,0.0,0.0,0.0,0.0,0.0,0.0,0.0,0.0,0.0,0.0,1.9921,0.0,0.0,0.0,0.0,0.0,0.0,0.0,0.0,1.893,1.8407,0.0,0.0,0.0,0.0,0.0,0.0,0.0,0.0,0.0,0.0,0.0,0.0,0.0,0.0,1.9091,2.004,0.0,0.0,2.445,2.5384,2.6951,2.7172,2.7044,2.7693,2.7032,2.595,2.5012,0.0,2.3632,2.2456,2.2495,2.2814,2.3083,2.361,2.4399,2.5492,2.6481,0.0,2.8858,0.0,0.0,0.0,0.0,0.0,0.0,0.0,0.0,3.6908,3.6802,3.6868,3.7298,3.5478,3.4642,3.5082,3.5215,3.5349,3.5544,3.6519,3.7251,3.7635,3.8019,3.8137,3.7951,3.7246,3.6434,3.5616,3.4925,3.4242,0.0,3.4678,3.5616,3.6446,3.7151,3.7567,3.7815,3.7953,3.7835,3.7492,0.0,0.0,0.0,0.0,0.0,1.6858,1.9053,1.9721,2.072,2.2731,2.3083,2.2951,2.2658,2.2209,2.1456,2.0167,1.9938,0.0,0.0,0.0,0.0,0.0,0.0,0.0,0.0,0.0,2.0065,2.0472,2.0029,1.9953,0.0,0.0,0.0,0.0,0.0,0.0,0.0,0.0,0.0,0.0,0.0,0.0,0.0,0.0,0.0,0.0,0.0,0.0,0.0,0.0,0.0,0.0,0.0,0.0,0.0,0.0,2.3904,2.4912,2.7124,2.7523,2.7518,2.815,2.7024,2.5611,0.0,0.0,2.3073,2.2264,2.248,2.292,2.3143,2.3681,2.4365,2.5198,2.5864,2.6663,2.7859,0.0,0.0,0.0,0.0,0.0,0.0,0.0,3.6582,3.7413,3.7517,3.7501,3.7395,3.5861,3.507,3.5185,3.5398,3.558,3.5645,3.6522,3.7136,3.7484,3.7631,3.7523,3.7254,3.6937,3.6276,3.5309,3.5095,3.4497,0.0,3.4915,3.5751,3.6312,3.683,3.7428,3.8012,3.7789,3.7828,3.7821,0.0,0.0,0.0,0.0,0.0,0.0,1.9015,1.9465,2.0174,2.2069,2.2473,2.2345,2.1609,2.1273,2.125,2.1659,2.095,0.0,0.0,0.0,0.0,0.0,0.0,0.0,0.0,0.0,2.0457,2.0386,2.1099,2.1085,2.0386,2.0457,2.0169,0.0,0.0,0.0,0.0,0.0,0.0,0.0,0.0,0.0,0.0,0.0,0.0,0.0,0.0,0.0,0.0,0.0,0.0,0.0,0.0,1.8386,1.8412,2.0429,2.2753,2.4968,2.6222,2.7375,2.8364,2.8686,2.7292,2.5742,0.0,0.0,2.3121,2.2498,2.2586,2.2965,2.3752,2.3696,2.3995,2.547,2.5305,2.5908,2.8451,0.0,0.0,0.0,0.0,0.0,0.0,0.0,3.7617,3.6337,3.7434,0.0,3.6108,3.6107,3.5992,3.5594,3.5135,3.5215,3.5795,3.6058,3.6619,3.7402,3.7532,3.6996,3.5949,3.661,3.5873,3.4197,3.5645,3.5959,0.0,3.6439,3.7288,3.8093,3.8249,3.8209,3.8151,3.8528,3.8087,3.7266,0.0,0.0,0.0,0.0,0.0,0.0,0.0,1.7825,1.8688,2.0363,2.0594,2.0902,2.1629,2.1524,2.144,2.1635,2.1143,0.0,0.0,0.0,0.0,0.0,0.0,0.0,0.0,0.0,2.0733,2.1169,2.1241,2.1395,2.163,2.0799,2.0268,1.9909,1.9163,0.0,0.0,0.0,0.0,0.0,0.0,0.0,0.0,0.0,0.0,0.0,0.0,0.0,0.0,0.0,0.0,0.0,0.0,0.0,0.0,1.9461,2.1224,2.2944,2.3778,2.5082,2.61,2.5324,2.4665,2.4129,2.376,0.0,2.2611,2.2459,2.2632,2.2965,2.345,2.3653,2.4094,2.5369,2.5376,2.5703,0.0,0.0,0.0,0.0,0.0,0.0,0.0,0.0,3.7072,3.7397,3.793,3.8195,3.8228,3.7486,3.6837,3.6383,3.5993,3.6339,3.7415,3.7203,3.7299,3.7677,3.7377,3.6887,3.6174,3.6474,3.6367,3.5936,3.5804,3.5453,3.5021,3.5322,3.5661,3.6054,3.6772,3.7305,3.7671,3.8025,3.7596,3.6737,0.0,0.0,0.0,0.0,0.0,0.0,0.0,1.7721,1.8444,1.9697,1.9848,2.024,2.1363,2.1383,2.15,2.2004,2.1807,0.0,0.0,0.0,0.0,0.0,0.0,0.0,0.0,2.087,2.1579,2.2206,2.2066,2.2203,2.2599,2.1568,2.0818,2.0216,1.956,1.9205,0.0,0.0,0.0,0.0,0.0,0.0,1.8149,0.0,0.0,0.0,0.0,0.0,0.0,0.0,0.0,0.0,0.0,0.0,0.0,0.0,1.9892,2.1212,2.2449,2.3697,2.4458,2.3775,2.3238,2.2847,0.0,0.0,2.2115,2.2374,2.2678,2.3024,2.3465,2.3653,2.4003,2.4972,0.0,0.0,0.0,0.0,0.0,0.0,0.0,0.0,0.0,3.6888,3.7551,3.7626,3.7978,3.8314,3.8617,3.7669,3.7085,3.7052,3.6287,3.63,3.7169,3.7009,3.7009,3.716,3.6942,3.6586,3.611,3.6487,3.6574,3.6396,3.6204,3.5969,0.0,3.5754,3.5668,3.5634,3.6647,3.7024,3.7148,3.7808,3.753,3.6768,0.0,0.0,0.0,0.0,0.0,0.0,0.0,1.8721,1.911,1.9763,1.9899,2.0188,2.0855,2.0977,2.147,2.2621,0.0,0.0,0.0,0.0,0.0,0.0,0.0,0.0,2.079,2.1898,2.2782,2.3304,2.3349,2.3364,2.3334,2.2657,2.1713,2.0557,2.0469,1.9678,1.8435,0.0,0.0,0.0,1.8386,1.8189,0.0,0.0,0.0,0.0,0.0,0.0,0.0,0.0,0.0,0.0,0.0,0.0,0.0,0.0,0.0,0.0,0.0,2.2966,2.3363,2.3549,2.2685,2.1888,2.2286,0.0,0.0,2.2246,2.2649,2.3083,2.3756,2.3726,2.3855,0.0,0.0,0.0,0.0,0.0,0.0,0.0,0.0,0.0,3.6626,3.8253,3.8623,3.7184,3.7796,3.805,3.7519,3.6928,3.6905,3.7528,3.6211,3.552,3.5576,3.5902,3.6131,3.6182,3.6429,3.6313,3.5797,3.6671,3.657,0.0,3.6756,3.717,3.7251,3.7266,3.6896,3.6451,3.7468,3.7271,3.659,3.779,3.7785,3.7168,0.0,0.0,0.0,0.0,0.0,0.0,0.0,0.0,0.0,0.0,1.8964,1.9524,2.0248,2.0637,2.1159,0.0,0.0,0.0,0.0,0.0,0.0,0.0,0.0,0.0,2.0745,2.1913,2.2475,2.2395,2.3301,2.372,2.3598,2.3006,2.225,2.1312,2.0669,1.9891,1.9068,1.8757,0.0,0.0,1.8201,1.8016,0.0,0.0,0.0,0.0,1.8489,1.8712,0.0,0.0,0.0,0.0,0.0,0.0,0.0,0.0,1.8936,1.9368,2.0333,0.0,2.1096,2.022,2.0385,2.0684,0.0,0.0,0.0,0.0,0.0,2.3259,2.4504,2.4085,2.4141,0.0,0.0,0.0,0.0,0.0,0.0,0.0,0.0,3.6659,3.6568,3.7824,3.8368,3.7788,3.8434,3.8427,3.7452,3.7477,3.7398,3.724,3.6427,3.645,3.736,3.6939,3.683,3.7094,3.7266,3.7119,3.6724,3.7073,3.6703,3.5849,3.7,3.6809,3.5792,3.6592,3.6479,3.5879,3.7053,3.684,3.6045,3.7179,3.7243,3.6749,0.0,0.0,0.0,0.0,0.0,0.0,0.0,0.0,0.0,0.0,0.0,0.0,0.0,0.0,0.0,0.0,0.0,0.0,0.0,0.0,0.0,0.0,0.0,2.1762,2.159,2.2342,2.2863,2.3024,2.3267,2.3522,2.3688,2.3115,2.2321,2.1284,2.0219,1.9526,1.9145,1.9112,1.8796,1.8388,1.8384,0.0,0.0,0.0,0.0,0.0,1.8288,1.8433,0.0,1.892,1.8739,1.8524,0.0,0.0,0.0,0.0,1.8798,1.8922,1.9305,1.985,2.0237,1.9901,1.9929,2.0133,2.0457,0.0,0.0,0.0,0.0,0.0,2.4176,0.0,0.0,0.0,0.0,0.0,0.0,0.0,0.0,0.0,0.0,3.6883,0.0,3.83,3.8414,3.8297,3.8146,3.788,3.7319,3.6989,3.6729,3.6608,3.6414,3.6603,3.716,3.6928,3.6853,3.6982,3.7259,3.7276,3.7048,3.7241,3.7049,3.6567,3.7214,3.7059,3.638,3.6932,3.6566,3.5824,3.7262,3.6783,3.5551,3.7404,3.7498,3.6812,0.0,0.0,0.0,0.0,0.0,0.0,0.0,0.0,0.0,0.0,0.0,0.0,0.0,0.0,0.0,0.0,0.0,0.0,0.0,0.0,0.0,0.0,2.2795,2.2697,2.2688,2.2951,2.3389,2.4046,2.3331,2.3252,2.3673,2.3224,2.2291,2.0961,1.9695,1.9137,1.9166,1.9327,1.9014,1.8422,1.8783,0.0,0.0,0.0,0.0,0.0,0.0,0.0,0.0,1.8495,1.846,1.8417,1.906,0.0,0.0,0.0,0.0,0.0,1.8989,1.9691,2.0422,2.0729,2.028,2.006,2.1169,0.0,0.0,0.0,0.0,0.0,0.0,0.0,0.0,0.0,0.0,0.0,0.0,0.0,0.0,0.0,3.6708,0.0,3.9186,3.8991,3.8649,3.8378,3.7604,3.7119,3.6986,3.6232,3.5919,3.6062,3.636,3.6419,3.6268,3.6602,3.6684,3.6585,3.6952,3.7147,3.7185,3.7374,3.7358,3.7251,3.7232,0.0,3.738,3.7363,3.6674,3.5823,3.7376,3.6754,3.5247,3.7681,3.7922,3.7256,0.0,0.0,0.0,0.0,0.0,0.0,0.0,0.0,0.0,0.0,0.0,0.0,0.0,0.0,0.0,0.0,0.0,0.0,0.0,0.0,0.0,2.3215,2.2753,2.2666,2.3098,2.298,2.3223,2.3735,2.3926,2.3828,2.3545,2.3843,2.2912,2.0961,2.0128,1.9782,1.9835,1.9632,1.9415,1.9223,1.91,0.0,0.0,0.0,0.0,0.0,0.0,0.0,0.0,1.837,1.8355,1.8493,1.8972,0.0,0.0,0.0,0.0,0.0,2.0047,2.1079,2.1633,2.022,2.0212,2.0528,2.057,0.0,0.0,0.0,0.0,0.0,0.0,0.0,0.0,0.0,0.0,0.0,0.0,0.0,0.0,3.6062,0.0,3.925,3.7965,3.8844,3.8858,3.7255,3.7661,3.7303,3.5925,3.6486,3.673,3.6437,3.6461,3.6544,3.662,3.6829,3.6948,3.6948,3.7182,3.7372,3.754,3.7595,3.7202,3.6488,0.0,3.6479,3.5831,3.6077,3.5721,3.5133,3.6124,3.5954,3.5321,3.6694,3.7617,3.8221,0.0,0.0,0.0,0.0,0.0,0.0,0.0,0.0,0.0,0.0,0.0,0.0,0.0,0.0,0.0,0.0,0.0,0.0,0.0,0.0,2.3511,2.3671,2.301,2.2922,2.3564,2.3334,2.3669,2.4547,2.4696,2.466,2.4512,2.3783,2.2546,2.0961,2.0549,2.0177,1.9969,2.0442,2.0133,1.9376,0.0,0.0,0.0,0.0,0.0,0.0,0.0,0.0,0.0,0.0,1.8756,1.8438,1.9009,0.0,0.0,0.0,0.0,0.0,1.9804,2.0665,2.138,2.1266,2.183,2.2523,2.2824,0.0,0.0,0.0,0.0,0.0,0.0,0.0,0.0,0.0,0.0,0.0,0.0,0.0,3.5943,0.0,0.0,3.844,3.7994,3.8753,3.8723,3.7505,3.7684,3.7285,3.6051,3.6389,3.6526,3.6353,3.6544,3.6748,3.6869,3.7087,3.7126,3.6908,3.7203,3.7392,3.7503,3.7685,3.7524,3.7077,0.0,3.684,3.6121,3.6204,3.5878,3.546,3.6383,3.6413,3.5992,3.6733,3.7652,3.8395,0.0,0.0,0.0,0.0,0.0,0.0,0.0,0.0,0.0,0.0,0.0,0.0,0.0,0.0,0.0,0.0,0.0,0.0,0.0,0.0,2.3392,2.3722,2.3071,2.3166,2.4168,2.3832,2.4276,2.5426,2.5597,2.5578,2.5369,2.3579,2.2176,2.1137,2.0997,2.0683,2.0323,2.1197,2.0882,1.9852,0.0,0.0,0.0,0.0,0.0,0.0,0.0,0.0,0.0,0.0,0.0,0.0,0.0,0.0,0.0,1.9153,1.9265,1.9406,1.959,2.0391,2.1371,2.233,2.3112,2.3919,2.4828,0.0,0.0,0.0,0.0,0.0,0.0,0.0,0.0,0.0,0.0,0.0,3.4927,3.53,3.5784,3.6917,3.7375,3.7794,3.8172,3.8449,3.829,3.7491,3.7353,3.6944,3.6175,3.6168,3.6225,3.6251,3.6609,3.6851,3.7009,3.7279,3.7241,3.693,3.7299,3.7503,3.754,3.781,3.7828,3.7685,3.7506,3.7005,3.6219,3.6021,3.5652,3.5307,3.6048,3.6329,3.634,3.6887,3.7476,3.7775,0.0,0.0,0.0,0.0,0.0,0.0,0.0,0.0,0.0,0.0,0.0,0.0,0.0,0.0,0.0,0.0,0.0,0.0,0.0,0.0,2.3037,2.2898,2.2598,2.3254,2.4977,2.4453,2.4713,2.5877,2.6621,2.6432,2.5369,2.3502,2.2257,2.1555,2.1657,2.1584,2.1308,2.1642,2.1598,2.1264,2.0655,0.0,0.0,0.0,0.0,0.0,0.0,0.0,0.0,0.0,0.0,0.0,0.0,0.0,1.9376,1.9376,1.9465,1.9708,2.0272,2.1466,2.2562,2.2652,2.2658,0.0,2.4887,2.4845,0.0,0.0,0.0,0.0,0.0,0.0,0.0,0.0,0.0,3.4282,3.5268,0.0,3.8536,3.8319,3.9121,3.9159,3.7866,3.7945,3.7527,3.6208,3.6319,3.6189,3.5695,3.6027,3.631,3.6461,3.6708,3.6891,3.7108,3.7299,3.7392,3.7354,3.7559,3.7757,3.7864,3.7967,3.788,3.7667,3.7021,3.6164,3.5154,3.4474,3.3934,3.3574,3.3717,3.4504,3.5696,3.6728,3.6656,3.6083,0.0,0.0,0.0,0.0,0.0,0.0,0.0,0.0,0.0,0.0,0.0,0.0,0.0,0.0,0.0,0.0,0.0,0.0,0.0,2.2409,2.2716,2.3313,2.2723,2.288,2.3922,2.4436,2.5508,2.7202,2.7284,2.688,2.594,2.4187,2.2795,2.1743,2.2189,2.2101,2.1538,2.1626,2.131,2.0754,2.0528,2.0069,0.0,0.0,0.0,0.0,0.0,0.0,0.0,0.0,1.8972,1.9104,1.914,1.9265,1.9339,1.9339,1.9465,1.967,1.9872,2.1036,2.232,2.2701,0.0,0.0,0.0,0.0,0.0,0.0,0.0,0.0,0.0,0.0,0.0,0.0,3.3341,3.4644,3.5868,3.6457,3.6756,3.6654,3.7069,3.7226,3.6926,3.7121,3.7001,3.6287,3.6458,3.6337,3.5878,3.6105,3.6318,3.6502,3.6788,3.697,3.7108,3.7299,3.7429,3.754,3.7613,3.7685,3.7792,3.7984,3.7915,3.7631,3.7608,3.6946,3.5864,3.5198,3.4878,3.4847,3.518,3.6011,3.6942,3.6451,3.6419,3.6445,0.0,0.0,0.0,0.0,0.0,0.0,0.0,0.0,0.0,0.0,0.0,0.0,0.0,0.0,0.0,0.0,0.0,0.0,2.1545,2.1885,2.2352,2.3008,2.2498,2.2463,2.2994,2.4042,2.537,2.6832,2.6745,2.6433,2.592,2.4288,2.3016,2.2074,2.2534,2.2286,2.1538,2.1626,2.1168,2.043,2.0302,1.9936,0.0,0.0,0.0,0.0,0.0,0.0,0.0,0.0,1.9317,1.9376,1.9213,1.9265,1.9376,1.9339,1.9745,2.0198,2.0183,2.1252,2.252,0.0,0.0,0.0,0.0,0.0,0.0,0.0,0.0,0.0,0.0,0.0,0.0,0.0,3.4305,3.53,3.6279,3.6124,3.5991,3.6047,3.5867,3.5845,3.6195,3.6271,3.6208,3.6047,3.6245,3.6237,3.5966,3.6105,3.6318,3.6502,3.6771,3.7009,3.7147,3.7354,3.7503,3.7577,3.7613,3.7685,3.7757,3.7697,3.7646,3.7613,3.7575,3.7058,3.6221,3.5863,3.5513,3.534,3.5807,3.6241,3.6541,3.5669,3.5904,3.6464,0.0,0.0,0.0,0.0,0.0,0.0,0.0,0.0,0.0,0.0,0.0,0.0,0.0,0.0,0.0,0.0,0.0,0.0,2.0216,2.1305,2.1845,2.1612,2.1714,2.2001,2.2466,2.3342,2.3928,2.4341,2.4785,2.5091,2.5173,2.3499,2.2678,2.2615,2.2615,2.2167,2.1419,2.167,2.1356,2.0641,2.0067,1.9835,1.9839,0.0,0.0,0.0,0.0,0.0,0.0,0.0,1.9168,1.9376,1.9325,1.9465,1.9589,1.9376,2.0327,2.1465,2.1425,2.2372,2.3451,0.0,0.0,0.0,0.0,0.0,0.0,0.0,0.0,0.0,0.0,0.0,0.0,3.2493,3.4736,3.639,3.6406,3.6789,3.7069,3.7069,3.608,3.5477,3.5778,3.5233,3.4994,3.5291,3.5503,3.5667,3.5773,3.5949,3.6148,3.6502,3.6673,3.6952,3.7297,3.7466,3.7577,3.7577,3.7667,3.7757,3.7881,3.7072,3.7022,3.7523,3.6738,3.622,3.6015,3.6074,3.5435,3.4442,3.4916,3.4604,3.3965,3.4288,3.5064,3.58,0.0,0.0,0.0,0.0,0.0,0.0,0.0,0.0,0.0,0.0,0.0,0.0,0.0,0.0,0.0,0.0,0.0,0.0,1.9976,2.0301,2.0693,2.1097,2.1354,2.1341,2.1012,2.1458,2.3143,2.6147,2.5383,2.4995,2.4917,2.3574,2.2902,2.2735,2.2902,2.2651,2.2045,2.1341,2.0784,2.0429,2.0274,1.9857,1.9411,0.0,0.0,0.0,0.0,0.0,0.0,0.0,0.0,0.0,1.8817,1.9427,2.0169,1.9546,2.0183,2.1045,2.0807,2.2125,0.0,0.0,0.0,0.0,0.0,0.0,0.0,0.0,0.0,0.0,0.0,0.0,0.0,3.341,3.3803,3.4305,3.4905,3.4759,3.4585,3.4691,3.4581,3.4626,3.4972,3.4919,3.4994,3.5291,3.5429,3.5611,3.5773,3.5949,3.6105,3.636,3.6585,3.6544,3.6197,3.6993,3.7126,3.6702,3.7381,3.7721,3.7667,3.7036,3.6768,3.6738,3.5987,3.5934,3.631,3.6346,3.569,3.4631,3.4906,3.4926,3.4787,3.5235,3.5899,3.6522,0.0,0.0,0.0,0.0,0.0,0.0,0.0,0.0,0.0,0.0,2.022,2.0198,0.0,0.0,0.0,0.0,0.0,0.0,1.9638,1.9811,2.0189,2.0822,2.0897,2.0761,2.0463,2.0831,2.2292,2.4835,2.404,2.3775,2.3904,2.3098,2.276,2.2809,2.2992,2.2598,2.168,2.1069,2.0471,2.0035,2.0049,1.9788,1.9435,0.0,0.0,0.0,0.0,0.0,0.0,0.0,0.0,0.0,1.8869,1.9317,2.0017,2.0097,2.059,2.13,2.2009,0.0,0.0,0.0,0.0,0.0,0.0,0.0,0.0,0.0,0.0,3.2425,3.3371,3.3556,0.0,3.4053,3.3998,3.4109,3.4683,3.4308,3.3969,3.4058,3.4076,3.4201,3.4659,3.4787,3.4947,3.5198,3.5337,3.5475,3.5622,3.5728,3.5949,3.6233,3.6461,3.6417,3.605,3.6559,3.6589,3.6165,3.6524,3.6631,3.6595,3.668,3.6787,3.6845,3.6077,3.5862,3.6022,3.6039,3.5486,3.4631,3.479,3.4779,3.4631,3.5008,3.5693,3.6363,0.0,0.0,1.6775,1.7915,0.0,0.0,0.0,0.0,0.0,0.0,2.015,1.996,0.0,0.0,0.0,1.9376,1.9176,1.9101,1.9228,1.96,2.0059,2.0621,2.0317,2.0288,2.0584,2.1025,2.1401,2.1605,2.1665,2.1968,2.2581,2.2332,2.244,2.2841,2.3023,2.2236,2.0826,2.0852,2.0382,1.9594,1.9594,1.9618,1.9681,1.9997,0.0,0.0,0.0,0.0,0.0,0.0,0.0,0.0,1.9207,1.9213,1.9444,2.0669,2.1256,2.1947,2.398,0.0,0.0,0.0,0.0,0.0,0.0,0.0,0.0,0.0,0.0,3.2854,3.3861,3.4025,3.4007,3.4303,3.468,3.4974,3.5086,3.4784,3.4564,3.4601,3.4198,3.4101,3.4594,3.4691,3.4787,3.5041,3.5198,3.5321,3.5379,3.5475,3.5667,3.602,3.613,3.6212,3.6278,3.5983,3.5821,3.5788,3.5315,3.5048,3.5049,3.597,3.6683,3.7131,3.6381,3.5775,3.527,3.5341,3.504,3.4503,3.4661,3.4345,3.3834,3.4141,3.4907,3.5656,0.0,0.0,1.6729,1.7504,0.0,0.0,0.0,0.0,0.0,0.0,0.0,0.0,0.0,0.0,0.0,1.9176,1.8988,1.8836,1.8827,1.8965,1.9132,1.9382,1.9656,2.0228,2.1108,2.0648,2.0511,2.0757,2.1292,2.1806,2.2387,2.2401,2.2642,2.3052,2.3201,2.263,2.1528,2.0997,2.0326,1.9686,1.9686,1.9505,1.9266,1.947,1.9148,0.0,0.0,0.0,0.0,0.0,0.0,0.0,1.8859,1.9369,2.0082,1.9862,2.065,2.1739,0.0,2.3473,0.0,0.0,0.0,0.0,0.0,0.0,0.0,0.0,0.0,3.4032,3.4616,3.438,3.4106,3.4022,3.3732,3.359,3.3682,3.3821,3.3882,3.3934,3.3893,3.405,3.4349,3.4497,3.4643,3.4899,3.5041,3.5198,3.5337,3.5503,3.5351,3.489,3.5104,3.4747,3.3723,3.4387,3.4544,3.42,3.4818,3.5101,3.5066,3.4775,3.4363,3.3919,3.4214,3.4268,3.4264,3.4972,3.4876,3.4289,3.472,3.4412,3.3934,3.4915,3.5386,3.5559,0.0,0.0,0.0,0.0,0.0,0.0,0.0,0.0,0.0,0.0,0.0,0.0,0.0,1.9064,0.0,0.0,1.8927,1.8988,1.8889,1.8988,1.9246,1.9657,2.0421,2.1015,2.1359,2.0914,2.0632,2.0487,2.0593,2.106,2.1816,2.1789,2.2142,2.2775,2.2775,2.2132,2.1005,2.059,2.0163,1.9781,1.9846,1.9724,1.9551,1.9642,1.9133,1.83,1.83,0.0,0.0,0.0,0.0,0.0,0.0,0.0,1.9682,2.0075,2.0386,2.0974,0.0,0.0,0.0,0.0,0.0,0.0,0.0,0.0,0.0,0.0,3.3244,3.4102,3.4601,3.4441,3.4281,3.4281,3.3662,3.3366,3.3911,3.3709,3.3607,3.3745,3.3797,3.3949,3.425,3.4497,3.4643,3.4787,3.5041,3.5198,3.5198,3.5031,3.4734,3.4391,3.4236,3.3819,3.31,3.349,3.3584,3.3421,3.3618,3.3776,3.3913,3.4371,3.4138,3.339,3.3344,3.3164,3.2938,3.3462,3.3517,3.3346,3.4022,3.4064,3.387,3.453,3.4766,3.474,0.0,0.0,0.0,0.0,0.0,0.0,0.0,0.0,0.0,0.0,0.0,0.0,0.0,1.8471,1.8293,0.0,0.0,0.0,1.8941,1.9155,1.9633,2.0356,2.1322,2.1645,2.1241,2.1197,2.0912,2.03,1.9886,2.0236,2.134,2.109,2.1469,2.2357,2.2172,2.1383,2.0216,2.0138,1.9962,1.9796,1.9744,1.9686,1.9696,1.9478,1.8775,1.7943,1.8019,1.8048,1.8133,1.8316,0.0,0.0,0.0,0.0,1.9041,2.0407,2.0187,2.0203,0.0,0.0,0.0,0.0,0.0,0.0,0.0,0.0,0.0,3.1574,3.2678,3.3754,3.4056,3.416,3.4218,3.4545,3.3858,3.3551,3.4388,3.3868,3.3503,3.3848,3.3745,3.3797,3.425,3.4448,3.4594,3.4691,3.4925,3.5015,3.4968,3.4342,3.3979,3.3845,3.3423,3.3077,3.2909,3.2752,3.2714,3.2844,3.2458,3.2317,3.2429,3.3825,3.4141,3.3499,3.2702,3.2085,3.1596,3.1864,3.2065,3.2319,3.3075,3.3533,3.3762,3.3676,3.3732,3.386,0.0,0.0,0.0,0.0,0.0,0.0,0.0,0.0,0.0,0.0,1.8728,1.8495,1.8594,1.7886,1.7364,1.733,1.7798,1.8086,1.8129,0.0,0.0,2.0356,2.0548,2.0631,2.0611,2.0727,2.0362,1.9546,1.9538,2.0183,0.0,0.0,2.1312,2.2273,2.181,2.1159,2.0347,2.0167,1.9808,1.9315,1.871,1.8491,1.8396,1.7372,1.6749,0.0,0.0,1.7345,1.7505,1.8409,1.8878,0.0,0.0,0.0,1.9022,1.9447,1.9753,2.0172,0.0,0.0,0.0,0.0,0.0,0.0,0.0,0.0,0.0,0.0,3.289,3.3362,3.3146,3.3346,3.3645,3.3923,3.3505,3.3234,3.363,3.3654,3.371,3.3899,3.371,3.3694,3.4101,3.405,3.4201,3.4643,3.4272,3.408,3.4325,3.365,3.2974,3.2412,3.2294,3.1941,3.1318,3.1632,3.1771,3.1809,3.2267,3.2086,3.15,3.1812,3.2009,3.2031,3.1128,3.0688,3.0737,3.1524,3.1882,3.2,3.2345,3.2958,3.3542,3.2912,3.3094,3.3643,0.0,0.0,0.0,0.0,0.0,0.0,0.0,0.0,0.0,0.0,0.0,1.7466,1.7528,1.7131,1.6858,1.6808,1.7445,1.8027,1.8485,1.9117,1.9782,2.0419,2.0448,2.0641,2.0986,2.0748,2.0406,1.9996,1.976,0.0,0.0,2.0968,2.141,0.0,0.0,2.079,2.0342,1.9342,1.902,1.9043,1.8183,1.8345,1.9064,0.0,0.0,0.0,0.0,0.0,0.0,0.0,1.8639,1.904,1.895,0.0,0.0,0.0,1.9228,0.0,2.1919,0.0,0.0,0.0,0.0,0.0,0.0,0.0,3.0922,3.119,3.2499,3.3645,3.3851,3.441,3.486,3.4992,3.4312,3.3878,3.4128,3.395,3.3797,3.3797,3.3745,3.3745,3.3848,3.3728,3.3746,3.405,3.3732,3.3556,3.36,3.288,3.2311,3.1918,3.1541,3.1173,3.0814,3.1213,3.1504,3.1748,3.1203,3.1124,3.1373,3.0445,3.0362,3.0932,3.0059,2.9751,2.9904,3.0427,3.0908,3.1351,3.1547,3.2365,3.3364,3.2648,3.2885,3.3549,0.0,0.0,0.0,0.0,0.0,0.0,0.0,0.0,0.0,0.0,0.0,1.6681,1.6681,0.0,0.0,0.0,1.7065,1.7837,1.8729,1.9295,1.9857,2.048,2.0487,2.07,2.1178,2.0729,2.0427,2.0264,0.0,0.0,2.1759,2.1225,2.1807,0.0,2.1671,2.0805,0.0,0.0,0.0,1.9313,1.83,1.8702,1.9829,0.0,0.0,0.0,0.0,0.0,0.0,0.0,0.0,0.0,0.0,0.0,0.0,0.0,0.0,0.0,0.0,0.0,0.0,0.0,0.0,0.0,0.0,0.0,3.0806,0.0,3.2176,3.3624,3.4306,3.4949,3.535,3.5276,3.4579,3.4067,3.4388,3.4134,3.3899,3.3797,3.3899,3.3899,3.3797,3.3713,3.3612,3.3653,3.3339,3.3057,3.283,3.2026,3.1583,3.1566,3.0991,3.0651,3.0692,3.0807,3.0955,3.1162,3.0162,3.0035,3.058,2.939,2.9088,2.9466,2.8976,2.9,2.9358,2.9492,3.007,3.0846,3.0713,3.1627,3.2893,3.1944,3.2244,3.3143,0.0,0.0,0.0,0.0,0.0,0.0,0.0,0.0,0.0,0.0,0.0,1.6619,1.6619,1.6025,1.5861,1.6371,1.6459,1.7049,1.8436,1.9218,1.9872,2.0472,2.0425,0.0,2.0561,2.0531,2.0205,1.9634,0.0,0.0,2.1901,2.1777,2.2606,2.4059,2.2385,2.1374,2.0835,0.0,0.0,0.0,1.9426,1.9358,1.989,0.0,0.0,0.0,0.0,0.0,0.0,0.0,0.0,0.0,0.0,0.0,0.0,0.0,0.0,0.0,0.0,0.0,0.0,0.0,0.0,0.0,0.0,0.0,0.0,3.1263,3.2114,3.2912,3.3593,3.382,3.3764,3.3563,3.3325,3.3266,3.3498,3.388,3.4101,3.4101,3.4101,3.4101,3.4101,3.4168,3.4121,3.3796,3.3127,3.253,3.2077,3.1032,3.0634,3.0938,3.0667,3.0568,3.0692,3.0145,2.9673,2.9259,2.9558,2.9195,2.8288,2.8499,2.8146,2.7397,2.7712,2.8399,2.9272,2.9119,2.9757,3.0707,2.9755,3.0521,3.1975,3.0266,3.0707,3.2155,0.0,0.0,0.0,0.0,0.0,0.0,0.0,0.0,0.0,0.0,0.0,0.0,0.0,1.6247,1.5979,1.691,1.7378,1.7709,1.7989,1.9016,1.95,1.9235,1.9678,1.9938,1.9916,1.9938,1.9893,0.0,0.0,2.0205,2.1319,2.1509,2.2039,2.2747,2.2308,2.1798,2.1207,2.0068,0.0,0.0,1.9165,1.9623,2.0491,0.0,0.0,0.0,0.0,0.0,0.0,0.0,0.0,0.0,0.0,0.0,0.0,0.0,0.0,0.0,0.0,0.0,0.0,2.4038,2.5363,2.6352,2.7086,2.8506,2.9859,3.0634,3.1766,3.2655,3.2832,3.3661,3.4182,3.3805,3.3748,3.3707,3.3618,3.3899,3.405,3.3848,3.3546,3.3272,3.3072,3.2498,3.218,3.2265,3.1762,3.1358,3.129,3.0842,3.0651,3.079,3.0609,3.0336,2.9992,2.881,2.8498,2.9033,2.8065,2.7777,2.8168,2.7653,2.7373,2.7289,2.7338,2.7709,2.8288,2.8317,2.8788,2.939,2.8781,2.942,3.0583,2.9762,3.0163,3.1224,0.0,0.0,0.0,0.0,0.0,1.831,0.0,0.0,0.0,0.0,0.0,0.0,0.0,0.0,1.6539,1.7242,1.8139,1.8464,1.8004,1.9001,1.9381,1.8936,1.9415,1.969,1.9632,1.9705,1.969,0.0,0.0,0.0,0.0,2.1102,2.1575,2.2249,2.2107,2.1995,0.0,0.0,0.0,2.0235,0.0,2.077,2.1239,0.0,0.0,0.0,0.0,0.0,0.0,0.0,0.0,0.0,0.0,0.0,0.0,0.0,0.0,0.0,2.0074,0.0,0.0,0.0,0.0,2.5047,2.6107,0.0,2.9326,2.9986,3.1124,3.2013,3.2176,3.3091,3.3761,3.3488,3.3732,3.383,3.3722,3.3949,3.4101,3.3899,3.3546,3.311,3.2686,3.1999,3.1521,3.1342,3.0968,3.0775,3.0749,3.0568,3.0344,3.0154,2.9889,2.9393,2.8743,2.7706,2.7491,2.7984,2.6904,2.6739,2.735,2.7199,2.7012,2.6807,2.7146,2.7592,2.8057,2.7782,2.8272,2.9127,2.8523,2.8999,2.9976,2.9432,2.965,3.0225,0.0,1.9664,2.005,1.996,1.8815,1.8132,1.8797,0.0,0.0,0.0,0.0,0.0,0.0,0.0,0.0,1.7374,1.8563,1.909,1.8499,1.9182,1.9596,1.966,1.9675,1.969,1.969,1.969,1.9669,1.9611,1.9574,1.9864,2.0395,0.0,2.1389,2.2574,2.1839,2.1953,2.2731,0.0,2.2622,2.2667,0.0,2.2732,2.2091,0.0,0.0,0.0,2.2783,2.2505,0.0,0.0,0.0,0.0,0.0,0.0,0.0,0.0,0.0,0.0,0.0,0.0,0.0,0.0,0.0,0.0,2.6025,0.0,2.8376,2.936,3.0192,3.0978,3.1665,3.1909,3.2144,3.2478,3.3087,3.3539,3.371,3.4034,3.4267,3.4284,3.4134,3.3727,3.2901,3.2837,3.2368,3.1226,3.0965,3.0777,3.0518,3.0103,2.9605,2.899,2.8427,2.7783,2.6995,2.6967,2.6627,2.5974,2.6189,2.6082,2.5787,2.7136,2.7069,2.5897,2.7117,2.8066,2.8652,2.7461,2.8241,3.0011,2.898,2.925,3.0132,2.9198,2.9041,2.9178,1.8531,1.8842,1.9159,1.909,1.8313,1.7885,1.8525,0.0,0.0,0.0,0.0,0.0,0.0,0.0,1.8959,1.8498,1.9152,1.9166,1.8151,1.8745,1.9001,1.8613,1.9148,1.9523,1.9647,1.9647,1.9611,1.9611,1.9332,1.9382,1.982,2.0035,2.0455,2.1138,2.1539,2.1754,2.1743,2.1148,0.0,0.0,2.1829,2.241,0.0,0.0,0.0,0.0,0.0,2.3336,2.3093,0.0,2.1002,1.9153,0.0,0.0,0.0,0.0,0.0,0.0,1.8461,0.0,0.0,0.0,0.0,0.0,2.2952,2.4865,2.6773,2.8152,2.9181,3.001,3.067,3.0985,3.1201,3.1404,3.2254,3.3067,3.363,3.3398,3.3369,3.3681,3.3363,3.2561,3.1134,3.1354,3.1001,0.0,3.006,3.0385,3.0368,2.9807,2.9075,2.8249,2.7515,2.6948,2.662,2.6057,2.5702,2.5567,2.5605,2.594,2.6504,2.6471,2.6524,2.673,2.6604,2.6738,2.7046,2.691,2.7486,2.8441,2.793,2.8167,2.8806,2.8224,2.8005,2.8032,1.8427,1.8744,1.9036,1.898,1.8564,1.8411,0.0,0.0,0.0,0.0,0.0,0.0,0.0,0.0,1.9638,1.9305,1.9323,1.9027,1.8312,1.8688,1.8792,1.86,1.9272,1.9618,1.9501,1.973,1.9768,1.9611,1.9242,1.913,1.9369,1.9455,1.9798,2.0264,2.0513,2.0681,0.0,0.0,0.0,0.0,2.2178,0.0,0.0,2.3755,2.4304,0.0,0.0,0.0,2.3786,2.3638,2.1685,0.0,0.0,0.0,0.0,0.0,0.0,0.0,0.0,0.0,0.0,0.0,0.0,0.0,2.2091,2.3866,2.5726,2.7324,2.8194,2.8974,2.9979,3.0335,3.0519,3.0633,3.1162,3.1916,3.2784,3.2418,3.2112,3.2399,3.1823,3.091,2.9667,2.9964,2.9826,2.8726,2.9146,2.9502,2.9587,2.9001,2.8478,2.81,2.68,2.6188,2.6359,2.5591,2.5201,2.5224,2.5339,2.5548,2.587,2.6438,2.66,2.6462,2.6689,2.6648,2.6422,2.643,2.7062,2.7964,2.7738,2.7923,2.8268,2.7979,2.7646,2.7362,0.0,1.8998,1.945,1.939,1.933,1.9359,0.0,0.0,0.0,0.0,0.0,0.0,0.0,0.0,0.0,0.0,1.9301,1.8902,1.876,1.8745,0.0,0.0,0.0,0.0,0.0,1.9894,1.9947,1.9538,1.9286,1.9113,1.9031,1.8993,1.9267,1.9796,1.9262,1.9281,1.9742,0.0,0.0,2.1286,2.3039,2.3096,0.0,0.0,2.4297,0.0,2.4591,2.4685,2.417,2.4577,2.2637,0.0,0.0,0.0,0.0,0.0,1.7343,0.0,0.0,0.0,0.0,0.0,0.0,0.0,2.2292,2.3555,2.4792,2.6351,2.7011,2.7642,2.8872,2.9249,2.9391,2.958,2.9706,3.018,3.147,3.1082,3.0755,3.0881,3.0041,2.9154,2.8442,2.8844,2.8881,2.8307,2.8387,2.851,2.8533,2.8049,2.7862,2.8115,2.6326,2.56,2.6036,2.5322,2.4966,2.4966,2.5265,2.51,2.4735,2.6638,2.6821,2.5621,2.6928,2.7017,2.6278,2.5994,2.6799,2.8168,2.793,2.7981,2.8219,2.8015,2.7586,2.7006,1.8291,1.8702,1.929,1.9851,1.9846,0.0,0.0,0.0,0.0,0.0,0.0,0.0,0.0,0.0,0.0,0.0,1.9879,1.935,1.8377,1.8358,0.0,0.0,0.0,0.0,0.0,0.0,1.9715,1.9176,1.9391,1.943,1.9228,1.895,1.897,1.9237,1.9121,1.906,1.8994,0.0,0.0,2.0852,2.1226,0.0,2.3382,2.4127,2.4858,2.5431,2.5905,2.553,2.4605,0.0,2.2251,2.1247,0.0,0.0,0.0,0.0,0.0,0.0,0.0,0.0,0.0,0.0,0.0,0.0,2.042,2.1688,2.2915,2.3359,2.3978,2.4554,2.4772,2.497,2.5305,2.5898,2.6519,2.7767,3.0321,2.9926,2.9611,3.0259,2.9704,2.8828,2.7726,2.869,2.8869,2.7524,2.8462,2.8815,2.8081,2.8156,2.7657,2.6362,2.6009,2.5557,2.493,2.4748,2.4726,2.4822,2.5119,2.5399,2.5628,2.579,2.5879,2.5904,2.5719,2.5621,2.5609,2.5691,2.6442,2.7528,2.694,2.7145,2.7774,2.7233,2.6977,2.691,1.8593,1.8809,1.9257,1.9908,0.0,0.0,0.0,0.0,0.0,0.0,0.0,0.0,0.0,0.0,0.0,0.0,0.0,0.0,0.0,0.0,0.0,0.0,0.0,0.0,0.0,0.0,1.9584,1.9101,1.9219,1.9219,1.9003,1.8851,1.9141,1.9792,1.9031,1.9049,0.0,0.0,1.9222,2.0229,2.1341,0.0,2.4215,2.4807,2.5452,2.6002,2.5907,2.5656,2.514,2.3589,2.2614,0.0,0.0,1.9934,1.9755,0.0,1.943,2.0118,0.0,0.0,0.0,1.8932,0.0,0.0,0.0,2.1032,2.2248,2.2817,2.3456,2.4051,2.4431,2.4259,2.4131,2.4405,2.5168,2.6036,2.6882,2.7352,2.7743,2.8136,2.7494,2.6756,2.617,2.6999,2.7316,2.6635,2.7537,2.7778,2.6997,2.7121,2.6963,2.6361,2.5727,2.5325,2.5144,2.516,2.4922,2.4513,2.508,2.5118,2.4798,2.5444,2.5839,2.5998,2.5842,2.5993,2.623,2.5667,2.5837,2.6488,2.6286,2.6528,2.6918,2.6673,2.6556,2.6622,1.895,1.895,1.919,1.9735,0.0,0.0,0.0,0.0,0.0,0.0,0.0,0.0,0.0,0.0,0.0,0.0,0.0,0.0,0.0,0.0,0.0,0.0,0.0,1.9319,0.0,0.0,0.0,1.9078,1.9094,1.8994,1.875,1.8673,1.9211,0.0,0.0,0.0,0.0,0.0,0.0,2.0486,0.0,2.3403,2.4359,2.5222,2.5666,2.5739,2.5605,2.5647,2.5562,2.434,2.3234,2.2255,2.1053,2.0759,0.0,0.0,0.0,0.0,0.0,0.0,0.0,0.0,0.0,1.953,0.0,0.0,0.0,2.2379,2.293,0.0,0.0,0.0,0.0,2.3274,0.0,0.0,0.0,2.4524,0.0,2.5622,2.5073,2.4679,2.4578,2.5108,2.5623,2.5973,2.6365,2.6428,2.6062,2.6073,2.6235,2.6588,2.5524,2.5211,2.5659,2.5524,2.5153,2.4563,2.5063,2.4828,2.4014,2.5168,2.5758,2.5849,2.601,2.6358,2.6703,2.5544,2.5262,2.553,2.5791,2.5974,2.6082,2.6154,2.6173,2.6305,1.8659,1.8683,1.8998,1.9535,0.0,0.0,0.0,0.0,0.0,0.0,0.0,0.0,0.0,0.0,0.0,0.0,0.0,0.0,2.0361,0.0,0.0,0.0,0.0,0.0,1.9612,0.0,0.0,1.9031,1.9344,1.9344,1.8955,1.8673,1.8588,0.0,1.9628,0.0,0.0,0.0,2.1145,0.0,2.2867,2.2764,0.0,2.3957,2.469,2.5163,2.5642,2.5839,2.5672,0.0,2.3675,2.3039,0.0,2.1572,2.2038,0.0,0.0,0.0,0.0,0.0,0.0,0.0,1.9582,0.0,0.0,0.0,2.0189,1.9555,0.0,0.0,0.0,0.0,0.0,0.0,0.0,0.0,2.1683,2.2524,2.3259,2.3517,2.402,2.4178,2.378,2.4278,2.5029,2.5939,2.563,2.5613,2.6166,2.6271,2.6068,2.55,2.5575,2.5586,2.5505,2.4916,2.5053,2.5894,2.4957,2.4775,2.5269,2.4667,2.4732,2.5262,2.4795,2.4864,2.533,2.5108,2.5084,2.5185,2.5378,2.5567,2.568,2.5738,2.5775,2.6008,1.8683,1.8836,1.9152,1.9695,0.0,0.0,0.0,0.0,0.0,0.0,0.0,0.0,0.0,0.0,0.0,0.0,0.0,2.1852,0.0,0.0,0.0,0.0,0.0,0.0,0.0,0.0,0.0,0.0,1.8849,1.881,1.8517,1.84,1.8958,0.0,1.9956,0.0,2.1387,0.0,2.1147,0.0,0.0,0.0,0.0,2.4654,2.53,2.5162,2.5301,2.5342,2.5078,0.0,2.3279,0.0,0.0,0.0,0.0,0.0,0.0,0.0,0.0,0.0,0.0,0.0,0.0,0.0,1.8702,0.0,1.9738,0.0,0.0,0.0,0.0,0.0,0.0,0.0,2.1017,0.0,0.0,0.0,2.2786,2.294,0.0,0.0,2.347,2.3763,2.4199,2.4958,2.4422,2.4372,2.5191,2.5207,2.5253,2.5419,2.5376,2.5533,2.5962,2.601,2.5925,2.5801,2.5657,2.5292,2.4724,2.4764,2.4787,2.4791,2.478,2.4914,2.5134,2.4883,2.4846,2.4926,2.5123,2.5301,2.5492,2.5605,2.5642,2.5907,1.863,0.0,0.0,0.0,0.0,0.0,0.0,0.0,0.0,0.0,0.0,0.0,2.3469,2.3378,0.0,0.0,0.0,2.325,0.0,0.0,2.1231,0.0,0.0,0.0,0.0,0.0,0.0,0.0,1.8386,1.8361,1.8282,1.8163,1.8948,2.0382,0.0,2.0928,2.2421,0.0,0.0,2.2216,2.2767,2.3174,2.3658,2.536,2.5725,2.5342,2.5188,2.5005,2.4641,2.3715,2.2893,0.0,2.211,0.0,0.0,0.0,0.0,0.0,2.0132,0.0,0.0,0.0,0.0,0.0,0.0,0.0,0.0,0.0,0.0,0.0,0.0,0.0,0.0,0.0,0.0,2.0552,0.0,2.0732,0.0,0.0,0.0,0.0,0.0,2.2394,2.2762,2.3621,2.3157,2.3305,2.441,2.4317,2.4506,2.5083,2.4841,2.5209,2.6138,2.6382,2.6332,2.6057,2.6113,2.5612,2.4637,2.4864,2.4798,2.4552,2.4669,2.4811,2.4995,2.4627,2.4549,2.4757,2.5147,2.5282,2.5339,2.5416,2.5432,2.5696,1.8344,1.8461,0.0,0.0,0.0,0.0,0.0,0.0,0.0,0.0,0.0,0.0,0.0,0.0,0.0,0.0,0.0,2.5925,2.5809,0.0,2.3012,0.0,0.0,2.0712,0.0,0.0,0.0,0.0,0.0,1.8321,1.8478,1.8083,1.803,1.8368,2.0048,2.0813,2.0937,2.2208,2.3571,2.4864,2.4562,2.5134,2.6112,0.0,2.5427,2.5674,2.5536,0.0,0.0,2.3437,2.2788,0.0,0.0,0.0,0.0,0.0,0.0,0.0,0.0,0.0,0.0,1.9037,0.0,0.0,0.0,0.0,1.8961,0.0,0.0,0.0,0.0,0.0,0.0,0.0,0.0,0.0,0.0,0.0,0.0,0.0,0.0,0.0,0.0,1.9642,2.0311,2.1963,2.1985,2.2626,2.4241,2.4109,2.404,2.4055,2.3912,2.446,2.5801,2.5168,2.563,2.7144,2.5986,2.5545,2.5727,2.4838,2.4537,2.4642,2.3953,2.3997,2.4488,2.4219,2.4261,2.4601,2.5586,2.5631,2.5091,2.5045,2.5005,2.529,1.8305,0.0,0.0,0.0,0.0,0.0,0.0,2.1064,0.0,0.0,0.0,0.0,0.0,2.6554,2.7329,0.0,0.0,2.7399,2.7094,2.4696,0.0,0.0,0.0,2.0854,0.0,0.0,0.0,0.0,0.0,1.8289,1.8837,1.818,1.8426,1.9347,0.0,2.1318,0.0,0.0,0.0,0.0,0.0,2.4634,2.5434,0.0,2.5411,2.5342,2.5018,2.4721,0.0,2.3806,2.3032,2.2392,2.2535,2.2035,2.1395,2.1638,2.1506,2.1313,0.0,0.0,2.1564,2.046,0.0,0.0,0.0,0.0,0.0,0.0,0.0,0.0,0.0,0.0,0.0,0.0,0.0,0.0,0.0,0.0,0.0,0.0,0.0,0.0,0.0,0.0,2.0339,2.1441,2.1744,2.2491,2.4032,2.4024,2.418,2.4635,2.4372,2.4657,2.5661,2.5729,2.6065,2.6783,2.6453,2.6184,2.6044,2.5491,2.5039,2.4663,2.497,2.4807,2.4357,2.4909,2.4802,2.4317,2.5058,2.5091,2.4901,2.6034,2.6204,2.6094,1.8398,0.0,0.0,0.0,0.0,0.0,0.0,0.0,0.0,0.0,2.4133,0.0,2.6652,0.0,2.7737,0.0,2.862,2.8247,2.7495,2.5823,0.0,2.5615,2.3224,0.0,0.0,0.0,0.0,0.0,0.0,1.8358,1.8755,1.8358,1.8576,1.9319,0.0,2.1462,2.2554,0.0,2.4152,0.0,0.0,2.4741,0.0,0.0,2.512,2.472,0.0,2.4492,2.4189,2.3878,2.328,2.2745,2.305,2.2483,2.167,2.2098,2.1773,2.146,2.1979,2.2213,0.0,2.1231,2.0966,0.0,1.8872,0.0,0.0,0.0,0.0,0.0,0.0,0.0,0.0,0.0,0.0,0.0,0.0,1.7904,0.0,0.0,0.0,0.0,0.0,1.8389,1.9322,2.1237,2.1268,2.1964,2.3749,2.3797,2.3949,2.443,2.4134,2.431,2.507,2.5482,2.5874,2.6243,2.6535,2.6402,2.5908,2.5879,2.5429,2.4771,2.5252,2.5047,2.4462,2.4915,2.4718,2.4223,2.5258,2.5387,2.5129,2.6257,2.6788,2.7173,1.8679,1.8594,0.0,0.0,1.8782,0.0,0.0,0.0,2.2594,0.0,2.4426,2.5355,2.6635,2.7006,2.7502,2.8284,2.8964,0.0,2.7169,2.7358,0.0,0.0,2.5543,2.5257,2.5256,0.0,0.0,0.0,0.0,0.0,1.8377,1.8507,1.8452,1.8314,1.9921,0.0,2.2007,2.3078,2.4399,2.5674,2.5536,2.5481,2.5453,2.523,2.4639,2.3985,2.4563,2.4447,2.4054,2.3688,2.3509,2.3283,2.286,2.2555,2.242,2.242,2.2173,2.1937,2.2097,2.2171,2.2054,2.1551,2.1198,0.0,0.0,0.0,1.986,0.0,0.0,0.0,0.0,0.0,0.0,0.0,0.0,0.0,0.0,0.0,0.0,0.0,0.0,0.0,0.0,1.6473,1.7277,2.1104,2.0577,2.1087,0.0,2.3363,2.3334,2.3466,2.326,2.3419,2.4034,2.4519,2.5011,2.5582,2.6165,2.606,2.5412,2.5908,2.5722,2.5009,2.48,2.4792,2.4777,2.4303,2.4143,2.4388,2.6154,2.6428,2.5773,2.5815,2.6902,2.8347,1.8647,1.8785,1.8981,0.0,1.9101,1.9454,0.0,0.0,0.0,0.0,2.6367,2.7672,2.8694,2.9748,3.0335,3.0232,3.0651,0.0,0.0,0.0,0.0,2.7895,2.6095,2.5469,2.6367,2.3229,0.0,2.1907,0.0,0.0,1.9386,1.8299,1.8269,1.9155,0.0,0.0,2.2151,2.2602,2.3906,2.5674,2.53,2.5025,2.4845,0.0,2.4359,2.3819,2.4266,2.4144,2.3688,2.3509,2.3223,2.286,2.286,2.2726,2.2616,2.242,2.2247,2.2291,2.3059,2.3132,2.2912,2.2873,2.2213,2.1343,0.0,0.0,0.0,0.0,0.0,0.0,0.0,0.0,0.0,0.0,0.0,0.0,0.0,0.0,0.0,1.6218,0.0,0.0,1.5755,1.638,1.7634,1.9705,1.9933,2.0913,2.3113,2.2673,2.2644,2.3348,2.3275,2.3171,2.3045,2.3554,2.4187,2.484,2.5091,2.5265,2.5435,2.5907,2.574,2.522,2.6247,2.6128,2.5191,2.5665,2.5226,2.4394,2.5608,2.6424,2.6933,2.7337,2.8005,2.8821,1.9086,0.0,0.0,1.969,0.0,0.0,2.1232,0.0,0.0,2.5232,2.6599,0.0,2.8836,3.008,3.0856,3.0908,3.0952,0.0,2.924,0.0,0.0,2.7624,2.6952,2.6891,2.7556,2.4716,0.0,2.2685,0.0,0.0,1.8576,1.8235,1.815,0.0,0.0,1.9925,2.0952,2.2251,2.3589,2.4915,2.5009,2.4857,0.0,2.4714,2.4349,2.3782,2.3897,2.3839,2.3616,2.339,2.309,2.2848,2.2726,2.2604,2.2494,2.2235,2.2154,2.2261,2.2775,2.2893,2.294,2.2881,2.2408,2.1705,2.0831,2.033,2.0237,0.0,2.0963,2.1004,0.0,0.0,0.0,0.0,0.0,0.0,0.0,0.0,0.0,0.0,1.5841,1.5629,1.4972,1.5944,1.7483,1.9545,1.9359,1.9945,0.0,2.147,2.1628,2.2307,2.2498,2.2453,2.2126,2.2885,2.3413,2.3717,2.4007,2.4438,2.5071,2.5385,2.5357,2.5085,2.5981,2.5785,2.4843,2.5316,2.5093,2.4569,2.5558,2.627,2.6897,2.7607,2.8186,2.8748,1.9642,0.0,0.0,0.0,0.0,0.0,0.0,2.2619,0.0,2.5412,0.0,2.7285,2.8284,2.9504,3.0441,3.0799,0.0,2.9619,2.7931,2.8557,2.8265,2.6601,2.784,2.8522,2.8522,2.656,0.0,0.0,0.0,0.0,1.7248,1.8227,1.8079,0.0,0.0,0.0,0.0,2.2025,2.342,2.4104,2.4747,2.4751,2.4385,2.463,2.4359,2.3806,2.3395,2.3479,2.3616,2.3138,2.3017,2.2957,2.2482,2.2407,2.2394,2.2094,2.2022,2.2047,2.2007,2.2216,2.2376,2.2163,2.2136,2.1882,2.0985,2.0591,2.0613,2.1361,2.1119,2.1249,2.2921,0.0,0.0,0.0,0.0,0.0,0.0,0.0,0.0,0.0,0.0,0.0,1.4902,1.551,1.7038,1.9683,1.8782,1.8713,0.0,0.0,2.0444,2.1005,2.1485,2.1625,2.1473,2.2426,2.2851,2.2793,2.3128,2.3658,2.4431,2.459,2.4602,2.4543,2.491,2.4728,2.4143,2.4217,2.447,2.4882,2.5678,2.6075,2.64,2.7027,2.76,2.8143,0.0,0.0,0.0,0.0,0.0,2.1944,2.3647,2.5189,2.6345,2.674,2.862,2.9748,2.9446,3.0883,3.1482,3.0706,3.1144,0.0,0.0,0.0,0.0,2.7799,2.8025,2.821,2.821,2.5868,2.4323,0.0,0.0,0.0,0.0,0.0,0.0,0.0,0.0,0.0,2.1297,2.23,0.0,2.4839,2.4076,2.4187,2.4681,2.3477,2.3293,2.3598,2.289,2.2808,2.2969,2.2555,2.242,2.2482,2.2111,2.2336,2.2747,2.2427,2.2108,2.2007,2.2218,2.1958,2.1609,2.153,2.1508,2.1459,2.1346,2.0918,2.0852,2.1777,2.1452,2.1308,2.2177,0.0,0.0,0.0,0.0,0.0,0.0,0.0,0.0,0.0,0.0,1.5556,0.0,1.5662,1.6722,1.8126,0.0,0.0,0.0,1.9415,1.9586,2.0641,2.1355,2.178,2.1969,2.2588,2.3216,2.3811,2.3365,2.3295,2.3601,2.381,2.3571,2.315,2.4402,2.4553,2.388,2.4297,2.4822,2.5418,2.5243,2.5816,2.673,2.6279,2.64,2.7004,0.0,0.0,0.0,0.0,0.0,0.0,0.0,2.6816,2.7783,2.7543,2.8165,2.8944,2.9665,3.046,3.1062,3.1227,3.0856,3.035,2.9642,2.9184,2.861,2.8092,2.8197,0.0,2.8079,2.6237,2.4707,2.3461,0.0,0.0,0.0,0.0,0.0,0.0,0.0,1.9169,0.0,0.0,2.3376,2.438,2.4392,2.4393,2.4285,2.3774,2.3193,2.2723,2.2603,2.2347,2.2043,2.2027,2.2303,2.2519,2.2138,2.2427,2.2827,2.264,2.2306,2.197,2.1868,2.1554,2.1174,2.093,2.0939,2.1014,2.1024,2.0848,2.0797,2.1227,2.1151,2.1028,2.1055,2.0259,0.0,0.0,0.0,0.0,0.0,0.0,0.0,0.0,0.0,0.0,0.0,0.0,0.0,0.0,0.0,0.0,0.0,1.8692,1.8755,2.0004,2.0721,2.1216,2.1356,2.2369,2.3026,2.3393,2.2937,2.3071,2.3742,2.3689,2.3579,2.3464,2.4362,2.4205,2.3387,2.3894,2.4244,2.4533,2.4785,2.5149,2.555,2.5315,2.5425,2.5918,0.0,2.0932,0.0,0.0,2.3523,0.0,2.6196,2.7669,2.8474,2.8111,2.768,2.7958,2.9583,2.9857,3.0335,3.1282,3.0281,2.9547,2.9358,2.87,2.8249,2.8079,2.8118,2.8052,2.7947,2.6722,2.5079,0.0,0.0,0.0,0.0,0.0,0.0,0.0,0.0,0.0,0.0,0.0,2.3249,2.4034,2.4671,2.4525,2.3916,2.4002,2.3192,2.2055,2.2567,2.2151,2.1434,2.1954,2.2332,2.2527,2.2383,2.2553,2.273,2.2673,2.2252,2.1742,2.1353,2.103,2.0731,2.0303,2.0346,2.0475,2.0475,2.0399,2.0399,2.0377,2.052,2.0473,1.982,1.9317,0.0,0.0,0.0,0.0,0.0,0.0,0.0,0.0,0.0,0.0,1.4618,0.0,0.0,0.0,0.0,0.0,1.8771,1.8094,1.8138,1.9196,2.0024,2.0568,2.0877,2.2253,2.3017,2.3245,2.2719,2.2999,2.4055,2.354,2.3486,2.3865,2.409,2.3695,2.3025,2.3381,2.3554,2.3697,2.4292,2.4421,2.435,2.4452,2.461,2.4966,0.0,0.0,0.0,0.0,0.0,0.0,2.5719,2.7412,2.8638,2.8698,2.9056,2.9292,2.9522,3.0187,3.0405,2.9953,2.9934,2.9632,2.8903,2.8678,2.8327,2.7855,2.7656,2.7523,2.7403,2.6515,2.4974,0.0,0.0,1.9608,0.0,0.0,0.0,0.0,0.0,2.0391,2.3147,2.3022,2.3739,2.4798,2.418,2.399,2.3896,2.3158,2.2587,2.2256,2.2867,2.2509,2.1924,2.2619,2.2503,2.2248,2.2712,2.2548,2.2183,2.24,2.1744,2.0983,2.0736,2.0333,1.9921,1.9494,1.9539,1.9671,1.9671,1.9584,1.9507,1.9671,1.9733,1.9542,1.8731,1.9156,1.9212,0.0,0.0,0.0,0.0,0.0,0.0,0.0,0.0,0.0,0.0,1.485,0.0,0.0,1.6626,0.0,0.0,1.7562,1.779,1.8382,1.9423,2.0393,2.1328,2.2684,2.3787,2.4617,2.345,2.3296,2.3864,2.2512,2.2326,2.3084,2.2814,2.2916,2.3262,2.2897,2.3313,2.4041,2.3812,2.393,2.4292,2.4015,2.406,2.4394,0.0,0.0,0.0,0.0,0.0,0.0,0.0,2.7985,2.8573,2.8908,2.8804,2.8959,2.9658,2.9241,2.908,2.9402,2.9091,2.8779,2.8665,2.8471,2.8197,2.8,2.7669,2.7469,2.7268,2.6646,2.5538,0.0,0.0,0.0,0.0,0.0,0.0,0.0,1.9934,2.1084,2.2533,2.3614,2.4349,2.4785,2.4497,2.4293,2.401,2.3323,2.2716,2.2355,2.2616,2.2324,2.1843,2.2777,2.2914,2.2662,2.2503,2.2739,2.2887,2.2282,2.1705,2.1232,2.0869,2.0167,1.9483,1.9341,1.9274,1.9274,1.9142,1.9065,1.8998,1.8865,1.893,1.8941,1.866,1.8575,1.8435,1.8176,0.0,0.0,0.0,0.0,0.0,0.0,0.0,0.0,0.0,0.0,0.0,0.0,0.0,0.0,0.0,1.7793,1.8071,1.8782,1.985,2.0796,2.1502,2.276,2.3632,2.4086,2.356,2.3502,2.3809,2.3276,2.321,2.3507,2.2779,2.2799,2.3188,2.2579,2.2776,2.3463,2.3132,2.3106,2.3121,2.2555,2.1956,2.1502,2.4723,0.0,2.5042,0.0,2.6572,2.6875,2.8268,2.8444,2.8495,2.878,2.8471,2.8584,2.9484,2.8559,2.816,2.8786,2.8438,2.8197,2.8392,2.8262,2.8066,2.7947,2.7669,0.0,2.7134,2.6747,2.5997,2.4743,2.2942,0.0,0.0,0.0,1.8887,1.9634,2.0913,2.1934,2.2713,2.4116,2.4719,2.4587,2.463,2.4329,2.3897,2.3606,2.3073,2.2555,2.288,2.2525,2.2014,2.2928,2.3149,2.2927,2.2506,2.2577,2.2628,2.179,2.1185,2.0805,2.0393,1.9716,1.9075,1.8942,1.8875,1.8741,1.8529,1.8395,1.8269,1.793,1.7958,1.8101,1.8519,1.8035,1.781,1.8276,0.0,0.0,0.0,1.6753,0.0,0.0,1.5294,1.5085,1.501,1.5016,0.0,0.0,0.0,0.0,0.0,1.7983,1.8336,1.9206,2.0079,2.0929,2.1601,2.2629,2.321,2.3424,2.3258,2.3305,2.3446,2.3412,2.3301,2.3065,2.2259,2.216,2.246,2.1606,2.1584,2.2078,2.2039,2.1891,2.1601,2.1031,2.0125,1.9057,2.5709,2.6021,2.6451,2.7352,2.7789,2.8052,2.8079,2.8536,2.8651,2.8145,2.8406,2.8665,2.8807,2.8406,2.8079,2.8092,2.8249,2.8157,2.7842,2.8105,2.8039,0.0,0.0,2.7255,2.6714,2.6863,2.6127,2.43,0.0,0.0,2.126,2.0342,2.0471,2.1558,2.1945,2.2987,2.445,2.4625,2.4484,2.421,2.4186,2.3879,2.3395,2.3982,2.364,2.3041,2.3849,2.3474,2.2695,2.3121,2.3065,2.2754,2.2855,2.2013,2.0983,2.0662,1.9921,1.9085,1.8885,1.8664,1.8442,1.8066,1.8008,1.794,1.7784,1.7442,1.7166,1.6968,1.6791,1.6901,1.7862,1.7703,1.7465,1.7745,0.0,0.0,0.0,1.6578,0.0,1.5497,1.5167,1.5012,1.5012,1.5358,0.0,0.0,0.0,0.0,0.0,1.8013,1.8497,1.9579,1.9829,2.0557,2.1673,2.2184,2.2641,2.3088,2.2469,2.2347,2.2592,2.2286,2.1837,2.1308,2.0673,2.0661,2.0951,1.9883,1.9583,1.9792,2.0364,2.0322,1.9792,1.9771,1.8937,1.7674,2.6206,2.6582,2.7061,2.743,2.7723,2.7788,2.752,2.7943,2.8179,2.789,2.8072,2.8406,2.878,2.8131,2.7669,0.0,2.7536,2.7403,0.0,2.7767,2.7738,2.7201,2.7357,2.7163,2.6508,2.6564,2.6276,2.5623,0.0,0.0,2.1881,2.1502,2.1701,2.2486,2.287,2.3304,2.3781,2.4019,2.4074,2.4019,2.3829,2.3576,2.3262,2.3156,2.3128,2.3116,2.2939,2.2911,2.2867,2.3021,2.2852,2.2467,2.2131,2.2026,2.1796,2.0938,2.0401,1.9937,1.9586,1.8706,1.791,1.7802,1.753,1.7176,1.7019,1.6751,1.6471,1.6201,1.626,1.6483,1.6796,1.6881,1.7109,1.7619,1.7189,0.0,1.6918,0.0,1.5558,1.5297,1.5093,1.4879,1.4728,1.5067,0.0,0.0,0.0,0.0,0.0,1.7645,1.8295,1.8159,1.9391,2.0357,2.0926,2.1101,2.1428,2.1939,2.133,2.1066,2.0991,2.0685,2.0339,2.0056,1.9362,1.9015,1.8892,1.836,1.8083,1.7908,1.7958,1.7385,1.6457,1.515,1.3582,1.2009,2.6427,2.6714,2.6985,2.7268,2.739,2.7459,2.7366,2.7696,2.7933,2.7662,2.7761,2.7987,2.8249,2.7789,0.0,2.7736,2.7416,2.7214,2.7268,2.7481,2.7439,2.6998,2.7125,2.693,2.6427,2.6414,2.622,2.584,2.4594,2.352,2.2636,2.2501,2.273,2.3178,2.3421,2.3593,2.3718,2.375,2.374,2.3666,2.3298,2.315,2.3043,2.2736,2.2739,2.2883,2.2578,2.2518,2.2542,2.2553,2.2327,2.2059,2.1829,2.187,2.1847,2.0617,2.0206,2.0011,1.9277,1.8404,1.7596,1.7431,1.699,1.6551,1.6342,1.6132,1.5992,1.5894,1.5748,1.5842,1.6391,1.6393,1.6493,1.7091,1.6677,1.6286,1.6268,0.0,1.5079,0.0,0.0,1.4317,1.4112,1.4345,1.4649,0.0,0.0,0.0,1.5439,1.687,1.7765,1.8079,1.8956,1.964,2.0183,2.0114,2.0204,2.0386,1.9836,1.9422,1.917,1.8696,1.8409,1.8188,1.7213,1.6396,1.5756,1.5202,1.4545,1.3882,1.3721,1.3285,1.2485,1.0749,0.9312,0.7647,2.6396,2.6314,2.6371,2.6875,2.6998,2.7027,2.7338,2.7656,2.7749,2.7404,2.751,2.7536,2.7456,2.7348,2.7509,2.8066,0.0,0.0,2.7268,2.7317,2.7262,2.6956,2.6802,2.6653,2.6358,2.6346,2.6025,2.5218,2.4525,2.3956,2.3461,2.3427,2.3546,2.3699,2.3664,2.3835,2.4116,2.3666,2.3446,2.3224,2.2628,2.2478,2.2628,2.2628,2.2553,2.2327,2.2553,2.2231,2.1766,2.1721,2.1578,2.1502,2.1655,2.1578,2.1263,1.9949,1.9627,1.9399,1.8397,1.777,1.7351,1.6954,1.6429,1.6,1.5831,1.5601,1.5576,1.5991,1.5274,1.5048,1.6519,1.6172,1.5798,1.6257,1.6216,1.5869,1.5194,1.4941,1.4502,1.3683,1.3534,1.3434,1.3357,1.345,1.3935,0.0,0.0,0.0,1.4946,1.5626,1.6888,1.8828,1.8361,1.8493,1.928,1.9201,1.8957,1.8536,1.8007,1.7619,1.7235,1.648,1.6035,1.5887,1.4387,1.3035,1.1715,1.0706,0.9453,0.8202,0.818,0.8194,0.7982,0.6103,0.5216,0.3887,2.598,2.5968,2.6107,2.6508,2.6564,2.6481,2.6276,2.7278,2.7592,2.6368,2.7346,2.7939,2.7348,2.7644,2.7984,2.8258,2.789,2.7503,2.6888,2.7632,2.7566,2.6458,2.6984,2.689,2.605,2.5886,2.5445,2.4763,2.4464,2.4234,2.4172,2.3938,2.3921,2.3899,2.3519,2.3345,2.3298,2.3001,2.2777,2.2628,2.2478,2.2327,2.2252,2.2252,2.2025,2.1731,2.1578,2.1339,2.1088,2.0944,2.1041,2.1205,2.0964,2.1041,2.1242,2.0867,2.0266,1.9543,1.909,1.804,1.6989,1.6762,1.6049,1.5493,1.5705,1.5347,1.5078,1.5371,1.5005,1.473,1.53,1.5477,1.5689,1.6207,1.5682,1.5256,1.5295,1.424,1.3481,1.3653,1.3018,1.2897,1.3533,1.3339,1.326,0.0,0.0,1.385,1.3897,1.4074,1.4899,1.6448,1.6938,1.7213,1.7444,1.7463,1.7276,1.6881,1.6576,1.6298,1.602,1.5287,1.4416,1.3429,1.207,1.0467,0.8711,0.8006,0.6667,0.5003,0.4632,0.3719,0.1852,-0.3701,-0.5729,-0.6416,2.5688,2.5742,2.5826,2.627,2.6293,2.621,2.6143,2.679,2.6955,2.6186,2.679,2.7296,2.7107,2.743,2.7793,2.8061,2.8086,2.7875,2.743,2.784,2.7607,2.6482,2.676,2.6651,2.6007,2.5468,2.5025,2.4582,2.4104,2.3973,2.4216,2.3641,2.3414,2.3382,2.3058,2.2971,2.3026,2.295,2.2809,2.2579,2.2349,2.2147,2.1949,2.1731,2.1578,2.1349,2.1436,2.1195,2.0789,2.1031,2.1041,2.0886,2.0886,2.0731,2.0576,2.0576,2.0178,1.9571,1.9009,1.8148,1.7309,1.6598,1.5823,1.5345,1.5732,1.5356,1.5008,1.5544,1.4936,1.4552,1.5271,1.5169,1.5078,1.5489,1.4892,1.4444,1.437,1.3372,1.2747,1.3063,1.2548,1.2351,1.2803,1.2736,1.2652,1.2417,1.2792,1.287,1.243,1.251,1.3388,1.516,1.5407,1.5421,1.5122,1.4838,1.4872,1.513,1.4505,1.4018,1.3661,1.2493,1.1304,1.0052,0.8772,0.7005,0.5002,0.3966,0.1404,-0.1938,-0.3059,-0.5243,-0.8203,-1.2046,-1.3332,-1.3849,2.5419,2.5527,2.5668,2.5984,2.6056,2.6166,2.6238,2.6251,2.6288,2.6302,2.6325,2.6516,2.69,2.7133,2.7478,2.7767,2.8249,2.8445,2.8255,2.8051,2.7533,2.6746,2.6566,2.6311,2.6021,2.5156,2.4641,2.4532,2.3819,2.363,2.41,2.3213,2.2793,2.271,2.2482,2.2537,2.2854,2.2854,2.2741,2.2559,2.2261,2.1968,2.1747,2.1379,2.1205,2.1205,2.1502,2.1185,2.0644,2.1262,2.1108,2.0566,2.0809,2.042,1.9863,1.9784,1.9715,1.9548,1.8683,1.8154,1.7674,1.6488,1.5725,1.5389,1.5859,1.5383,1.5039,1.592,1.5064,1.4475,1.5552,1.5031,1.438,1.447,1.4066,1.3632,1.313,1.2482,1.2051,1.223,1.2054,1.1868,1.1763,1.2056,1.2032,1.1708,1.2183,1.2004,1.0901,1.1057,1.2024,1.3711,1.3587,1.3339,1.2893,1.2271,1.2452,1.3379,1.2149,1.1352,1.0981,0.9246,0.7782,0.6492,0.5228,0.2979,0.0,-0.1359,-0.5341,-1.0771,-1.2421,-1.5181,-1.8364,-1.9381,-1.9452,-1.9678,2.4944,2.5616,2.5946,2.5326,2.5697,2.6034,2.5761,2.622,2.6498,2.6029,2.6613,2.6895,2.6517,2.7285,2.7858,2.7738,2.8472,2.8645,2.7964,2.8228,2.7863,2.6783,2.6784,2.6382,2.5456,2.471,2.4314,2.4187,2.4115,2.4137,2.4152,2.3606,2.3186,2.2797,2.2336,2.1968,2.1768,2.1768,2.1751,2.167,2.1612,2.172,2.1787,2.1346,2.1205,2.1128,2.0886,2.0566,2.0342,2.0255,2.0255,2.0264,1.9548,1.946,1.9529,1.9002,1.8851,1.8851,1.8692,1.7925,1.6916,1.6088,1.5622,1.541,1.5658,1.5181,1.4862,1.5589,1.5042,1.4599,1.4858,1.4817,1.4608,1.3964,1.3569,1.3051,1.2364,1.1653,1.1233,1.1404,1.1203,1.118,1.1507,1.1359,1.1266,1.1441,1.1004,1.0536,0.9973,1.0295,1.0349,0.9977,1.0806,1.1389,1.1847,1.1109,1.1013,1.1403,1.0237,0.9585,0.9398,0.7464,0.5758,0.4205,0.256,-0.1928,-0.8084,-0.9044,-1.329,-1.9318,-1.9895,-2.0543,-2.17,-2.6221,-2.6415,-2.5136,2.4693,2.523,2.5573,2.4967,2.5407,2.5753,2.5576,2.6106,2.6505,2.6324,2.6833,2.7148,2.7122,2.7404,2.7723,2.7956,2.8104,2.8136,2.7903,2.8246,2.7933,2.6685,2.6852,2.6323,2.4947,2.4695,2.4381,2.4057,2.3868,2.393,2.4358,2.3398,2.2824,2.2605,2.2004,2.1826,2.1856,2.1947,2.2008,2.1878,2.184,2.1748,2.1409,2.1131,2.1061,2.1061,2.0964,2.0809,2.0586,2.0489,2.0255,1.9942,1.939,1.9063,1.8904,1.8772,1.8612,1.8487,1.8109,1.7293,1.6508,1.6146,1.557,1.5249,1.581,1.5389,1.5033,1.5442,1.4889,1.4401,1.4379,1.4214,1.3911,1.3536,1.2919,1.2459,1.2303,1.1334,1.0834,1.1323,1.1059,1.0761,1.0581,1.0523,1.022,0.9537,0.9474,0.9054,0.8058,0.8305,0.8388,0.8058,0.8932,0.9652,1.0317,0.9232,0.9018,0.9581,0.7704,0.6652,0.6321,0.4135,0.0949,-0.2911,-0.4417,-0.8878,-1.5184,-1.6333,-1.9747,-2.4331,-2.4927,-2.6444,-2.8511,-3.0095,-2.9936,-2.9133,2.4441,2.4916,2.521,2.4751,2.516,2.5597,2.5468,2.5993,2.6442,2.6637,2.6932,2.7172,2.7514,2.7411,2.7478,2.7891,2.7603,2.7522,2.7638,2.795,2.7696,2.6771,2.6776,2.6078,2.4653,2.4759,2.4538,2.4148,2.3759,2.3846,2.4272,2.3057,2.2425,2.233,2.1736,2.1585,2.187,2.2049,2.2031,2.1892,2.1974,2.173,2.1201,2.1133,2.1073,2.0984,2.1128,2.0984,2.0741,2.0722,2.0245,1.9627,1.9222,1.8754,1.8442,1.8442,1.8362,1.8052,1.768,1.6991,1.635,1.6237,1.5631,1.5173,1.5723,1.5494,1.5183,1.526,1.4735,1.4311,1.4069,1.3719,1.3355,1.2905,1.2296,1.1847,1.1848,1.0869,1.0338,1.0842,1.0665,1.0208,0.9548,0.9669,0.9178,0.7893,0.8076,0.7647,0.6276,0.6445,0.6618,0.6708,0.7487,0.8164,0.8586,0.7208,0.6685,0.7031,0.4854,0.3568,0.2999,-0.0527,-0.4671,-0.918,-1.1997,-1.6473,-2.1922,-2.2992,-2.5814,-2.9471,-2.9682,-3.1539,-3.3899,-3.2403,-3.1668,-3.1155,2.4281,2.4981,2.5348,2.4445,2.5165,2.5879,2.5526,2.5941,2.6399,2.6737,2.6783,2.6799,2.7003,2.7174,2.7151,2.6974,2.7115,2.7115,2.6974,2.6974,2.7059,2.7082,2.6236,2.5417,2.4714,2.4718,2.4559,2.4157,2.4155,2.3963,2.358,2.2801,2.2254,2.1816,2.14,2.1113,2.1015,2.1015,2.0995,2.1047,2.144,2.1401,2.1262,2.1571,2.1479,2.1205,2.1205,2.0819,2.0342,2.002,1.9548,1.9002,1.8594,1.8442,1.8362,1.7861,1.7627,1.7465,1.7666,1.7155,1.6579,1.6285,1.5921,1.5561,1.533,1.5174,1.5054,1.4817,1.466,1.4363,1.3794,1.3858,1.345,1.1791,1.1534,1.1123,0.9953,0.9696,0.9461,0.9159,0.94,0.9349,0.8768,0.8664,0.842,0.7815,0.7027,0.6236,0.5523,0.5523,0.5435,0.5164,0.6538,0.7062,0.6698,0.5136,0.3918,0.3079,0.1665,0.0666,-0.0248,-0.7068,-1.0401,-1.0996,-1.81,-2.3933,-2.8494,-2.8591,-3.1947,-3.6837,-3.5281,-3.4641,-3.4518,-3.3328,-3.1736,-3.0227,2.4235,2.473,2.4955,2.433,2.4815,2.5308,2.5424,2.5784,2.6221,2.6622,2.6795,2.684,2.6932,2.6849,2.688,2.6891,2.655,2.6467,2.6727,2.6095,2.6054,2.677,2.5949,2.5371,2.4982,2.474,2.4509,2.421,2.4033,2.3835,2.3667,2.3152,2.2591,2.1988,2.1665,2.1371,2.1066,2.123,2.124,2.1079,2.114,2.0975,2.082,2.1124,2.0859,2.0411,2.0401,2.0089,1.9618,1.9063,1.8665,1.8353,1.8201,1.8031,1.7861,1.7456,1.7139,1.6894,1.6558,1.632,1.6124,1.5671,1.5425,1.5131,1.4957,1.4906,1.4741,1.4412,1.4072,1.3631,1.2977,1.2782,1.2357,1.1294,1.086,1.0491,0.9893,0.9185,0.8683,0.8683,0.8398,0.8001,0.7313,0.7362,0.7041,0.6157,0.5716,0.5095,0.4109,0.3751,0.3659,0.3655,0.3622,0.3932,0.4488,0.3386,0.2317,0.1249,-0.3921,-0.666,-0.7503,-1.4558,-1.9473,-2.2494,-2.5206,-2.9219,-3.3758,-3.3469,-3.4434,-3.6024,-3.494,-3.4177,-3.349,-3.2295,-3.1036,-2.9841,2.4418,2.4574,2.4646,2.4418,2.4757,2.521,2.5447,2.5957,2.6336,2.6554,2.6644,2.6715,2.6715,2.6467,2.6467,2.6633,2.6229,2.6063,2.6467,2.5639,2.5448,2.614,2.5727,2.5382,2.5146,2.4794,2.4566,2.4252,2.3906,2.372,2.3744,2.3044,2.2485,2.2064,2.1721,2.1446,2.1294,2.1399,2.1341,2.132,2.1286,2.1082,2.0801,2.1233,2.0934,2.024,2.0089,1.9724,1.9155,1.8469,1.8031,1.7814,1.7933,1.7803,1.7532,1.7253,1.6894,1.6409,1.6064,1.5896,1.5713,1.539,1.5161,1.4989,1.4768,1.4566,1.4398,1.3822,1.3398,1.282,1.2134,1.1758,1.1337,1.0578,1.0069,0.9605,0.9226,0.8368,0.7753,0.7661,0.7041,0.6511,0.5894,0.5983,0.5536,0.4472,0.4474,0.3848,0.2594,0.2057,0.1697,0.1606,0.0713,-0.0343,-0.1497,-0.0171,-0.0848,-0.3583,-0.8997,-1.2749,-1.5115,-2.1694,-2.6386,-2.946,-3.1348,-3.3713,-3.6279,-3.6152,-3.5697,-3.4969,-3.4125,-3.3508,-3.2965,-3.1593,-3.0828,-3.0402,2.4801,2.4646,2.4574,2.4801,2.5275,2.5704,2.5716,2.6417,2.6809,2.6644,2.6373,2.6185,2.6185,2.6052,2.5968,2.6196,2.6052,2.5968,2.6185,2.5611,2.5155,2.5082,2.5633,2.5549,2.4946,2.4861,2.4786,2.454,2.3851,2.358,2.3734,2.2537,2.1942,2.2035,2.1303,2.1159,2.1515,2.1264,2.1311,2.151,2.2026,2.1784,2.1247,2.2187,2.1909,2.108,2.04,1.9834,1.9124,1.8331,1.7716,1.7458,1.7821,1.7608,1.7291,1.7343,1.6746,1.6177,1.6574,1.6237,1.5658,1.5484,1.5409,1.5257,1.4824,1.4398,1.3886,1.313,1.2705,1.2186,1.1413,1.1154,1.0636,0.9777,0.9157,0.854,0.7661,0.7044,0.6514,0.5808,0.5267,0.491,0.4648,0.4385,0.3939,0.322,0.3223,0.2599,0.1166,0.0359,-0.0358,-0.1074,-0.2055,-0.552,-1.1869,-0.5968,-0.6067,-1.2182,-1.323,-1.674,-2.2543,-2.8264,-3.0314,-2.9728,-3.6044,-3.7576,-3.5661,-3.6247,-3.5909,-3.4871,-3.3609,-3.3225,-3.3208,-3.1536,-3.1399,-3.2001,2.5016,2.5013,2.5062,2.5569,2.5501,2.547,2.5949,2.5822,2.5738,2.6102,2.5895,2.5801,2.5968,2.5979,2.5895,2.5968,2.5633,2.5295,2.5031,2.5115,2.5052,2.4672,2.5052,2.5041,2.4615,2.4454,2.4368,2.4292,2.3927,2.3754,2.3744,2.3054,2.259,2.233,2.1561,2.1362,2.1534,2.1409,2.1259,2.1002,2.1384,2.1282,2.0948,2.1537,2.1566,2.1089,2.0356,1.9722,1.8911,1.7896,1.7193,1.6746,1.694,1.7231,1.7407,1.6883,1.6515,1.6092,1.5589,1.5412,1.5347,1.5369,1.5325,1.5006,1.4153,1.3639,1.3124,1.2443,1.1843,1.1241,1.0722,1.0294,0.9777,0.917,0.8193,0.7305,0.7044,0.598,0.5181,0.5006,0.4289,0.3666,0.3401,0.2685,0.2149,0.1972,0.1344,0.0628,-0.009,-0.1344,-0.2238,-0.2593,-0.402,-0.7561,-1.3313,-1.1022,-1.2978,-1.9238,-2.3704,-2.6728,-2.8587,-3.4302,-3.6621,-3.6179,-3.7273,-3.7277,-3.6407,-3.5439,-3.4948,-3.4728,-3.3454,-3.342,-3.3985,-3.2925,-3.2834,-3.3276,2.5351,2.5345,2.5392,2.5849,2.5743,2.565,2.5779,2.5551,2.5463,2.5779,2.5559,2.5559,2.5728,2.5812,2.5812,2.5895,2.5549,2.5126,2.454,2.4786,2.4786,2.4368,2.4615,2.4615,2.4378,2.4292,2.4206,2.4206,2.3754,2.3667,2.3927,2.3152,2.2678,2.251,2.1741,2.1532,2.1616,2.1694,2.1537,2.1175,2.1597,2.1512,2.1193,2.1627,2.1513,2.1133,2.0273,1.9556,1.8846,1.7859,1.7328,1.7148,1.7099,1.739,1.7652,1.6992,1.6601,1.6169,1.5566,1.5207,1.5095,1.5283,1.5,1.4517,1.3782,1.312,1.2516,1.1734,1.1123,1.0509,0.9804,0.9033,0.8368,0.7841,0.6688,0.5711,0.5534,0.4648,0.3848,0.376,0.2953,0.2238,0.1972,0.1263,0.0725,0.0363,-0.054,-0.1344,-0.1701,-0.2686,-0.4574,-0.7317,-0.8864,-1.3244,-2.0676,-2.0744,-2.2361,-2.5677,-2.9265,-3.2109,-3.4367,-3.801,-3.9296,-3.8645,-3.8113,-3.7282,-3.6274,-3.53,-3.4634,-3.4175,-3.3681,-3.3762,-3.4125,-3.3675,-3.4069,-3.4741,2.5799,2.571,2.5627,2.5958,2.6073,2.596,2.5521,2.5716,2.5866,2.557,2.5327,2.5327,2.5559,2.5559,2.5644,2.5812,2.5633,2.52,2.454,2.454,2.4454,2.4206,2.4454,2.4454,2.4206,2.4206,2.4206,2.4206,2.3493,2.3493,2.411,2.284,2.2322,2.2464,2.1738,2.1608,2.1864,2.2065,2.1955,2.1691,2.2217,2.2131,2.1738,2.2036,2.182,2.1311,2.0244,1.9575,1.896,1.8065,1.8009,1.824,1.7882,1.7848,1.7897,1.7482,1.6941,1.6411,1.6315,1.5571,1.4899,1.5191,1.465,1.3946,1.3517,1.278,1.1993,1.11,1.0551,0.9908,0.891,0.7592,0.6511,0.6157,0.5001,0.3935,0.3587,0.3138,0.2601,0.2159,0.1437,0.0807,0.0359,-0.0091,-0.0645,-0.1476,-0.2446,-0.3138,-0.3504,-0.4406,-0.7766,-1.3986,-1.586,-2.1431,-3.128,-3.2352,-3.248,-3.1775,-3.1651,-3.4281,-3.9256,-3.9686,-3.9255,-3.8168,-3.8636,-3.7633,-3.5687,-3.5814,-3.5002,-3.3648,-3.4254,-3.4344,-3.4129,-3.4278,-3.5208,-3.6405,2.648,2.6105,2.6039,2.6783,2.6313,2.5934,2.5975,2.5955,2.5712,2.5338,2.5262,2.5249,2.5243,2.5126,2.5115,2.5369,2.5115,2.4786,2.4282,2.4615,2.4615,2.4206,2.4615,2.4615,2.4206,2.4206,2.4206,2.4206,2.3841,2.3667,2.3677,2.2969,2.2572,2.2387,2.1493,2.1423,2.2045,2.1864,2.1511,2.1221,2.2124,2.2133,2.1701,2.1971,2.2078,2.1872,2.1078,2.0234,1.9402,1.824,1.7929,1.7987,1.7443,1.7663,1.8018,1.7214,1.6831,1.665,1.6294,1.5791,1.5308,1.5376,1.4488,1.3619,1.3501,1.2785,1.1871,1.1049,1.0104,0.9178,0.817,0.6684,0.5706,0.5805,0.402,0.2699,0.32,0.2353,0.1534,0.1101,0.0362,-0.0179,-0.0448,-0.1349,-0.2629,-0.4324,-0.3799,-0.426,-0.6067,-1.0362,-1.3794,-1.6133,-2.1234,-2.7025,-3.3463,-3.3416,-3.5091,-3.8495,-3.7543,-3.7984,-3.9688,-3.9703,-3.8997,-3.7811,-3.9135,-3.8709,-3.7067,-3.7308,-3.6894,-3.5989,-3.5514,-3.5594,-3.6068,-3.6428,-3.7178,-3.8017,2.6572,2.6299,2.629,2.6662,2.6349,2.5931,2.5924,2.5947,2.5817,2.5572,2.5569,2.5546,2.5648,2.5508,2.5466,2.5701,2.5253,2.4869,2.485,2.485,2.4671,2.4389,2.465,2.4671,2.4206,2.4206,2.4206,2.4206,2.359,2.3319,2.3319,2.2715,2.2353,2.2087,2.1722,2.1642,2.1919,2.1998,2.1722,2.1365,2.1998,2.2176,2.1998,2.1722,2.1624,2.1615,2.0817,2.0163,1.9527,1.8604,1.8316,1.8352,1.7892,1.8135,1.8367,1.7452,1.7353,1.7437,1.6722,1.6042,1.5524,1.5431,1.4343,1.3261,1.303,1.2226,1.1186,1.0163,0.915,0.8174,0.6985,0.5743,0.4802,0.4449,0.3181,0.2192,0.2029,0.1271,0.045,-0.0182,-0.0722,-0.135,-0.2089,-0.3361,-0.4756,-0.6146,-0.6096,-0.7701,-1.1836,-1.4614,-1.8787,-2.4713,-2.8289,-3.2525,-3.7583,-3.768,-3.8937,-4.1359,-4.0171,-3.9761,-4.0047,-4.045,-3.9806,-3.8465,-3.9678,-3.9221,-3.7644,-3.7475,-3.7053,-3.6519,-3.6565,-3.6851,-3.7371,-3.8289,-3.8806,-3.9135,2.6485,2.6485,2.6381,2.6246,2.6157,2.599,2.5738,2.5787,2.5913,2.6,2.5987,2.603,2.6292,2.613,2.614,2.6281,2.5592,2.527,2.557,2.5238,2.4856,2.4588,2.4753,2.4655,2.4217,2.4206,2.411,2.411,2.3329,2.2969,2.3057,2.2441,2.2008,2.1741,2.1919,2.1919,2.182,2.2176,2.1998,2.1651,2.2008,2.2185,2.2167,2.1356,2.1177,2.1177,2.0292,1.9853,1.9496,1.9112,1.892,1.8827,1.8751,1.8835,1.8827,1.8094,1.8079,1.8164,1.7254,1.6402,1.5756,1.5544,1.4308,1.2974,1.2376,1.1518,1.0399,0.9066,0.807,0.7021,0.5555,0.4514,0.3579,0.2758,0.2116,0.129,0.0462,-0.0182,-0.0811,-0.1713,-0.2252,-0.299,-0.4053,-0.5637,-0.7249,-0.8899,-0.968,-1.2759,-1.8977,-1.9853,-2.4501,-3.3976,-3.5401,-3.7906,-4.1878,-4.2261,-4.2493,-4.2519,-4.1397,-4.0727,-4.0546,-4.1212,-4.0663,-3.9273,-4.0114,-3.9496,-3.7831,-3.7451,-3.7085,-3.6907,-3.7728,-3.8152,-3.8502,-3.979,-4.0329,-4.0312,2.693,2.6707,2.6472,2.6218,2.5895,2.5728,2.5812,2.5873,2.6,2.6195,2.6275,2.6351,2.663,2.6587,2.6477,2.6351,2.6199,2.592,2.5532,2.5702,2.5406,2.4788,2.5016,2.4841,2.4206,2.3927,2.3841,2.3841,2.358,2.3232,2.2803,2.253,2.2264,2.2008,2.183,2.183,2.2008,2.183,2.1651,2.1482,2.1919,2.2008,2.1731,2.1445,2.1087,2.0637,2.0374,1.9936,1.9587,1.9496,1.9296,1.9188,1.9371,1.9479,1.9396,1.8827,1.8365,1.7986,1.7426,1.672,1.6053,1.579,1.4415,1.2769,1.162,1.0772,0.9814,0.8672,0.7139,0.5571,0.4063,0.2573,0.1527,0.135,-0.009,-0.1266,-0.1471,-0.2116,-0.2848,-0.3587,-0.4769,-0.5684,-0.5987,-0.7735,-1.0862,-1.5822,-1.6421,-1.935,-2.5709,-3.015,-3.3639,-3.6144,-4.0311,-4.3051,-4.4088,-4.3432,-4.3342,-4.3904,-4.284,-4.2003,-4.1412,-4.1253,-4.0382,-3.9016,-4.0227,-3.9788,-3.8252,-3.8712,-3.9089,-3.942,-3.9406,-3.9585,-3.9933,-4.073,-4.1838,-4.2785,2.6809,2.6561,2.6229,2.5895,2.5812,2.5825,2.6097,2.6131,2.6183,2.6648,2.6754,2.6883,2.6915,2.6893,2.699,2.7259,2.6483,2.618,2.6511,2.5982,2.5513,2.5167,2.5391,2.5219,2.4506,2.4595,2.4286,2.3772,2.3359,2.3067,2.2969,2.2706,2.2451,2.2097,2.2087,2.2097,2.2097,2.2008,2.1919,2.2008,2.2362,2.2362,2.1998,2.1526,2.0988,2.0546,2.0119,1.9936,1.9936,1.9679,1.9662,1.9828,1.9646,1.9554,1.9422,1.8854,1.8533,1.8222,1.7387,1.675,1.6088,1.5137,1.3616,1.1941,1.0426,0.8824,0.7485,0.6687,0.5419,0.4014,0.2803,0.1751,0.1093,0.073,-0.0546,-0.1649,-0.1963,-0.3122,-0.4342,-0.5607,-0.6391,-0.6982,-0.7528,-1.1379,-1.5137,-1.8082,-2.1312,-2.5919,-3.2203,-3.4472,-3.7175,-4.0668,-4.2762,-4.3848,-4.3993,-4.3889,-4.4016,-4.4287,-4.3989,-4.3345,-4.2435,-4.1724,-4.0849,-3.9841,-4.0336,-3.9917,-3.8949,-3.9574,-3.9908,-4.0097,-4.0845,-4.1576,-4.2244,-4.2518,-4.28,-4.3041]},{"header":{"parameterUnit":"m.s-1","parameterCategory":1,"la1":30.6,"la2":28.766,"lo1":-90.7593,"lo2":-88.6598,"dy":0.0162,"dx":0.0183,"nx":116,"ny":114,"refTime":"2024-02-28T18:00:00:Z","depth":0,"parameterNumber":3,"parameterNumberName":"V-component_of_WINDS"},"data":[0.0,0.0,0.0,0.0,0.0,0.0,0.0,0.0,0.0,0.0,0.0,0.0,0.0,0.0,0.0,0.0,0.0,0.0,0.0,0.0,0.0,0.0,0.0,0.0,0.0,0.0,0.0,0.0,0.0,0.0,0.0,0.0,0.0,0.0,0.0,0.0,0.0,0.0,0.0,0.0,0.0,0.0,0.0,0.0,0.0,0.0,0.0,0.0,0.0,0.0,0.0,0.0,0.0,0.0,0.0,0.0,0.0,0.0,0.0,0.0,0.0,0.0,0.0,0.0,0.0,0.0,0.0,0.0,0.0,0.0,0.0,0.0,0.0,0.0,0.0,0.0,0.0,0.0,0.0,0.0,0.0,0.0,0.0,0.0,0.0,0.0,0.0,0.0,0.0,0.0,0.0,0.0,0.0,0.0,0.0,0.0,0.0,0.0,0.0,0.0,0.0,0.0,0.0,0.0,0.0,0.0,0.0,0.0,0.0,0.0,0.0,0.0,0.0,0.0,0.0,0.0,0.0,0.0,0.0,0.0,0.0,0.0,0.0,0.0,0.0,0.0,0.0,0.0,0.0,0.0,0.0,0.0,0.0,0.0,0.0,0.0,0.0,0.0,0.0,0.0,0.0,0.0,0.0,0.0,0.0,0.0,0.0,0.0,0.0,0.0,0.0,0.0,0.0,0.0,0.0,0.0,0.0,0.0,0.0,0.0,0.0,0.0,0.0,0.0,0.0,0.0,0.0,0.0,0.0,0.0,0.0,0.0,0.0,0.0,0.0,0.0,0.0,0.0,0.0,0.0,0.0,0.0,0.0,0.0,0.0,0.0,0.0,0.0,0.0,0.0,0.0,0.0,0.0,0.0,0.0,0.0,0.0,0.0,0.0,0.0,0.0,0.0,0.0,0.0,0.0,0.0,0.0,0.0,0.0,0.0,0.0,0.0,0.0,0.0,0.0,0.0,0.0,0.0,0.0,0.0,0.0,0.0,0.0,0.0,0.0,0.0,0.0,0.0,0.0,0.0,0.0,0.0,0.0,0.0,0.0,0.0,0.0,0.0,0.0,0.0,0.0,0.0,0.0,0.0,0.0,0.0,0.0,0.0,0.0,0.0,0.0,0.0,0.0,0.0,0.0,0.0,0.0,0.0,0.0,0.0,0.0,0.0,0.0,0.0,0.0,0.0,0.0,0.0,0.0,0.0,0.0,0.0,0.0,0.0,0.0,0.0,0.0,0.0,0.0,0.0,0.0,0.0,0.0,0.0,0.0,0.0,0.0,0.0,0.0,0.0,0.0,0.0,0.0,0.0,0.0,0.0,0.0,0.0,0.0,0.0,0.0,0.0,0.0,0.0,0.0,0.0,0.0,0.0,0.0,0.0,0.0,0.0,0.0,0.0,0.0,0.0,0.0,0.0,0.0,0.0,0.0,0.0,0.0,0.0,0.0,0.0,0.0,0.0,0.0,0.0,0.0,0.0,0.0,0.0,0.0,0.0,0.0,0.0,0.0,0.0,0.0,0.0,0.0,0.0,0.0,0.0,0.0,0.0,0.0,0.0,0.0,0.0,0.0,0.0,0.0,0.0,0.0,0.0,0.0,0.0,0.0,0.0,0.0,0.0,0.0,0.0,0.0,0.0,0.0,0.0,0.0,0.0,0.0,0.0,0.0,0.0,0.0,0.0,0.0,0.0,0.0,0.0,0.0,0.0,0.0,0.0,0.0,0.0,0.0,0.0,0.0,0.0,0.0,0.0,0.0,0.0,0.0,0.0,0.0,0.0,0.0,0.0,0.0,0.0,0.0,0.0,0.0,0.0,0.0,0.0,0.0,0.0,0.0,0.0,0.0,0.0,0.0,0.0,0.0,0.0,0.0,0.0,0.0,0.0,0.0,0.0,0.0,0.0,0.0,0.0,0.0,0.0,0.0,0.0,0.0,0.0,0.0,0.0,0.0,0.0,0.0,0.0,0.0,0.0,0.0,0.0,0.0,0.0,0.0,0.0,0.0,0.0,0.0,0.0,0.0,0.0,0.0,0.0,0.0,0.0,0.0,0.0,0.0,0.0,0.0,0.0,0.0,0.0,0.0,0.0,0.0,0.0,0.0,0.0,0.0,0.0,0.0,0.0,0.0,0.0,0.0,0.0,0.0,0.0,0.0,0.0,0.0,0.0,0.0,0.0,0.0,0.0,0.0,0.0,0.0,0.0,0.0,0.0,0.0,0.0,0.0,0.0,0.0,0.0,0.0,0.0,0.0,0.0,0.0,0.0,0.0,0.0,0.0,0.0,0.0,0.0,0.0,0.0,0.0,0.0,0.0,0.0,0.0,0.0,0.0,0.0,0.0,0.0,0.0,0.0,0.0,0.0,0.0,0.0,0.0,0.0,0.0,0.0,0.0,0.0,0.0,0.0,0.0,0.0,0.0,0.0,0.0,0.0,0.0,0.0,0.0,0.0,0.0,0.0,0.0,0.0,0.0,0.0,0.0,0.0,0.0,0.0,0.0,0.0,0.0,0.0,0.0,0.0,0.0,0.0,0.0,0.0,0.0,0.0,0.0,0.0,0.0,0.0,0.0,0.0,0.0,0.0,0.0,0.0,0.0,0.0,0.0,0.0,0.0,0.0,0.0,0.0,0.0,0.0,0.0,0.0,0.0,0.0,0.0,0.0,0.0,0.0,0.0,0.0,0.0,0.0,0.0,0.0,0.0,0.0,0.0,0.0,0.0,0.0,0.0,0.0,0.0,0.0,0.0,0.0,0.0,0.0,0.0,0.0,0.0,0.0,0.0,0.0,0.0,0.0,0.0,0.0,0.0,0.0,0.0,0.0,0.0,0.0,0.0,0.0,0.0,0.0,0.0,0.0,0.0,0.0,0.0,0.0,0.0,0.0,0.0,0.0,0.0,0.0,0.0,0.0,0.0,0.0,0.0,0.0,0.0,0.0,0.0,0.0,0.0,0.0,0.0,0.0,0.0,0.0,0.0,0.0,0.0,0.0,0.0,0.0,0.0,0.0,0.0,0.0,0.0,0.0,0.0,0.0,0.0,0.0,0.0,0.0,0.0,0.0,0.0,0.0,0.0,0.0,0.0,0.0,0.0,0.0,0.0,0.0,0.0,0.0,0.0,0.0,0.0,0.0,0.0,0.0,0.0,0.0,0.0,0.0,0.0,0.0,0.0,0.0,0.0,0.0,0.0,0.0,0.0,0.0,0.0,0.0,0.0,0.0,0.0,0.0,0.0,0.0,0.0,0.0,0.0,0.0,0.0,0.0,0.0,0.0,0.0,0.0,0.0,0.0,0.0,0.0,0.0,0.0,0.0,0.0,0.0,0.0,0.0,0.0,0.0,0.0,0.0,0.0,0.0,0.0,0.0,0.0,0.0,0.0,0.0,0.0,0.0,0.0,0.0,0.0,0.0,0.0,0.0,0.0,0.0,0.0,0.0,0.0,0.0,0.0,0.0,0.0,0.0,0.0,0.0,0.0,0.0,0.0,0.0,0.0,0.0,0.0,0.0,0.0,0.0,0.0,0.0,0.0,0.0,0.0,0.0,0.0,0.0,0.0,0.0,0.0,0.0,0.0,0.0,0.0,0.0,0.0,0.0,0.0,0.0,0.0,0.0,0.0,0.0,0.0,0.0,0.0,0.0,0.0,0.0,0.0,0.0,0.0,0.0,0.0,0.0,0.0,0.0,0.0,0.0,0.0,0.0,0.0,0.0,0.0,0.0,0.0,0.0,0.0,0.0,0.0,0.0,0.0,0.0,0.0,0.0,0.0,0.0,0.0,0.0,0.0,0.0,0.0,0.0,0.0,0.0,0.0,0.0,0.0,0.0,0.0,0.0,0.0,0.0,0.0,0.0,0.0,0.0,0.0,0.0,0.0,0.0,0.0,0.0,0.0,0.0,0.0,0.0,0.0,0.0,0.0,0.0,0.0,0.0,0.0,0.0,0.0,0.0,0.0,0.0,0.0,0.0,0.0,0.0,0.0,0.0,0.0,0.0,0.0,0.0,0.0,0.0,0.0,0.0,0.0,0.0,0.0,0.0,0.0,0.0,0.0,0.0,0.0,0.0,0.0,0.0,0.0,0.0,0.0,0.0,0.0,0.0,0.0,0.0,0.0,0.0,0.0,0.0,0.0,0.0,0.0,0.0,0.0,0.0,0.0,0.0,0.0,0.0,0.0,0.0,0.0,0.0,0.0,0.0,0.0,0.0,0.0,0.0,0.0,0.0,0.0,0.0,0.0,0.0,0.0,0.0,0.0,0.0,0.0,0.0,0.0,0.0,0.0,0.0,0.0,0.0,0.0,0.0,0.0,0.0,0.0,0.0,0.0,0.0,0.0,0.0,0.0,0.0,0.0,0.0,0.0,0.0,0.0,0.0,0.0,0.0,0.0,0.0,0.0,0.0,0.0,0.0,0.0,0.0,0.0,0.0,0.0,0.0,0.0,0.0,0.0,0.0,0.0,0.0,0.0,0.0,0.0,0.0,0.0,0.0,0.0,0.0,0.0,0.0,0.0,0.0,0.0,0.0,0.0,0.0,0.0,0.0,0.0,0.0,0.0,0.0,0.0,0.0,0.0,0.0,0.0,0.0,0.0,0.0,0.0,0.0,0.0,0.0,0.0,0.0,0.0,0.0,0.0,0.0,0.0,0.0,0.0,0.0,0.0,0.0,0.0,0.0,0.0,0.0,0.0,0.0,0.0,0.0,0.0,0.0,0.0,0.0,0.0,0.0,0.0,0.0,0.0,0.0,0.0,0.0,0.0,0.0,0.0,0.0,0.0,0.0,0.0,0.0,0.0,0.0,0.0,0.0,0.0,0.0,0.0,0.0,0.0,0.0,0.0,0.0,0.0,0.0,0.0,0.0,0.0,0.0,0.0,0.0,0.0,0.0,0.0,0.0,0.0,0.0,0.0,0.0,0.0,0.0,0.0,0.0,0.0,0.0,0.0,0.0,0.0,0.0,0.0,0.0,0.0,0.0,0.0,0.0,0.0,0.0,0.0,0.0,0.0,0.0,0.0,0.0,0.0,0.0,0.0,0.0,0.0,0.0,0.0,0.0,0.0,0.0,0.0,0.0,0.0,0.0,0.0,0.0,0.0,0.0,0.0,0.0,0.0,0.0,0.0,0.0,0.0,0.0,0.0,0.0,0.0,0.0,0.0,0.0,0.0,0.0,0.0,0.0,0.0,0.0,0.0,0.0,0.0,0.0,0.0,0.0,0.0,0.0,0.0,0.0,0.0,0.0,0.0,0.0,0.0,0.0,0.0,0.0,0.0,0.0,0.0,0.0,0.0,0.0,0.0,0.0,0.0,0.0,0.0,0.0,0.0,0.0,0.0,0.0,0.0,0.0,0.0,0.0,0.0,0.0,0.0,0.0,0.0,0.0,0.0,0.0,0.0,0.0,0.0,0.0,0.0,0.0,0.0,0.0,0.0,0.0,0.0,0.0,0.0,0.0,0.0,0.0,0.0,0.0,0.0,0.0,0.0,0.0,0.0,0.0,0.0,0.0,0.0,0.0,0.0,0.0,0.0,0.0,0.0,0.0,0.0,0.0,0.0,0.0,0.0,0.0,0.0,0.0,0.0,0.0,0.0,0.0,0.0,0.0,0.0,0.0,0.0,0.0,0.0,0.0,0.0,0.0,0.0,0.0,0.0,0.0,0.0,0.0,0.0,0.0,0.0,0.0,0.0,0.0,0.0,0.0,0.0,0.0,0.0,0.0,0.0,0.0,0.0,0.0,0.0,0.0,0.0,0.0,0.0,0.0,0.0,0.0,0.0,0.0,0.0,0.0,0.0,0.0,0.0,0.0,0.0,0.0,0.0,0.0,0.0,0.0,0.0,0.0,0.0,0.0,0.0,0.0,0.0,0.0,0.0,0.0,0.0,0.0,0.0,0.0,0.0,0.0,0.0,0.0,0.0,0.0,0.0,0.0,0.0,0.0,0.0,0.0,0.0,0.0,0.0,0.0,0.0,0.0,0.0,0.0,0.0,0.0,0.0,0.0,0.0,0.0,0.0,0.0,0.0,0.0,0.0,0.0,0.0,0.0,0.0,0.0,0.0,0.0,0.0,0.0,0.0,0.0,0.0,0.0,0.0,0.0,0.0,0.0,0.0,1.1091,0.0,0.0,0.0,0.0,0.0,0.0,0.0,0.0,0.0,0.0,0.0,0.0,0.0,0.0,0.0,0.0,0.0,0.0,0.0,0.0,0.0,0.0,0.0,0.0,0.0,0.0,0.0,0.0,0.0,0.0,0.0,0.0,0.0,0.0,0.0,1.2603,1.2803,1.3153,1.3655,1.4296,1.5134,1.614,1.5972,1.5133,1.3782,0.0,0.0,0.0,0.0,0.0,0.0,0.0,0.0,0.0,0.0,0.0,0.0,0.0,0.0,0.0,0.0,0.0,0.0,0.0,0.0,0.0,0.0,0.0,0.0,0.0,0.0,0.0,0.0,0.0,0.0,0.0,0.0,0.0,0.0,0.0,0.0,0.0,0.0,0.0,0.0,0.0,0.0,0.0,0.0,0.0,0.0,0.0,0.0,0.0,0.0,0.0,0.0,0.0,0.0,0.0,0.0,0.0,0.0,0.0,0.0,0.0,0.0,0.0,0.0,0.0,0.0,0.0,0.0,0.0,0.0,0.0,1.1835,0.0,0.0,0.0,0.0,0.0,0.0,0.0,0.0,0.0,0.0,0.0,0.0,0.0,0.0,0.0,0.0,0.0,0.0,0.0,0.0,0.0,0.0,0.0,1.3226,1.3462,1.35,1.3749,1.3929,0.0,0.0,0.0,0.0,0.0,1.3177,1.2723,1.296,1.3668,1.4792,1.581,1.7232,1.8993,1.9095,1.8183,1.6378,1.5634,0.0,0.0,0.0,0.0,0.0,0.0,0.0,0.0,0.0,0.0,0.0,0.0,0.0,0.0,0.0,0.0,0.0,0.0,0.0,0.0,0.0,0.0,0.0,0.0,0.0,0.0,0.0,0.0,0.0,0.0,0.0,0.0,0.0,0.0,0.0,0.0,0.0,0.0,0.0,0.0,0.0,0.0,0.0,0.0,0.0,0.0,0.0,0.0,0.0,0.0,0.0,0.0,0.0,0.0,0.0,0.0,0.0,0.0,0.0,0.0,0.0,0.0,0.0,1.4535,1.4753,1.5223,1.4846,1.4906,1.5349,1.4223,1.3744,1.3656,1.2343,0.0,0.0,0.0,0.0,0.0,0.0,0.0,0.0,0.0,0.0,0.0,0.0,0.0,0.0,0.0,0.0,0.0,0.0,0.0,0.0,0.0,1.3867,1.418,1.4247,1.4134,1.4101,1.4209,1.4181,1.3942,1.3555,1.3668,1.3668,1.3521,1.379,1.4611,1.5991,1.809,1.9609,2.0509,2.1123,2.1347,2.1173,1.9183,1.8296,1.8241,0.0,0.0,0.0,0.0,0.0,0.0,0.0,0.0,0.0,0.0,0.0,0.0,0.0,0.0,0.0,0.0,0.0,0.0,0.0,0.0,0.0,0.0,0.0,0.0,0.0,0.0,0.0,0.0,0.0,0.0,0.0,0.0,0.0,0.0,0.0,0.0,0.0,0.0,0.0,0.0,0.0,1.6101,1.5679,0.0,0.0,0.0,0.0,0.0,0.0,0.0,0.0,0.0,0.0,0.0,0.0,0.0,1.5361,1.6252,1.6925,1.7052,1.6555,1.782,1.7982,1.7054,1.7407,1.7442,1.7321,1.7035,0.0,1.4628,1.32,0.0,0.0,0.0,0.0,0.0,0.0,0.0,0.0,0.0,0.0,0.0,0.0,0.0,0.0,0.0,0.0,0.0,0.0,0.0,0.0,0.0,1.5035,1.5891,1.6239,1.6906,1.7003,1.6167,1.5951,1.5362,1.4273,1.4057,1.3978,1.4055,1.4851,1.6548,1.917,2.1217,2.2609,2.3344,2.4026,2.4551,2.4839,2.4176,2.2587,2.0368,1.9091,0.0,0.0,0.0,0.0,0.0,0.0,0.0,0.0,0.0,0.0,0.0,0.0,0.0,0.0,0.0,0.0,0.0,0.0,0.0,0.0,0.0,0.0,0.0,0.0,0.0,0.0,0.0,0.0,0.0,0.0,0.0,0.0,0.0,0.0,0.0,0.0,0.0,0.0,0.0,1.5588,1.5957,1.5804,1.5736,1.5233,0.0,0.0,0.0,0.0,0.0,0.0,0.0,0.0,0.0,1.7233,1.7245,1.7677,1.8512,1.8585,1.8547,1.8537,1.8972,1.8697,1.7925,1.8446,1.8379,1.7872,1.8311,1.7823,1.6701,1.5114,1.4373,1.408,0.0,0.0,0.0,0.0,1.4343,1.4631,0.0,0.0,0.0,0.0,0.0,0.0,0.0,0.0,0.0,0.0,0.0,0.0,1.4861,1.6341,1.7544,1.8177,1.9158,1.9202,1.7943,1.7399,1.6537,1.5124,1.461,1.4502,1.485,1.6716,1.9157,2.2133,2.4102,2.5396,2.609,2.671,2.7327,2.7775,2.8119,2.636,2.3001,2.1603,2.0576,1.9768,0.0,0.0,0.0,0.0,0.0,0.0,0.0,0.0,0.0,0.0,0.0,0.0,0.0,0.0,0.0,0.0,0.0,0.0,0.0,0.0,0.0,0.0,0.0,0.0,0.0,0.0,0.0,0.0,0.0,0.0,0.0,0.0,0.0,0.0,0.0,0.0,0.0,1.6355,1.6328,1.6052,1.6321,1.5986,0.0,0.0,0.0,0.0,0.0,0.0,1.7991,1.8148,1.8491,1.9134,1.9198,1.9582,2.0329,1.9774,1.9633,1.9854,1.9578,1.909,1.8405,1.8853,1.8708,1.8163,1.8864,1.8933,1.8388,1.7007,1.6265,1.5898,1.5153,1.5098,1.5564,1.6181,1.6361,1.6417,0.0,0.0,0.0,0.0,0.0,0.0,0.0,0.0,0.0,0.0,0.0,1.5581,1.656,1.7654,1.8685,1.9619,1.9424,1.9146,1.8915,1.7884,1.6945,1.6175,1.5374,1.5367,1.6293,1.993,2.2493,2.3866,2.624,2.7665,2.8062,2.8633,2.9188,2.976,2.9591,2.8625,2.7117,2.5867,2.4827,2.3659,2.0748,0.0,0.0,0.0,0.0,0.0,0.0,0.0,0.0,0.0,0.0,0.0,0.0,0.0,0.0,0.0,0.0,0.0,0.0,0.0,0.0,0.0,0.0,0.0,0.0,0.0,0.0,0.0,0.0,0.0,0.0,0.0,0.0,0.0,0.0,0.0,0.0,0.0,0.0,1.6815,1.8046,0.0,0.0,0.0,0.0,1.8135,1.8098,1.8692,1.9975,1.9879,2.0257,2.1407,2.0691,2.0652,2.1376,2.0673,2.0232,2.0002,2.0222,1.9764,1.8751,1.8893,1.8725,1.8502,1.8884,1.9064,1.9113,1.8475,1.7823,1.7275,1.7012,1.6752,1.6568,1.7473,1.7904,1.807,0.0,0.0,0.0,0.0,0.0,0.0,0.0,0.0,1.3423,1.3705,1.5232,1.6645,1.7727,1.9417,2.0843,2.1922,2.214,2.1861,2.0713,1.9247,1.8312,1.8166,1.6888,1.7654,2.0794,2.2439,2.428,2.6304,2.7666,2.8382,2.8537,2.9464,3.0098,3.0468,3.0855,3.0764,3.0024,2.7971,2.6856,2.6208,2.3096,2.1171,0.0,0.0,0.0,0.0,0.0,0.0,0.0,0.0,0.0,0.0,0.0,0.0,0.0,0.0,0.0,0.0,0.0,0.0,0.0,0.0,0.0,0.0,0.0,0.0,0.0,0.0,0.0,0.0,0.0,0.0,0.0,0.0,0.0,0.0,0.0,0.0,0.0,1.8566,1.9775,0.0,1.8931,1.9264,1.9721,2.0125,2.0154,2.052,2.1352,2.141,2.1609,2.2051,2.168,2.1745,2.2269,2.1449,2.1216,2.1463,2.0593,2.0104,1.9993,1.9226,1.913,1.9725,1.9473,1.9725,2.0375,2.0278,1.9768,1.8964,1.8804,1.8713,1.8843,1.9682,1.963,1.9182,0.0,0.0,0.0,0.0,0.0,0.0,0.0,0.0,1.3925,1.4528,1.6107,1.7739,1.9332,2.0994,2.2396,2.3506,2.3745,2.3223,2.1922,2.0322,1.9308,1.8995,1.8696,2.0132,2.3437,2.4659,2.6123,2.8037,2.8899,2.934,2.9413,3.0241,3.0778,3.1154,3.1569,3.182,3.1746,3.0211,2.9278,2.8606,2.5689,2.3853,2.2639,0.0,0.0,0.0,0.0,0.0,0.0,0.0,0.0,0.0,0.0,0.0,0.0,0.0,0.0,0.0,0.0,0.0,0.0,0.0,0.0,0.0,0.0,0.0,0.0,0.0,0.0,0.0,0.0,0.0,0.0,0.0,0.0,0.0,0.0,0.0,2.0323,1.9978,2.1202,2.1591,2.0542,2.0993,2.1545,2.1958,2.1913,2.2103,2.2806,2.2778,2.2677,2.2626,2.2318,2.2327,2.2628,2.1796,2.1565,2.1846,2.0778,2.0274,2.0182,1.9402,1.9442,1.9991,1.987,2.0246,2.0849,2.1387,2.1156,2.039,2.0161,2.0012,1.9862,2.039,2.0104,1.9493,0.0,0.0,0.0,0.0,0.0,0.0,0.0,1.3422,1.4484,1.6034,1.7171,1.8841,2.1362,2.2274,2.324,2.441,2.3932,2.3166,2.232,2.0982,1.9765,1.8732,2.0769,2.2571,2.4067,2.6405,2.805,2.895,2.9948,3.0533,3.0698,3.0937,3.1299,3.189,3.1696,3.189,3.2417,3.2632,3.2166,3.1024,2.8586,2.6916,2.5709,0.0,0.0,0.0,0.0,0.0,0.0,0.0,0.0,0.0,0.0,0.0,0.0,0.0,0.0,0.0,0.0,0.0,0.0,0.0,0.0,0.0,0.0,0.0,0.0,0.0,0.0,0.0,0.0,0.0,0.0,0.0,0.0,0.0,2.0728,2.0961,2.1139,2.1042,2.2321,2.2796,2.1632,2.2608,2.3325,2.356,2.3313,2.3458,2.4166,2.3824,2.3446,2.3298,2.2703,2.2402,2.2402,2.1807,2.1288,2.0944,2.0839,2.0234,1.9294,1.9501,1.9461,1.9324,2.0179,2.051,2.0534,2.1627,2.1796,2.1387,2.1177,2.0432,1.9563,1.9635,1.9372,1.8942,0.0,0.0,0.0,0.0,0.0,0.0,1.2361,1.358,1.4972,1.623,1.8001,1.9904,2.2114,2.3217,2.4271,2.5208,2.456,2.3781,2.3179,2.1305,2.0335,2.0543,2.2905,2.4925,2.6599,2.778,2.8937,2.9986,3.038,3.0622,3.0711,3.1481,3.1681,3.1522,3.2083,3.2401,3.2417,3.2632,3.2736,3.2554,3.0521,2.8478,2.665,0.0,0.0,0.0,0.0,0.0,0.0,0.0,0.0,0.0,0.0,0.0,0.0,0.0,0.0,0.0,0.0,0.0,0.0,0.0,0.0,0.0,0.0,0.0,0.0,0.0,0.0,0.0,0.0,0.0,0.0,0.0,2.1543,2.2027,2.147,2.2594,2.3466,2.3544,2.4398,2.4771,2.4276,2.4503,2.473,2.4673,2.4198,2.3906,2.3959,2.3298,2.2852,2.2628,2.2176,2.1949,2.1949,2.1807,2.1745,2.1761,2.1141,2.1028,2.1302,2.0109,2.0086,2.0856,2.0293,2.0561,2.1393,2.15,2.1471,2.1314,2.1344,2.0824,2.0184,2.0165,2.0195,2.0129,0.0,0.0,0.0,0.0,0.0,0.0,1.261,1.3863,1.5377,1.6878,1.8597,2.0581,2.291,2.3646,2.4254,2.503,2.423,2.3292,2.2396,2.1276,2.1188,2.2322,2.4849,2.6744,2.7809,2.8912,2.9802,3.0292,3.0546,3.0773,3.0849,3.1478,3.1677,3.1596,3.2152,3.2394,3.2561,3.2775,3.2919,3.2986,3.1938,3.0468,2.8902,2.8354,2.6745,2.4753,2.5119,2.4785,2.4129,2.3753,0.0,0.0,0.0,0.0,0.0,0.0,0.0,0.0,0.0,0.0,0.0,0.0,0.0,0.0,0.0,0.0,0.0,0.0,0.0,0.0,0.0,0.0,0.0,0.0,2.3096,2.373,2.3653,2.4275,2.4832,2.5257,2.5411,2.5453,2.5312,2.5241,2.5195,2.5277,2.4865,2.4499,2.4351,2.3895,2.3348,2.2703,2.2478,2.2252,2.1949,2.1959,2.1959,2.1949,2.1398,2.1316,2.1593,2.0646,2.0676,2.1347,2.0581,2.0864,2.185,2.1664,2.1663,0.0,0.0,0.0,0.0,0.0,1.9951,2.002,0.0,0.0,0.0,0.0,0.0,0.0,1.3129,1.4161,1.5683,1.757,1.8971,2.0846,2.3555,2.3609,2.3717,2.449,2.3408,2.2297,2.1214,2.144,2.2346,2.4054,2.6604,2.8061,2.8185,2.9843,3.0533,3.0152,3.0546,3.0849,3.0986,3.1264,3.1562,3.1817,3.1957,3.2296,3.2704,3.2917,3.2974,3.2851,3.2958,3.2487,3.1488,3.0266,2.9016,2.7923,2.701,2.625,2.5689,2.5766,0.0,0.0,0.0,0.0,0.0,0.0,0.0,0.0,0.0,0.0,0.0,0.0,0.0,0.0,0.0,0.0,0.0,0.0,0.0,0.0,0.0,0.0,0.0,0.0,2.4689,2.5934,2.6401,2.5899,2.5685,2.6171,2.5734,2.5382,2.5312,2.517,2.5182,2.5483,2.5296,2.5061,2.4912,0.0,0.0,0.0,0.0,2.2777,2.2101,2.2101,2.1949,2.1807,2.1655,2.1384,2.1015,2.1202,2.1247,2.1291,2.0997,2.1366,2.2056,2.2013,2.2082,2.2073,2.1319,2.0382,1.9416,1.9123,1.9153,1.9374,0.0,0.0,0.0,0.0,0.0,0.0,1.3198,1.4161,1.5545,1.7255,1.8869,2.0578,2.2641,2.2936,2.349,2.4614,2.3599,2.3008,2.3379,2.3453,2.4255,2.59,2.7442,2.8417,2.8762,3.0048,3.0609,3.0368,3.0748,3.0986,3.0999,3.1685,3.1796,3.1447,3.2374,3.275,3.2704,3.3086,3.3395,3.3711,3.3819,3.2881,3.1401,3.1763,3.1148,3.0221,3.0851,3.0822,3.0529,3.027,2.9286,2.7998,2.7267,2.5219,0.0,0.0,0.0,0.0,0.0,0.0,0.0,0.0,0.0,0.0,0.0,0.0,0.0,0.0,0.0,0.0,0.0,0.0,0.0,2.5053,2.5994,2.6648,2.7089,2.6886,2.6574,2.6414,2.6176,2.5828,2.5382,2.5158,2.517,2.5483,2.4987,2.4762,2.4912,2.4321,2.3644,2.2788,2.2478,2.2176,2.1883,2.1883,2.1959,2.2025,0.0,0.0,2.1889,2.1522,2.1553,2.1878,2.1639,2.1839,2.2318,2.2237,2.1914,2.1382,2.1485,2.1066,2.0383,1.9859,2.0113,2.0585,0.0,0.0,0.0,0.0,0.0,0.0,1.3232,1.4008,1.5182,1.6735,1.7937,1.9371,2.1272,2.1082,2.126,2.2299,2.1856,2.1915,2.2711,2.4029,2.5423,2.6816,2.8404,2.929,2.9352,3.024,3.0609,3.0368,3.0823,3.1136,3.1299,3.1814,3.1937,3.1817,3.2394,3.2791,3.2846,3.3072,3.3507,3.4005,3.421,3.3767,3.3027,3.3106,3.2825,3.2503,3.2748,3.2494,3.2047,3.1886,3.1264,3.0263,2.8983,2.7674,2.6164,0.0,0.0,0.0,0.0,0.0,0.0,0.0,0.0,0.0,0.0,0.0,0.0,0.0,0.0,2.2958,2.3777,0.0,2.4866,2.6396,2.6874,2.7271,2.7696,2.7826,2.7485,2.6671,2.6094,2.5676,2.5465,2.5111,2.505,2.5335,2.5315,2.5161,2.4844,2.5015,2.4615,2.3513,2.333,2.2982,2.2303,2.2074,2.1959,2.1959,2.1883,2.1949,2.2241,2.2009,2.2179,2.2681,2.1976,2.2103,2.283,2.2603,2.201,2.1274,2.1628,2.1105,2.017,1.993,2.0159,2.0606,0.0,0.0,0.0,0.0,0.0,0.0,0.0,1.3887,1.4802,1.6019,1.6847,1.7949,1.9577,1.8956,1.8758,1.9531,2.0189,2.1027,2.2083,2.4519,2.6477,2.772,2.9202,3.0011,2.9869,3.0394,3.0609,3.0444,3.0823,3.1211,3.1522,3.1743,3.1963,3.2182,3.2359,3.2632,3.2988,3.3143,3.3563,3.4196,3.4414,3.4616,3.4773,3.4229,3.4139,3.4292,3.3707,3.2944,3.2377,3.2527,3.2243,3.1501,3.0142,2.9906,2.94,2.5622,2.4995,0.0,0.0,0.0,0.0,0.0,0.0,0.0,0.0,0.0,2.3152,2.3544,2.4182,2.4787,2.5122,2.5522,2.6193,2.7543,2.7692,2.7776,2.8233,2.8305,2.7965,2.6764,2.6042,2.5574,2.5548,2.5064,2.4844,2.5113,2.5477,2.5447,2.4915,2.5769,2.5599,2.4312,2.4327,2.3842,2.2745,2.2384,2.2043,2.1883,2.1807,2.2025,2.2402,2.2307,2.2616,2.3117,2.2185,2.228,2.3007,2.254,2.1903,2.1303,2.1468,2.0834,1.9848,1.9958,2.0138,2.0345,0.0,0.0,0.0,0.0,0.0,0.0,0.0,0.0,1.4435,1.5004,1.5957,1.681,1.7328,1.7257,1.7429,1.7983,2.0378,2.2536,2.4343,2.6101,2.7821,2.944,2.9691,2.9934,3.0088,3.0305,3.0533,3.0698,3.0911,3.1136,3.1347,3.1522,3.1743,3.1963,3.2431,3.2775,3.3058,3.3591,3.402,3.4414,3.4563,3.4831,3.5148,3.5073,3.5044,3.5011,3.4196,3.3321,3.2602,3.3487,3.2432,3.0839,3.1664,3.1261,3.0123,2.8315,2.7225,2.6129,2.3791,2.32,2.3393,2.4044,2.4376,2.4966,0.0,0.0,2.6155,2.6841,2.7442,2.7917,2.7954,2.7939,2.8045,2.84,2.8349,2.8168,2.8131,2.7855,2.732,2.6496,2.6528,2.6212,2.5431,2.4838,2.4615,2.4877,2.468,2.4765,2.5294,2.5284,2.5015,2.4433,2.447,2.3796,2.2488,2.2464,2.2289,2.2025,2.1883,2.2025,2.2392,2.1966,2.2146,2.2756,2.2185,2.2096,2.2201,2.1493,2.0994,2.0789,2.0627,2.0524,2.0441,2.0665,2.0777,2.072,0.0,0.0,0.0,0.0,0.0,0.0,0.0,0.0,0.0,1.4349,1.4725,1.5144,1.5732,1.5711,1.5768,1.6076,1.8884,2.1331,2.293,2.5715,2.7817,2.8937,2.9529,2.9869,3.0075,3.0292,3.052,3.0698,3.0911,3.1136,3.1522,3.1669,3.189,3.2096,3.2503,3.2846,3.3058,3.3507,3.3922,3.4264,3.4563,3.4765,3.492,3.4783,3.4698,3.452,3.3517,3.2493,0.0,3.1674,3.1153,3.0517,3.1117,3.0764,2.9903,2.864,2.772,2.6976,2.6201,2.5706,0.0,0.0,2.6263,2.6556,2.7325,2.7384,2.7357,2.7711,2.813,2.8371,2.814,2.818,2.8314,0.0,2.8675,2.856,2.8392,2.8345,2.7957,2.6863,2.6719,2.6273,2.5301,2.4766,2.4499,2.4487,2.4614,2.4714,2.4799,2.5508,2.5656,2.5049,2.5158,2.462,2.331,2.2746,2.232,2.1959,2.1807,2.2025,2.2402,2.2349,2.2509,2.2916,2.293,2.2769,2.2401,2.1976,2.1439,2.0928,2.0903,2.0591,2.0177,2.0137,2.0207,2.0323,0.0,0.0,0.0,0.0,0.0,0.0,0.0,0.0,0.0,0.0,1.3727,1.3852,1.4337,1.4312,1.4399,1.4775,1.7422,1.9847,2.1787,2.4847,2.7125,2.8217,2.9038,2.963,2.9758,3.0215,3.0443,3.0452,3.0677,3.0974,3.1356,3.1328,3.164,3.2228,3.2396,3.2693,3.3143,3.3507,3.3854,3.4196,3.4683,3.4611,3.4295,3.4271,3.3572,3.2631,3.23,3.1291,3.0048,2.9456,2.9055,2.8971,2.9327,2.9342,2.8943,2.8009,2.7294,2.6801,2.6962,0.0,0.0,2.7229,2.7401,2.7462,2.7632,2.7668,2.7689,2.7583,2.7949,2.8188,2.783,2.7937,2.8262,2.8688,2.861,2.8481,2.8444,2.8412,2.7968,2.6888,2.6582,2.6043,2.5099,2.4778,2.4502,2.42,2.4436,2.4562,2.4408,2.5462,2.5939,2.5461,2.5594,2.5029,2.3774,2.2951,2.2242,2.1807,2.1883,2.2025,2.2327,2.2553,2.2777,2.2916,2.308,2.2878,2.2434,2.2211,2.1638,2.0859,2.1014,2.0611,1.9869,1.964,1.9608,1.9618,0.0,0.0,0.0,0.0,0.0,0.0,0.0,0.0,0.0,0.0,0.0,0.0,0.0,1.3156,1.3543,1.4531,1.6373,1.877,2.1873,2.3854,2.5782,2.7692,2.85,2.895,2.9026,2.9935,3.025,2.9831,3.0004,3.0296,3.0703,3.0144,3.0747,3.239,3.2026,3.2375,3.3326,3.3744,3.4088,3.4414,3.4949,3.4377,3.3283,3.3667,3.1784,2.9132,3.0546,2.9922,2.8338,2.7433,2.6255,2.5452,2.6381,2.6935,2.7115,2.6758,2.5922,2.506,2.506,0.0,2.6226,2.7175,2.7401,2.741,2.7469,2.7379,2.7157,2.655,2.7212,2.7851,2.7579,2.7809,2.821,2.8522,2.8183,2.7842,2.7973,2.7443,2.685,2.6289,2.5898,2.5431,0.0,2.479,2.4646,2.42,2.4055,2.4124,2.4687,2.498,2.5183,2.5417,2.5245,2.4636,2.3457,2.2814,2.2263,2.1807,2.2035,2.2101,2.2101,2.2553,2.2703,2.267,2.2207,2.194,2.1816,2.1502,2.0966,2.0252,2.0698,2.0479,1.9844,1.9696,1.9222,1.8745,0.0,0.0,0.0,0.0,0.0,0.0,0.0,0.0,0.0,0.0,0.0,0.0,0.0,0.0,0.0,0.0,1.6579,1.8317,2.0514,2.2937,2.4933,2.6321,2.7344,2.8245,2.9112,2.8899,2.9104,2.9805,2.9732,2.9847,3.0117,3.0044,3.0373,3.1045,3.1048,3.1282,3.1749,3.2823,3.2858,3.2335,3.3235,3.2963,3.1872,3.0981,2.9814,2.8516,0.0,2.6317,2.5485,2.4972,2.4537,2.4388,2.5444,2.5461,2.5085,2.4716,2.5379,2.6136,2.5743,0.0,2.7175,2.775,2.7748,2.771,2.8091,2.801,2.784,2.7676,2.7129,2.6786,2.672,2.633,2.6343,2.729,2.734,2.7524,2.8465,2.7745,2.7169,2.7278,2.6387,0.0,0.0,0.0,0.0,2.42,2.4043,2.3977,2.4135,2.4321,2.457,2.4882,2.4913,2.4678,2.4102,2.3409,2.2871,2.2402,2.2478,2.2713,2.3232,2.3143,2.3001,2.2916,2.29,2.2687,2.2391,2.2317,2.1859,2.1277,2.1288,2.0712,1.9913,2.002,1.9381,1.8505,0.0,0.0,0.0,0.0,0.0,0.0,0.0,0.0,0.0,0.0,0.0,0.0,0.0,0.0,0.0,0.0,0.0,1.7622,1.9371,2.123,2.2934,2.4368,2.5199,2.6072,2.7037,2.6569,2.6758,2.7546,2.7743,2.8039,2.8492,2.8625,2.9174,2.9998,2.9983,3.0251,3.0738,3.1712,3.1482,3.06,3.1243,3.0661,2.9286,2.8299,2.7205,0.0,2.4354,2.334,2.2729,2.2788,2.3017,2.337,2.3851,2.4,2.3955,2.394,2.5018,2.6181,2.6257,2.6733,2.739,2.7971,2.7925,2.7755,2.7952,2.7926,2.772,2.7161,2.6458,2.5882,2.5701,2.5308,2.5321,2.6056,2.6281,2.6725,2.7774,2.7165,2.6803,2.7309,2.6375,2.5606,0.0,0.0,0.0,2.42,2.4043,2.3897,2.3824,2.3988,2.4095,2.4237,2.4259,2.4181,2.4013,2.347,2.3091,2.2961,2.3134,2.3448,2.3962,2.3785,2.3477,2.3177,2.3301,2.3075,2.2617,2.2519,2.2093,2.1482,2.108,2.042,1.9766,1.9942,1.9381,1.8736,0.0,0.0,0.0,0.0,0.0,0.0,0.0,0.0,0.0,0.0,0.0,0.0,0.0,0.0,0.0,0.0,0.0,0.0,1.8487,1.8982,2.0053,2.2001,2.2279,2.264,2.3015,2.3348,2.3467,2.3577,2.4283,2.5118,2.5937,2.5937,2.7027,2.8931,2.8532,2.8935,3.0043,3.0249,2.9842,2.9146,2.8934,2.7651,2.5874,2.5781,2.401,2.1674,2.187,2.1231,2.0366,2.0988,2.1741,2.2381,2.1979,2.2694,2.3833,2.4477,2.4956,2.5422,2.6497,2.6759,2.6942,2.7838,2.7856,2.7599,2.717,2.7099,2.6717,2.5293,2.5181,2.5122,0.0,0.0,2.5024,2.487,2.5097,2.5512,2.6192,2.5927,2.5917,0.0,0.0,0.0,0.0,0.0,0.0,2.42,0.0,2.3835,2.3638,2.3838,2.3788,2.3457,2.3414,2.3393,2.3502,2.2972,2.2994,2.35,2.4,2.4205,2.4263,2.4326,2.4017,2.336,2.3475,2.3117,2.2339,2.2101,2.1575,2.0787,2.0154,1.9813,1.9645,1.9469,1.9381,1.9381,0.0,0.0,0.0,0.0,0.0,0.0,0.0,0.0,0.0,0.0,0.0,0.0,0.0,0.0,0.0,0.0,0.0,0.0,1.7508,1.8616,1.951,2.0172,2.0824,2.1531,2.2355,2.1875,2.2031,2.3,2.3072,2.3231,2.3517,2.3655,2.4062,2.466,2.4442,2.498,2.6049,2.6162,2.6059,2.5759,2.5879,2.5194,2.4089,2.3524,2.2424,2.1265,2.1303,2.0615,1.9816,2.0961,0.0,0.0,0.0,2.4567,2.4979,2.562,2.623,2.6687,2.6912,2.7485,2.795,2.7439,2.7467,2.7455,2.656,2.63,2.605,2.5298,2.4422,2.3703,0.0,0.0,0.0,2.4294,2.4728,0.0,2.6929,2.6627,0.0,2.6498,0.0,2.5324,2.4766,2.4406,0.0,0.0,2.4043,2.3982,2.413,2.3544,2.359,2.437,2.371,2.3663,2.4267,2.3917,2.4117,2.4963,2.4563,2.4454,2.4668,2.4249,2.3753,2.309,2.2769,2.2269,2.1745,2.2067,2.1639,2.0667,2.0933,2.0777,2.0333,2.0098,2.0029,2.0146,0.0,0.0,0.0,0.0,0.0,0.0,0.0,0.0,0.0,0.0,0.0,0.0,0.0,0.0,0.0,0.0,0.0,0.0,0.0,1.7634,1.8273,1.8659,1.8917,1.9408,2.01,1.9533,1.962,2.0553,2.0758,2.1066,2.1391,2.1758,2.2074,2.2418,2.2523,2.2906,2.3532,2.3741,2.3546,0.0,0.0,2.2644,2.1975,2.1446,2.0978,2.0552,2.0624,2.0661,0.0,0.0,0.0,2.4269,2.5439,2.5819,2.5954,2.6985,0.0,2.767,2.7685,2.8233,2.8521,2.738,2.7501,2.7521,2.6023,2.5798,2.5619,2.4695,2.3849,0.0,2.2576,0.0,0.0,0.0,0.0,0.0,2.5784,2.5574,2.5468,0.0,2.5575,0.0,2.4754,2.453,2.4356,0.0,2.4127,2.4095,2.4157,2.3676,2.3641,2.4093,2.3621,2.3505,2.4018,2.4004,2.4349,2.5029,2.4963,2.485,2.4829,2.4581,2.4007,2.3134,0.0,2.2131,2.1766,2.1645,2.1293,2.0721,2.0941,2.0867,2.0586,2.0308,2.0182,2.0381,0.0,0.0,0.0,0.0,0.0,0.0,0.0,0.0,0.0,0.0,0.0,0.0,0.0,0.0,0.0,0.0,0.0,0.0,0.0,0.0,1.6934,1.7416,1.7058,1.7063,1.7473,1.7175,1.7205,1.7606,1.8254,1.8884,1.9473,1.9939,2.0437,2.1038,2.1295,2.1547,2.1731,2.1993,2.1676,2.0893,2.0668,2.0324,1.9909,0.0,1.9752,1.9697,1.9858,2.0946,0.0,0.0,2.4585,2.5288,2.6399,2.6747,2.6961,2.8314,2.8599,2.8524,2.8622,2.8896,2.8843,2.7439,2.7654,2.7655,2.5562,2.5481,2.5377,2.376,0.0,2.2877,2.2103,2.2258,2.2283,2.1625,0.0,2.3207,2.3899,2.3972,2.4345,2.5542,2.4969,2.455,2.4802,2.4773,2.458,2.4162,2.4242,2.4214,2.3999,2.3999,2.3821,2.348,2.3403,2.3331,2.3397,2.3808,2.4238,2.4585,2.5205,2.5229,2.4908,2.4911,2.4337,2.3294,2.2622,2.2144,2.1868,2.1125,2.0769,2.0672,2.0596,2.0605,2.0537,2.0164,2.0141,2.0274,0.0,0.0,0.0,0.0,0.0,0.0,0.0,0.0,0.0,0.0,1.6132,1.6363,0.0,0.0,0.0,0.0,0.0,0.0,0.0,0.0,0.0,1.6629,1.6683,1.6713,1.6703,1.6842,1.6969,1.7102,1.7248,1.7492,1.781,1.7402,1.7688,1.8502,1.7948,1.848,1.9737,1.9294,1.9042,1.9021,1.9416,1.9169,1.8644,1.9417,0.0,0.0,1.9072,0.0,0.0,0.0,2.4626,2.6184,2.7364,2.8001,2.8432,2.8915,2.9371,2.9501,2.8921,2.9215,2.9167,2.6987,2.742,2.7711,2.5119,2.5094,0.0,0.0,2.2633,2.2328,2.1349,2.1224,2.1476,2.1983,0.0,0.0,0.0,0.0,2.4673,0.0,0.0,0.0,0.0,0.0,0.0,0.0,2.457,2.4941,2.4469,2.4296,2.4102,2.3875,2.3638,2.3646,2.3906,2.4171,2.4574,2.5065,2.5193,2.512,2.4805,2.4272,2.372,2.3139,2.2548,0.0,2.0825,2.148,2.0935,1.9659,2.0653,2.0869,2.0537,2.0245,2.0221,2.0312,0.0,0.0,0.0,0.0,0.0,0.0,0.0,1.5478,1.6283,1.7509,1.7536,1.7493,1.7497,1.7183,1.6876,0.0,0.0,0.0,0.0,0.0,0.0,0.0,1.6534,1.6577,1.6522,1.6735,1.6918,1.696,0.0,1.717,1.7295,1.706,1.7209,1.7625,1.745,1.78,1.8454,1.8245,1.8201,1.8293,1.863,1.8688,1.8607,0.0,0.0,0.0,0.0,0.0,0.0,0.0,2.3389,2.5001,2.7149,2.7874,2.815,2.9139,2.9153,2.8917,2.8961,2.889,2.8405,2.6776,2.6835,2.6708,2.4472,0.0,0.0,0.0,2.1956,2.165,2.1023,0.0,0.0,0.0,0.0,0.0,0.0,0.0,0.0,0.0,0.0,0.0,0.0,0.0,0.0,0.0,2.4971,2.5015,2.4157,2.4122,2.4191,2.4191,2.3731,2.3448,2.3351,2.3599,2.3928,2.432,2.4532,2.4472,2.423,2.3706,2.3198,2.2558,2.1924,2.1188,2.0409,2.101,2.0652,1.986,2.0719,2.0835,2.0531,2.0077,1.9869,1.9873,0.0,0.0,0.0,0.0,0.0,0.0,0.0,1.636,1.7076,1.8989,1.91,1.8786,1.8336,1.7722,1.7325,0.0,0.0,0.0,0.0,0.0,0.0,0.0,0.0,0.0,0.0,0.0,0.0,0.0,1.7073,0.0,0.0,0.0,0.0,0.0,1.7585,1.7679,1.7706,1.7922,1.792,0.0,0.0,1.8391,0.0,0.0,0.0,0.0,0.0,0.0,0.0,0.0,2.1896,2.3065,2.564,2.6687,2.7164,2.8421,2.8412,2.8182,2.8738,2.8321,2.7593,2.6801,2.6362,2.5668,2.4037,2.3457,0.0,0.0,2.1423,2.1082,2.0709,0.0,0.0,0.0,2.1248,0.0,0.0,0.0,0.0,0.0,0.0,0.0,0.0,0.0,0.0,0.0,2.473,2.4568,2.3824,2.3709,2.3852,2.4256,2.3547,2.3058,2.2854,2.3107,2.343,2.3745,2.4105,2.4106,2.3753,2.3391,2.2677,2.1852,2.1414,2.079,2.0121,2.0416,2.0312,2.0112,2.0529,2.0652,2.0342,1.9761,1.9524,1.9344,0.0,0.0,0.0,0.0,0.0,0.0,0.0,1.663,1.7661,1.9404,1.959,1.9357,1.8898,1.8715,1.8358,0.0,0.0,0.0,0.0,0.0,0.0,0.0,0.0,0.0,0.0,0.0,0.0,0.0,0.0,0.0,0.0,0.0,0.0,0.0,0.0,0.0,1.772,1.7908,0.0,0.0,0.0,0.0,0.0,0.0,0.0,0.0,0.0,0.0,0.0,0.0,0.0,2.104,2.2105,2.3971,2.5827,2.6148,0.0,0.0,2.8283,2.8024,2.7619,2.7047,2.6458,2.5561,2.4216,0.0,0.0,2.1492,2.1131,2.0983,2.0233,0.0,0.0,0.0,0.0,2.1561,0.0,0.0,0.0,0.0,0.0,0.0,0.0,0.0,0.0,2.3599,2.3222,2.3449,2.4312,2.3373,2.3123,2.3711,2.2918,2.2723,2.3349,2.3598,2.3998,2.4395,2.4672,2.4409,2.3576,2.3309,2.2429,2.1021,2.1527,2.0949,0.0,2.0236,2.0201,1.9679,2.0069,2.0172,1.9971,1.9658,1.9339,1.8967,0.0,0.0,0.0,0.0,0.0,0.0,1.6327,1.7144,1.817,1.9855,2.0038,1.9997,1.9898,1.9464,1.866,1.7324,0.0,0.0,0.0,0.0,0.0,0.0,0.0,0.0,0.0,0.0,0.0,1.7393,0.0,0.0,0.0,0.0,0.0,0.0,0.0,0.0,1.7271,1.709,0.0,0.0,0.0,0.0,0.0,0.0,0.0,0.0,0.0,0.0,0.0,0.0,0.0,0.0,2.0118,2.121,0.0,0.0,2.5098,2.5384,2.6717,2.624,2.544,2.5487,2.4879,2.4093,2.3324,0.0,2.2623,2.1591,2.1068,2.0723,2.0422,1.9811,1.9495,2.0096,2.032,0.0,2.1549,0.0,0.0,0.0,0.0,0.0,0.0,0.0,0.0,2.3854,2.3221,2.3262,2.4221,2.315,2.2929,2.3886,2.3088,2.2847,2.3193,2.3265,2.3277,2.3289,2.3298,2.3029,2.2579,2.2159,2.1461,2.0459,2.0675,1.987,0.0,1.9421,1.9338,1.8771,1.9237,1.9452,1.9268,1.8511,1.8351,1.8387,0.0,0.0,0.0,0.0,0.0,1.4784,1.6635,1.7295,1.8171,1.9847,1.9977,1.9951,1.987,1.9137,1.8244,1.7377,1.7104,0.0,0.0,0.0,0.0,0.0,0.0,0.0,0.0,0.0,1.7137,1.7562,1.7565,1.7653,0.0,0.0,0.0,0.0,0.0,0.0,0.0,0.0,0.0,0.0,0.0,0.0,0.0,0.0,0.0,0.0,0.0,0.0,0.0,0.0,0.0,0.0,0.0,0.0,0.0,0.0,2.3185,2.3231,2.5183,2.4891,2.4133,2.4687,2.4014,2.3162,0.0,0.0,2.1992,2.1594,2.1055,2.0547,2.0295,1.9695,1.9381,1.9775,1.9936,2.0275,2.0993,0.0,0.0,0.0,0.0,0.0,0.0,0.0,2.353,2.3606,2.333,2.332,2.3709,2.2846,2.2775,2.3733,2.2988,2.2667,2.3037,2.2822,2.2646,2.2523,2.2277,2.1883,2.1293,2.1218,2.0524,1.9572,1.9755,1.9024,0.0,1.8662,1.871,1.8303,1.8664,1.8865,1.8745,1.7722,1.7639,1.7838,0.0,0.0,0.0,0.0,0.0,0.0,1.653,1.6846,1.7459,1.9269,1.9279,1.8917,1.8456,1.7458,1.7208,1.8094,1.7814,0.0,0.0,0.0,0.0,0.0,0.0,0.0,0.0,0.0,1.7549,1.7721,1.818,1.8168,1.7721,1.7549,1.7226,0.0,0.0,0.0,0.0,0.0,0.0,0.0,0.0,0.0,0.0,0.0,0.0,0.0,0.0,0.0,0.0,0.0,0.0,0.0,0.0,1.7989,1.8655,2.034,2.1592,2.2679,2.4028,2.4326,2.444,2.5379,2.4359,2.328,0.0,0.0,2.1941,2.135,2.097,2.0497,1.9579,1.9708,1.9868,1.9456,1.986,2.0516,2.144,0.0,0.0,0.0,0.0,0.0,0.0,0.0,2.3392,2.2267,2.3278,0.0,2.2563,2.2343,2.249,2.3115,2.2276,2.2112,2.2804,2.2422,2.233,2.2584,2.2329,2.1467,2.0029,2.0608,1.9885,1.8183,1.8953,1.8819,0.0,1.8267,1.849,1.8579,1.8347,1.843,1.8505,1.766,1.7357,1.718,0.0,0.0,0.0,0.0,0.0,0.0,0.0,1.5427,1.6102,1.7238,1.7358,1.7539,1.8069,1.7981,1.799,1.8154,1.7585,0.0,0.0,0.0,0.0,0.0,0.0,0.0,0.0,0.0,1.7708,1.816,1.8464,1.8763,1.8969,1.808,1.7619,1.7614,1.6658,0.0,0.0,0.0,0.0,0.0,0.0,0.0,0.0,0.0,0.0,0.0,0.0,0.0,0.0,0.0,0.0,0.0,0.0,0.0,0.0,1.9292,2.0053,2.0841,2.1694,2.2289,2.249,2.2014,2.2111,2.2207,2.1772,0.0,2.1457,2.122,2.0921,2.0497,1.994,1.9759,1.9685,1.9555,1.9737,2.0081,0.0,0.0,0.0,0.0,0.0,0.0,0.0,0.0,2.396,2.3596,2.3701,2.3867,2.3888,2.2972,2.2796,2.3515,2.26,2.2487,2.3493,2.2798,2.2301,2.2083,2.1471,2.0552,1.9539,1.9598,1.9134,1.831,1.844,1.7967,1.7081,1.7132,1.7105,1.7004,1.6758,1.7001,1.7466,1.6731,1.6347,1.6069,0.0,0.0,0.0,0.0,0.0,0.0,0.0,1.5069,1.5545,1.6237,1.6362,1.6685,1.7533,1.7784,1.8041,1.8382,1.7977,0.0,0.0,0.0,0.0,0.0,0.0,0.0,0.0,1.7667,1.8431,1.905,1.9182,1.9471,1.9819,1.8832,1.8177,1.7886,1.7004,1.6548,0.0,0.0,0.0,0.0,0.0,0.0,1.8228,0.0,0.0,0.0,0.0,0.0,0.0,0.0,0.0,0.0,0.0,0.0,0.0,0.0,1.896,1.9608,2.0571,2.0966,2.1074,2.0759,2.0923,2.112,0.0,0.0,2.0987,2.114,2.0871,2.0459,1.9952,1.9759,1.9611,1.9335,0.0,0.0,0.0,0.0,0.0,0.0,0.0,0.0,0.0,2.3956,2.4154,2.3855,2.3846,2.3825,2.378,2.2746,2.2504,2.3153,2.2237,2.2028,2.2666,2.1909,2.1367,2.1024,2.0372,1.9556,1.8698,1.8691,1.8435,1.8047,1.7952,1.7543,0.0,1.6863,1.6632,1.6239,1.603,1.6291,1.654,1.5951,1.545,1.5042,0.0,0.0,0.0,0.0,0.0,0.0,0.0,1.5364,1.5475,1.6003,1.6114,1.6348,1.6888,1.6987,1.7464,1.8647,0.0,0.0,0.0,0.0,0.0,0.0,0.0,0.0,1.7215,1.8538,1.9458,2.008,2.0207,2.031,2.0373,1.9782,1.8874,1.7792,1.7715,1.7106,1.6096,0.0,0.0,0.0,1.7989,1.8189,0.0,0.0,0.0,0.0,0.0,0.0,0.0,0.0,0.0,0.0,0.0,0.0,0.0,0.0,0.0,0.0,0.0,2.023,2.0042,2.0926,2.0515,2.0057,2.0691,0.0,0.0,2.1019,2.0845,2.0422,1.9758,1.9733,1.9577,0.0,0.0,0.0,0.0,0.0,0.0,0.0,0.0,0.0,2.3785,2.4252,2.4251,2.3348,2.3732,2.3546,2.2655,2.197,2.1739,2.2106,2.1224,2.0819,2.0956,2.0312,1.9822,1.9645,1.9268,1.8602,1.7848,1.7886,1.7738,0.0,1.7532,1.7432,1.6976,1.718,1.6814,1.6039,1.6001,1.5917,1.572,1.5173,1.4599,1.4082,0.0,0.0,0.0,0.0,0.0,0.0,0.0,0.0,0.0,0.0,1.522,1.574,1.6178,1.6786,1.7442,0.0,0.0,0.0,0.0,0.0,0.0,0.0,0.0,0.0,1.733,1.8551,1.9366,1.9726,2.0706,2.1264,2.1341,2.0714,2.0122,1.9529,1.8287,1.7367,1.6796,1.7113,0.0,0.0,1.8121,1.8333,0.0,0.0,0.0,0.0,1.7545,1.745,0.0,0.0,0.0,0.0,0.0,0.0,0.0,0.0,1.7581,1.7747,1.8631,0.0,1.9331,1.861,1.9092,1.9629,0.0,0.0,0.0,0.0,0.0,2.0577,2.011,1.9942,1.9812,0.0,0.0,0.0,0.0,0.0,0.0,0.0,0.0,2.4727,2.4089,2.4916,2.5155,2.4073,2.4367,2.4012,2.2615,2.2076,2.1592,2.0962,2.0296,2.0413,2.1461,2.0899,2.0415,1.9931,1.9607,1.8913,1.7912,1.7683,1.7506,1.7388,1.7057,1.6581,1.5936,1.5816,1.5484,1.5045,1.4596,1.4604,1.4747,1.4272,1.3371,1.2475,0.0,0.0,0.0,0.0,0.0,0.0,0.0,0.0,0.0,0.0,0.0,0.0,0.0,0.0,0.0,0.0,0.0,0.0,0.0,0.0,0.0,0.0,0.0,1.7939,1.8116,1.9251,1.9962,2.037,2.0949,2.1366,2.1706,2.1088,2.0364,1.9588,1.8205,1.7427,1.7238,1.7822,1.8072,1.807,1.8545,0.0,0.0,0.0,0.0,0.0,1.6758,1.6598,0.0,1.652,1.6725,1.7049,0.0,0.0,0.0,0.0,1.7529,1.7568,1.7845,1.8349,1.8707,1.8236,1.8665,1.9189,1.9244,0.0,0.0,0.0,0.0,0.0,2.0107,0.0,0.0,0.0,0.0,0.0,0.0,0.0,0.0,0.0,0.0,2.5231,0.0,2.5471,2.5546,2.487,2.4419,2.367,2.2757,2.1788,2.0992,2.0292,1.9669,1.9771,2.0704,2.0155,1.9802,1.956,1.8984,1.8383,1.787,1.7465,1.7276,1.7246,1.7058,1.6597,1.6008,1.5963,1.5427,1.4565,1.449,1.4212,1.3825,1.3614,1.282,1.1784,0.0,0.0,0.0,0.0,0.0,0.0,0.0,0.0,0.0,0.0,0.0,0.0,0.0,0.0,0.0,0.0,0.0,0.0,0.0,0.0,0.0,0.0,1.8958,1.9045,1.9207,2.0039,2.0784,2.1368,2.1286,2.14,2.1693,2.1374,2.0426,1.8957,1.7968,1.7536,1.7563,1.8421,1.8604,1.8342,1.8947,0.0,0.0,0.0,0.0,0.0,0.0,0.0,0.0,1.5936,1.5977,1.6294,1.6863,0.0,0.0,0.0,0.0,0.0,1.7553,1.7886,1.8388,1.8747,1.8747,1.8953,1.9827,0.0,0.0,0.0,0.0,0.0,0.0,0.0,0.0,0.0,0.0,0.0,0.0,0.0,0.0,0.0,2.5347,0.0,2.5937,2.5807,2.5581,2.5282,2.4072,2.3082,2.2554,2.1342,2.0322,1.9784,1.9231,1.9161,1.9487,1.8851,1.8692,1.8843,1.8023,1.7619,1.7538,1.7131,1.7025,1.6976,1.7066,0.0,1.6157,1.6246,1.5473,1.4201,1.4629,1.4017,1.2916,1.3067,1.2413,1.1479,0.0,0.0,0.0,0.0,0.0,0.0,0.0,0.0,0.0,0.0,0.0,0.0,0.0,0.0,0.0,0.0,0.0,0.0,0.0,0.0,0.0,2.0003,1.9433,1.9444,2.0079,2.0421,2.091,2.1654,2.2311,2.2416,2.186,2.2429,2.1366,1.8957,1.8363,1.8047,1.8017,1.8468,1.8667,1.8726,1.9017,0.0,0.0,0.0,0.0,0.0,0.0,0.0,0.0,1.611,1.6097,1.6147,1.6933,0.0,0.0,0.0,0.0,0.0,1.7427,1.8323,1.9055,1.861,1.8848,1.9311,1.9692,0.0,0.0,0.0,0.0,0.0,0.0,0.0,0.0,0.0,0.0,0.0,0.0,0.0,0.0,2.5251,0.0,2.6474,2.5128,2.571,2.5476,2.3963,2.3762,2.2971,2.1056,2.0748,2.0151,1.917,1.9082,1.8922,1.886,1.8362,1.8121,1.8121,1.7635,1.7229,1.6812,1.664,1.6563,1.6532,0.0,1.5484,1.5209,1.4668,1.3981,1.3223,1.3416,1.3086,1.2421,1.1834,1.1232,1.0689,0.0,0.0,0.0,0.0,0.0,0.0,0.0,0.0,0.0,0.0,0.0,0.0,0.0,0.0,0.0,0.0,0.0,0.0,0.0,0.0,2.0258,2.0759,2.0357,2.0369,2.0939,2.1195,2.1784,2.2791,2.3232,2.3299,2.2858,2.2178,2.0841,1.8957,1.8829,1.857,1.8218,1.9146,1.9273,1.8876,0.0,0.0,0.0,0.0,0.0,0.0,0.0,0.0,0.0,0.0,1.6232,1.6241,1.6892,0.0,0.0,0.0,0.0,0.0,1.714,1.7727,1.8423,1.8732,1.9656,2.0548,2.0914,0.0,0.0,0.0,0.0,0.0,0.0,0.0,0.0,0.0,0.0,0.0,0.0,0.0,2.5756,0.0,0.0,2.6173,2.5507,2.5529,2.5147,2.4008,2.332,2.2514,2.1342,2.0483,1.9832,1.9329,1.8922,1.8523,1.8282,1.7789,1.7708,1.8201,1.7546,1.7139,1.6894,1.6484,1.6316,1.6411,0.0,1.5733,1.5426,1.5181,1.4587,1.379,1.3784,1.3253,1.2393,1.1318,1.0619,1.0198,0.0,0.0,0.0,0.0,0.0,0.0,0.0,0.0,0.0,0.0,0.0,0.0,0.0,0.0,0.0,0.0,0.0,0.0,0.0,0.0,2.0514,2.1173,2.1049,2.1321,2.2049,2.2126,2.2737,2.4023,2.4184,2.4062,2.3657,2.1796,2.032,1.9199,1.9409,1.9203,1.8786,1.9854,1.9903,1.9255,0.0,0.0,0.0,0.0,0.0,0.0,0.0,0.0,0.0,0.0,0.0,0.0,0.0,0.0,0.0,1.717,1.7044,1.6944,1.7029,1.7416,1.8012,1.8904,2.0003,2.1069,2.1869,0.0,0.0,0.0,0.0,0.0,0.0,0.0,0.0,0.0,0.0,0.0,2.5727,2.5647,2.5643,2.597,2.5928,2.5733,2.5626,2.5209,2.4629,2.3885,2.2778,2.198,2.1629,2.0359,1.9566,1.9478,1.8754,1.8273,1.7951,1.7383,1.7465,1.8112,1.7294,1.6894,1.6812,1.6245,1.6154,1.6386,1.6308,1.609,1.5937,1.5756,1.5133,1.4176,1.4109,1.3312,1.2159,1.1014,1.0305,0.9945,0.0,0.0,0.0,0.0,0.0,0.0,0.0,0.0,0.0,0.0,0.0,0.0,0.0,0.0,0.0,0.0,0.0,0.0,0.0,0.0,2.0562,2.0891,2.1073,2.1971,2.3702,2.3205,2.3555,2.4881,2.5262,2.4865,2.3657,2.1821,2.0664,2.01,2.0019,2.004,2.022,2.0093,2.014,2.0267,1.9773,0.0,0.0,0.0,0.0,0.0,0.0,0.0,0.0,0.0,0.0,0.0,0.0,0.0,1.6918,1.6918,1.6846,1.6832,1.7314,1.8172,1.8932,1.9007,1.9182,0.0,2.1444,2.1313,0.0,0.0,0.0,0.0,0.0,0.0,0.0,0.0,0.0,2.5252,2.5624,0.0,2.6858,2.5968,2.5894,2.5552,2.4708,2.4407,2.3792,2.2735,2.2147,2.153,2.0713,1.997,1.9408,1.9082,1.8603,1.8193,1.77,1.7294,1.7139,1.7221,1.6722,1.6319,1.617,1.5824,1.5982,1.6378,1.5905,1.5819,1.5928,1.5439,1.4579,1.3565,1.3366,1.2559,1.1426,1.0792,1.0338,0.9922,0.0,0.0,0.0,0.0,0.0,0.0,0.0,0.0,0.0,0.0,0.0,0.0,0.0,0.0,0.0,0.0,0.0,0.0,0.0,1.9739,2.0364,2.1363,2.1282,2.1713,2.28,2.3393,2.4419,2.5926,2.5555,2.4957,2.419,2.226,2.0888,2.0099,2.0422,2.043,2.0261,2.0167,2.0047,1.9867,1.9651,1.8715,0.0,0.0,0.0,0.0,0.0,0.0,0.0,0.0,1.6638,1.6606,1.7008,1.7044,1.696,1.696,1.6846,1.6726,1.6972,1.7652,1.8399,1.8796,0.0,0.0,0.0,0.0,0.0,0.0,0.0,0.0,0.0,0.0,0.0,0.0,2.4783,2.5286,2.606,2.6246,2.6097,2.5665,2.5477,2.5109,2.4325,2.3992,2.3346,2.2237,2.169,2.1085,2.0196,1.9706,1.9311,1.9002,1.8442,1.8031,1.77,1.7294,1.7057,1.6812,1.6648,1.6484,1.6237,1.5733,1.5899,1.6558,1.5771,1.5683,1.6062,1.5396,1.4805,1.4168,1.3153,1.24,1.1825,1.0971,1.0529,1.0365,0.0,0.0,0.0,0.0,0.0,0.0,0.0,0.0,0.0,0.0,0.0,0.0,0.0,0.0,0.0,0.0,0.0,0.0,1.8977,1.9448,2.0126,2.1176,2.0979,2.1131,2.182,2.2815,2.397,2.5351,2.4614,2.4116,2.3751,2.2062,2.0906,2.0316,2.0739,2.0691,2.0261,2.0167,1.9913,1.9472,1.9266,1.8428,0.0,0.0,0.0,0.0,0.0,0.0,0.0,0.0,1.7015,1.6918,1.7073,1.7044,1.6918,1.696,1.7089,1.7251,1.7238,1.7911,1.8647,0.0,0.0,0.0,0.0,0.0,0.0,0.0,0.0,0.0,0.0,0.0,0.0,0.0,2.5384,2.5647,2.6358,2.6006,2.5554,2.5475,2.4882,2.4292,2.3731,2.3219,2.2625,2.1767,2.1243,2.0711,2.0039,1.9706,1.9311,1.9002,1.8434,1.7951,1.7619,1.7221,1.6894,1.673,1.6648,1.6484,1.6319,1.5711,1.5883,1.6648,1.595,1.6017,1.6507,1.5873,1.5258,1.4458,1.3033,1.239,1.2049,1.099,1.055,1.037,0.0,0.0,0.0,0.0,0.0,0.0,0.0,0.0,0.0,0.0,0.0,0.0,0.0,0.0,0.0,0.0,0.0,0.0,1.7886,1.91,1.993,2.0154,2.0072,2.0337,2.1042,2.1389,2.2022,2.2897,2.2415,2.2102,2.1979,2.1159,2.0871,2.0997,2.0997,2.0761,2.0415,2.012,1.9741,1.9248,1.8631,1.8336,1.81,0.0,0.0,0.0,0.0,0.0,0.0,0.0,1.7183,1.6918,1.6947,1.6846,1.6731,1.6918,1.767,1.8414,1.8461,1.9277,2.0029,0.0,0.0,0.0,0.0,0.0,0.0,0.0,0.0,0.0,0.0,0.0,0.0,2.4933,2.582,2.6439,2.645,2.588,2.5477,2.5477,2.4222,2.326,2.2793,2.223,2.1655,2.1205,2.0809,2.0489,2.0342,2.0029,1.9627,1.9002,1.8585,1.8023,1.7392,1.6976,1.673,1.673,1.6476,1.6319,1.6079,1.5736,1.6002,1.6706,1.6357,1.6602,1.7178,1.6917,1.5777,1.4178,1.2968,1.2339,1.1861,1.0893,1.022,0.9844,0.0,0.0,0.0,0.0,0.0,0.0,0.0,0.0,0.0,0.0,0.0,0.0,0.0,0.0,0.0,0.0,0.0,0.0,1.8066,1.8521,1.8961,1.9416,2.0,1.9814,1.8754,1.8571,2.0206,2.3647,2.2656,2.2211,2.2239,2.1133,2.0712,2.0924,2.0712,2.0756,2.0919,1.99,1.9552,1.9557,1.9408,1.8598,1.7555,0.0,0.0,0.0,0.0,0.0,0.0,0.0,0.0,0.0,1.643,1.674,1.7226,1.6991,1.7238,1.7581,1.7771,1.8814,0.0,0.0,0.0,0.0,0.0,0.0,0.0,0.0,0.0,0.0,0.0,0.0,0.0,2.5406,2.5242,2.5154,2.536,2.4793,2.4329,2.4178,2.3545,2.2918,2.2387,2.2032,2.1655,2.1205,2.0974,2.0664,2.0342,2.0029,1.9706,1.9231,1.8843,1.832,1.7655,1.7349,1.7017,1.6533,1.6448,1.6402,1.6476,1.5721,1.5702,1.6357,1.5835,1.5905,1.6452,1.6277,1.5242,1.3816,1.3051,1.254,1.2233,1.0941,1.0634,1.0732,0.0,0.0,0.0,0.0,0.0,0.0,0.0,0.0,0.0,0.0,1.5869,1.621,0.0,0.0,0.0,0.0,0.0,0.0,1.7682,1.8074,1.85,1.908,1.9317,1.8858,1.7632,1.7713,1.9039,2.1684,2.099,2.0759,2.1056,2.0435,2.0403,2.0901,2.0612,2.0437,2.0395,1.9561,1.9257,1.9263,1.9276,1.8615,1.7731,0.0,0.0,0.0,0.0,0.0,0.0,0.0,0.0,0.0,1.6548,1.6866,1.7401,1.7547,1.7664,1.7793,1.8468,0.0,0.0,0.0,0.0,0.0,0.0,0.0,0.0,0.0,0.0,2.5908,2.6663,2.6335,0.0,2.6012,2.5503,2.5124,2.5199,2.4585,2.4118,2.3958,2.342,2.2852,2.2187,2.1949,2.1731,2.1359,2.1128,2.0896,2.0566,2.042,2.0029,1.9469,1.9082,1.8656,1.8171,1.7536,1.7062,1.6768,1.6357,1.6309,1.6485,1.5759,1.5805,1.6404,1.5968,1.5779,1.585,1.5764,1.4972,1.3816,1.3355,1.2831,1.2263,1.1206,1.0913,1.0857,0.0,0.0,1.2756,1.3997,0.0,0.0,0.0,0.0,0.0,0.0,1.5957,1.6163,0.0,0.0,0.0,1.6918,1.7115,1.7199,1.7086,1.7725,1.8381,1.8895,1.8213,1.7714,1.7581,1.8117,1.8278,1.8129,1.8179,1.8516,1.9032,1.9413,2.0028,2.0838,2.0549,2.0022,1.9336,1.9192,1.8924,1.8594,1.8594,1.8454,1.8272,1.7926,0.0,0.0,0.0,0.0,0.0,0.0,0.0,0.0,1.6993,1.7073,1.7431,1.8287,1.8477,1.8662,1.9855,0.0,0.0,0.0,0.0,0.0,0.0,0.0,0.0,0.0,0.0,2.59,2.7176,2.6464,2.5977,2.668,2.6252,2.5761,2.5608,2.4926,2.4427,2.434,2.3724,2.3001,2.2252,2.2101,2.1949,2.1578,2.1359,2.1118,2.0944,2.0896,2.0489,1.9659,1.9413,1.9052,1.8585,1.7648,1.7086,1.6974,1.628,1.6065,1.625,1.5921,1.6046,1.6532,1.6484,1.6022,1.5427,1.5459,1.4874,1.4028,1.3741,1.3098,1.2231,1.1589,1.1006,1.0562,0.0,0.0,1.2492,1.325,0.0,0.0,0.0,0.0,0.0,0.0,0.0,0.0,0.0,0.0,0.0,1.7115,1.7323,1.7488,1.7556,1.7608,1.7686,1.7761,1.7162,1.7276,1.8349,1.7172,1.6908,1.765,1.8105,1.8707,1.929,1.9302,1.977,2.0575,2.0347,2.0109,1.9813,1.9409,1.8955,1.8438,1.8438,1.8031,1.7424,1.7225,1.6793,0.0,0.0,0.0,0.0,0.0,0.0,0.0,1.6322,1.6837,1.7534,1.7342,1.7715,1.8242,0.0,1.9609,0.0,0.0,0.0,0.0,0.0,0.0,0.0,0.0,0.0,2.6709,2.6562,2.674,2.6647,2.5988,2.5304,2.4742,2.4584,2.4124,2.3835,2.3761,2.3512,2.3075,2.2628,2.2402,2.2176,2.1807,2.1578,2.1359,2.1128,2.0809,2.041,1.984,1.9459,1.8768,1.7742,1.7521,1.7035,1.6221,1.6051,1.5996,1.6073,1.5483,1.5209,1.5102,1.5682,1.5798,1.5525,1.557,1.5255,1.4643,1.3589,1.2866,1.2183,1.1429,1.1242,1.1212,0.0,0.0,0.0,0.0,0.0,0.0,0.0,0.0,0.0,0.0,0.0,0.0,0.0,1.6354,0.0,0.0,1.7042,1.7323,1.7461,1.7323,1.7329,1.7544,1.783,1.8188,1.8567,1.7705,1.7313,1.7575,1.751,1.7987,1.8964,1.9025,1.9333,1.9885,1.9885,1.9581,1.8996,1.8785,1.8557,1.8365,1.8266,1.7995,1.7604,1.7531,1.6928,1.619,1.619,0.0,0.0,0.0,0.0,0.0,0.0,0.0,1.7721,1.7839,1.7721,1.7756,0.0,0.0,0.0,0.0,0.0,0.0,0.0,0.0,0.0,0.0,2.5973,2.6524,2.655,2.6308,2.6068,2.6068,2.5137,2.4353,2.43,2.4045,2.3751,2.3519,2.3446,2.3224,2.2777,2.2402,2.2176,2.1949,2.1578,2.1359,2.1359,2.0841,2.046,2.0157,1.9568,1.9036,1.8442,1.7807,1.7204,1.6572,1.6215,1.593,1.5634,1.5573,1.5378,1.5041,1.5284,1.5114,1.4665,1.4637,1.4313,1.3812,1.323,1.2736,1.2244,1.1721,1.1632,1.1708,0.0,0.0,0.0,0.0,0.0,0.0,0.0,0.0,0.0,0.0,0.0,0.0,0.0,1.5845,1.5902,0.0,0.0,0.0,1.7055,1.7021,1.7218,1.7696,1.8699,1.8982,1.8464,1.8426,1.8099,1.7492,1.6835,1.7207,1.8469,1.8577,1.8827,1.9264,1.9359,1.8835,1.7886,1.7974,1.8053,1.8061,1.7856,1.7804,1.7735,1.7539,1.6831,1.5945,1.6153,1.6179,1.6113,1.6348,0.0,0.0,0.0,0.0,1.7756,1.8375,1.786,1.7485,0.0,0.0,0.0,0.0,0.0,0.0,0.0,0.0,0.0,2.478,2.5302,2.6017,2.6488,2.5742,2.5436,2.6269,2.5168,2.4265,2.4303,2.4158,2.3897,2.3372,2.3519,2.3446,2.2777,2.2478,2.2252,2.2101,2.1507,2.1247,2.1324,2.0737,2.0316,2.0236,1.9492,1.9193,1.9288,1.8062,1.7394,1.7189,1.636,1.5675,1.5122,1.5593,1.5559,1.5178,1.4903,1.4369,1.3738,1.3608,1.3282,1.2812,1.2862,1.2705,1.2372,1.2091,1.2111,1.2157,0.0,0.0,0.0,0.0,0.0,0.0,0.0,0.0,0.0,0.0,1.5784,1.5936,1.5881,1.5685,1.5566,1.5604,1.6309,1.6718,1.6613,0.0,0.0,1.7696,1.7862,1.7856,1.776,1.7624,1.739,1.6991,1.6761,1.7238,0.0,0.0,1.8202,1.9361,1.8792,1.8231,1.7766,1.8,1.7757,1.7164,1.6699,1.6504,1.6347,1.5234,1.4818,0.0,0.0,1.5617,1.5761,1.6943,1.7299,0.0,0.0,0.0,1.7431,1.7281,1.7553,1.7847,0.0,0.0,0.0,0.0,0.0,0.0,0.0,0.0,0.0,0.0,2.5697,2.5949,2.5205,2.5587,2.5934,2.5796,2.502,2.4368,2.3988,2.3785,2.3604,2.3298,2.3604,2.3593,2.3001,2.3075,2.2852,2.2176,2.152,2.109,2.0727,2.0219,1.9715,1.9092,1.9023,1.8815,1.8448,1.7624,1.725,1.7181,1.6087,1.539,1.494,1.4919,1.4587,1.4011,1.4022,1.3905,1.3605,1.3707,1.3615,1.3337,1.2904,1.2734,1.2792,1.2305,1.2374,1.2746,0.0,0.0,0.0,0.0,0.0,0.0,0.0,0.0,0.0,0.0,0.0,1.4917,1.4904,1.4826,1.4784,1.487,1.5299,1.5671,1.5858,1.6472,1.7046,1.7594,1.7619,1.7785,1.8162,1.772,1.7429,1.7306,1.6802,0.0,0.0,1.7672,1.7965,0.0,0.0,1.8474,1.7683,1.734,1.7201,1.7146,1.6087,1.6374,1.724,0.0,0.0,0.0,0.0,0.0,0.0,0.0,1.7155,1.7295,1.7365,0.0,0.0,0.0,1.7466,0.0,1.8392,0.0,0.0,0.0,0.0,0.0,0.0,0.0,2.4377,2.4478,2.5277,2.5934,2.5858,2.6285,2.6629,2.6488,2.5506,2.4613,2.4231,2.3772,2.3446,2.3446,2.3519,2.3519,2.3372,2.275,2.223,2.1797,2.0874,2.0262,2.0189,1.9756,1.9414,1.9273,1.8952,1.873,1.8607,1.793,1.7373,1.6881,1.5898,1.518,1.4797,1.4521,1.4239,1.3934,1.3778,1.3558,1.3314,1.2994,1.2961,1.3066,1.2586,1.2749,1.3142,1.2614,1.2706,1.3046,0.0,0.0,0.0,0.0,0.0,0.0,0.0,0.0,0.0,0.0,0.0,1.4121,1.4121,0.0,0.0,0.0,1.4574,1.4901,1.5508,1.6262,1.6959,1.7492,1.7575,1.7836,1.8329,1.7862,1.7524,1.7384,0.0,0.0,1.8097,1.7731,1.7977,0.0,1.8922,1.8487,0.0,0.0,0.0,1.7313,1.619,1.6766,1.817,0.0,0.0,0.0,0.0,0.0,0.0,0.0,0.0,0.0,0.0,0.0,0.0,0.0,0.0,0.0,0.0,0.0,0.0,0.0,0.0,0.0,0.0,0.0,2.4177,0.0,2.4801,2.5801,2.6324,2.6576,2.6759,2.6824,2.5704,2.4751,2.4303,2.3679,2.3298,2.3446,2.3298,2.3298,2.3446,2.2527,2.1828,2.1439,2.043,1.9765,1.9726,1.9434,1.9259,1.9249,1.8992,1.8875,1.8808,1.8237,1.7514,1.6569,1.5785,1.5221,1.4915,1.4414,1.4187,1.4213,1.3743,1.3369,1.3148,1.2747,1.2687,1.2856,1.2565,1.2858,1.3373,1.2906,1.2946,1.3223,0.0,0.0,0.0,0.0,0.0,0.0,0.0,0.0,0.0,0.0,0.0,1.4194,1.4194,1.3747,1.3727,1.442,1.4498,1.4951,1.5885,1.6414,1.6972,1.7562,1.7677,0.0,1.7638,1.7613,1.7333,1.6769,0.0,0.0,1.7894,1.7952,1.8388,1.9137,1.8535,1.7856,1.7252,0.0,0.0,0.0,1.7187,1.7584,1.8305,0.0,0.0,0.0,0.0,0.0,0.0,0.0,0.0,0.0,0.0,0.0,0.0,0.0,0.0,0.0,0.0,0.0,0.0,0.0,0.0,0.0,0.0,0.0,0.0,2.4098,2.4753,2.5254,2.5777,2.5834,2.5908,2.6104,2.5227,2.4391,2.4004,2.3394,2.3001,2.3001,2.3001,2.3001,2.3001,2.283,2.2264,2.1324,2.07,2.0032,1.9274,1.9297,1.905,1.859,1.8885,1.9008,1.8808,1.8203,1.7392,1.6386,1.5716,1.5442,1.5519,1.4835,1.4496,1.4414,1.3666,1.3318,1.334,1.3578,1.3404,1.3035,1.317,1.3271,1.3244,1.2925,1.3035,1.3319,0.0,0.0,0.0,0.0,0.0,0.0,0.0,0.0,0.0,0.0,0.0,0.0,0.0,1.3938,1.383,1.4961,1.5375,1.5531,1.5296,1.6169,1.6655,1.6574,1.6807,1.6954,1.701,1.6954,1.6766,0.0,0.0,1.6879,1.7341,1.7969,1.8248,1.8338,1.8719,1.8535,1.7874,1.7522,0.0,0.0,1.7332,1.7903,1.8777,0.0,0.0,0.0,0.0,0.0,0.0,0.0,0.0,0.0,0.0,0.0,0.0,0.0,0.0,0.0,0.0,0.0,0.0,1.9815,2.0447,2.0961,2.1545,2.2171,2.2912,2.3826,2.4596,2.5171,2.5421,2.5946,2.6229,2.5822,2.5315,2.4715,2.3869,2.3298,2.3075,2.3372,2.2948,2.2761,2.305,2.2127,2.1199,2.0456,1.9751,1.9216,1.8801,1.89,1.8875,1.8684,1.8942,1.8864,1.8379,1.7655,1.7039,1.651,1.5959,1.5635,1.5373,1.5093,1.4708,1.4282,1.4231,1.3891,1.3417,1.3355,1.3501,1.3783,1.3192,1.3485,1.418,1.3251,1.3115,1.3415,0.0,0.0,0.0,0.0,0.0,1.463,0.0,0.0,0.0,0.0,0.0,0.0,0.0,0.0,1.4377,1.5322,1.6048,1.6121,1.5309,1.6157,1.6553,1.6173,1.6363,1.6522,1.662,1.6534,1.6522,0.0,0.0,0.0,0.0,1.7785,1.8103,1.8178,1.8715,1.8786,0.0,0.0,0.0,1.7981,0.0,1.8702,1.9377,0.0,0.0,0.0,0.0,0.0,0.0,0.0,0.0,0.0,0.0,0.0,0.0,0.0,0.0,0.0,1.8074,0.0,0.0,0.0,0.0,2.0556,2.1141,0.0,2.2707,2.3323,2.399,2.4564,2.4801,2.5277,2.5557,2.5465,2.5075,2.4579,2.3722,2.3224,2.3001,2.3298,2.2948,2.2756,2.2887,2.1992,2.1062,2.016,1.9729,1.923,1.8751,1.9008,1.9145,1.8934,1.8768,1.8456,1.7874,1.7397,1.6929,1.6566,1.6165,1.5908,1.587,1.5624,1.5361,1.5089,1.5203,1.4671,1.376,1.3701,1.3942,1.4285,1.3605,1.3832,1.4459,1.3646,1.3356,1.3457,0.0,1.5501,1.602,1.6163,1.5373,1.4881,1.5426,0.0,0.0,0.0,0.0,0.0,0.0,0.0,0.0,1.5439,1.6423,1.6741,1.6081,1.6456,1.6663,1.6497,1.6509,1.6522,1.6522,1.6522,1.6577,1.6675,1.6718,1.7041,1.7651,0.0,1.7869,1.8858,1.8488,1.8503,1.8821,0.0,1.8982,1.902,0.0,2.0023,2.0066,0.0,0.0,0.0,2.2292,2.2213,0.0,0.0,0.0,0.0,0.0,0.0,0.0,0.0,0.0,0.0,0.0,0.0,0.0,0.0,0.0,0.0,2.1549,0.0,2.237,2.2631,2.2959,2.3344,2.3861,2.3828,2.4003,2.4921,2.4371,2.3813,2.3604,2.3065,2.2681,2.2692,2.2916,2.2856,2.2507,2.2463,2.1832,2.0375,2.0593,2.0275,1.9162,1.9736,1.9781,1.9188,1.8373,1.7785,1.7531,1.7429,1.7127,1.6627,1.6285,1.6457,1.6987,1.6386,1.6345,1.6818,1.6455,1.5557,1.4363,1.4833,1.478,1.4476,1.4449,1.4345,1.4131,1.4005,1.3697,1.3451,1.4478,1.5122,1.5723,1.5807,1.5367,1.5208,1.5752,0.0,0.0,0.0,0.0,0.0,0.0,0.0,1.7297,1.6876,1.7549,1.7563,1.656,1.6952,1.6959,1.6395,1.6645,1.6748,1.6633,1.6633,1.6675,1.6675,1.7028,1.7148,1.7002,1.7648,1.7939,1.7895,1.7994,1.8254,1.857,1.8303,0.0,0.0,1.9569,2.0178,0.0,0.0,0.0,0.0,0.0,2.1856,2.1629,0.0,2.037,1.9405,0.0,0.0,0.0,0.0,0.0,0.0,1.7828,0.0,0.0,0.0,0.0,0.0,2.0217,2.1049,2.1777,2.2494,2.2799,2.3132,2.3747,2.3561,2.3405,2.3557,2.3326,2.3262,2.3548,2.3061,2.2827,2.3475,2.3145,2.2588,2.2004,2.1448,2.0714,0.0,1.9802,1.9732,1.9253,1.908,1.8881,1.8609,1.8126,1.7921,1.7955,1.7742,1.75,1.7245,1.719,1.7251,1.746,1.6864,1.6817,1.7111,1.6543,1.5986,1.5458,1.5225,1.5314,1.5442,1.4617,1.4585,1.4836,1.3995,1.3735,1.39,1.4922,1.552,1.6115,1.6211,1.6066,1.6004,0.0,0.0,0.0,0.0,0.0,0.0,0.0,0.0,1.8233,1.7845,1.794,1.7743,1.7077,1.7275,1.722,1.6675,1.7125,1.7205,1.6803,1.7076,1.7033,1.6675,1.7099,1.7225,1.6986,1.7594,1.7826,1.7771,1.7753,1.7978,0.0,0.0,0.0,0.0,1.9882,0.0,0.0,2.2152,2.2565,0.0,0.0,0.0,2.2375,2.2333,2.1124,0.0,0.0,0.0,0.0,0.0,0.0,0.0,0.0,0.0,0.0,0.0,0.0,0.0,1.9978,2.0564,2.1207,2.2028,2.2127,2.2333,2.3108,2.2963,2.2686,2.2564,2.2536,2.2556,2.2849,2.228,2.207,2.2581,2.2179,2.1643,2.0967,2.0884,2.0499,1.9651,1.9659,1.9619,1.949,1.8924,1.876,1.9043,1.8247,1.7999,1.8371,1.8003,1.781,1.7744,1.7579,1.7723,1.8115,1.7665,1.7774,1.8187,1.7498,1.7059,1.6833,1.6117,1.5782,1.5661,1.506,1.5004,1.5189,1.4565,1.4315,1.4396,0.0,1.637,1.6833,1.708,1.7177,1.7203,0.0,0.0,0.0,0.0,0.0,0.0,0.0,0.0,0.0,0.0,1.8078,1.7704,1.757,1.7557,0.0,0.0,0.0,0.0,0.0,1.7601,1.757,1.6761,1.7138,1.7361,1.7363,1.7404,1.7655,1.8061,1.7573,1.7668,1.809,0.0,0.0,1.8916,2.0383,2.0614,0.0,0.0,2.2658,0.0,2.3541,2.3838,2.3443,2.3838,2.244,0.0,0.0,0.0,0.0,0.0,1.8517,0.0,0.0,0.0,0.0,0.0,0.0,0.0,2.0338,2.0566,2.0803,2.1244,2.1008,2.102,2.1855,2.1742,2.155,2.1491,2.1483,2.1627,2.1831,2.1362,2.094,2.0928,2.084,2.0508,1.9823,2.0574,2.0791,1.9913,1.9969,1.9963,1.9794,1.9188,1.9149,1.9778,1.8519,1.8092,1.8657,1.8313,1.8139,1.8139,1.7855,1.8153,1.8809,1.8652,1.8868,1.9483,1.8681,1.8309,1.8145,1.7205,1.6262,1.5454,1.5642,1.559,1.5401,1.5449,1.5134,1.4893,1.6111,1.6766,1.7369,1.7796,1.7948,0.0,0.0,0.0,0.0,0.0,0.0,0.0,0.0,0.0,0.0,0.0,1.9535,1.9098,1.8138,1.7962,0.0,0.0,0.0,0.0,0.0,0.0,1.783,1.7115,1.7925,1.7882,1.7086,1.7365,1.7459,1.7398,1.7293,1.7389,1.7635,0.0,0.0,1.9192,1.9536,0.0,2.1519,2.2697,2.3487,2.4133,2.4369,2.4227,2.3865,0.0,2.3041,2.2488,0.0,0.0,0.0,0.0,0.0,0.0,0.0,0.0,0.0,0.0,0.0,0.0,2.0155,2.0671,2.0814,1.9775,1.9766,1.9707,1.8922,1.8561,1.8469,1.8816,1.9091,1.9897,2.1429,2.1445,2.1415,2.1684,2.1285,2.0563,1.9414,2.0183,2.0403,1.9633,2.0302,2.0648,2.0496,1.9991,1.9546,1.9241,1.8896,1.8654,1.8616,1.8565,1.8464,1.8367,1.9014,1.9227,1.9051,1.9259,1.9237,1.8907,1.8261,1.7857,1.7601,1.7166,1.6764,1.6377,1.6028,1.5989,1.6035,1.5486,1.5185,1.5225,1.6741,1.7085,1.7492,1.8083,0.0,0.0,0.0,0.0,0.0,0.0,0.0,0.0,0.0,0.0,0.0,0.0,0.0,0.0,0.0,0.0,0.0,0.0,0.0,0.0,0.0,0.0,1.7945,1.7199,1.7765,1.7765,1.7337,1.7502,1.7849,1.8296,1.7824,1.7919,0.0,0.0,1.8162,1.903,1.9728,0.0,2.2287,2.3541,2.4365,2.4892,2.5018,2.4885,2.4491,2.3589,2.3315,0.0,0.0,2.2236,2.2526,0.0,2.177,2.2149,0.0,0.0,0.0,2.0481,0.0,0.0,0.0,2.0311,2.0386,1.9747,1.9508,1.9303,1.8917,1.8531,1.8184,1.7813,1.8623,1.9354,1.9621,1.9872,2.0064,2.0255,1.9975,1.9529,1.884,1.9526,1.9755,1.9263,1.9915,2.0182,1.9795,1.9524,1.941,1.9506,1.895,1.8739,1.8948,1.8959,1.8951,1.881,1.9419,1.9624,1.9462,1.9968,2.0097,1.9859,1.9385,1.8885,1.8452,1.7723,1.7264,1.6875,1.6425,1.6257,1.6254,1.579,1.5642,1.576,1.7365,1.7365,1.7508,1.8243,0.0,0.0,0.0,0.0,0.0,0.0,0.0,0.0,0.0,0.0,0.0,0.0,0.0,0.0,0.0,0.0,0.0,0.0,0.0,1.8173,0.0,0.0,0.0,1.7253,1.7497,1.7635,1.7638,1.772,1.8231,0.0,0.0,0.0,0.0,0.0,0.0,1.9356,0.0,2.1351,2.2419,2.404,2.4678,2.4856,2.5272,2.5313,2.501,2.4024,2.3747,2.3658,2.3279,2.3463,0.0,0.0,0.0,0.0,0.0,0.0,0.0,0.0,0.0,2.067,0.0,0.0,0.0,1.9626,1.9071,0.0,0.0,0.0,0.0,1.7143,0.0,0.0,0.0,1.8147,0.0,1.8531,1.8553,1.8429,1.827,1.8834,1.9221,1.9307,1.9598,1.9645,1.9285,1.9205,1.9413,1.9855,1.906,1.8826,1.9336,1.9321,1.9388,1.9539,1.9758,1.9927,2.015,2.0655,2.0858,2.0746,2.0322,1.9772,1.9135,1.8305,1.7689,1.7301,1.6909,1.6627,1.6457,1.6343,1.6275,1.6358,1.7706,1.7652,1.7716,1.8457,0.0,0.0,0.0,0.0,0.0,0.0,0.0,0.0,0.0,0.0,0.0,0.0,0.0,0.0,2.0901,0.0,0.0,0.0,0.0,0.0,1.8289,0.0,0.0,1.7363,1.8118,1.8118,1.7446,1.772,1.795,0.0,1.9121,0.0,0.0,0.0,2.0419,0.0,2.0954,2.0951,0.0,2.2734,2.3636,2.4299,2.4871,2.5061,2.5009,0.0,2.5057,2.5142,0.0,2.5035,2.569,0.0,0.0,0.0,0.0,0.0,0.0,0.0,2.1183,0.0,0.0,0.0,1.9412,1.7919,0.0,0.0,0.0,0.0,0.0,0.0,0.0,0.0,1.6563,1.7836,1.8668,1.8374,1.8682,1.8637,1.7838,1.8378,1.9292,2.0633,2.0205,2.0101,2.0535,2.0433,2.0184,1.9833,1.9447,1.9368,1.9571,1.9119,1.9485,2.0689,2.0757,2.0974,2.1297,2.1161,2.0661,1.9915,1.9372,1.8736,1.8068,1.8075,1.7975,1.7799,1.7523,1.7245,1.7078,1.6955,1.6899,1.697,1.7652,1.7488,1.7549,1.8286,0.0,0.0,0.0,0.0,0.0,0.0,0.0,0.0,0.0,0.0,0.0,0.0,0.0,2.1568,0.0,0.0,0.0,0.0,0.0,0.0,0.0,0.0,0.0,0.0,1.8044,1.8085,1.7882,1.8003,1.8549,0.0,1.9956,0.0,2.0926,0.0,2.0781,0.0,0.0,0.0,0.0,2.3192,2.4326,2.5053,2.5412,2.5564,2.5631,0.0,2.5293,0.0,0.0,0.0,0.0,0.0,0.0,0.0,0.0,0.0,0.0,0.0,0.0,0.0,2.0055,0.0,1.8895,0.0,0.0,0.0,0.0,0.0,0.0,0.0,1.6718,0.0,0.0,0.0,1.9634,1.8659,0.0,0.0,1.9091,1.8566,1.8737,1.9764,1.934,1.9214,1.9593,1.9605,1.9641,1.9682,1.9737,1.9949,2.0193,2.0322,2.0714,2.1269,2.1625,2.1602,2.1304,2.1527,2.117,2.0345,1.9799,1.9377,1.9026,1.8581,1.8302,1.8193,1.792,1.7634,1.7357,1.719,1.7134,1.7229,1.7679,0.0,0.0,0.0,0.0,0.0,0.0,0.0,0.0,0.0,0.0,0.0,2.2369,2.238,0.0,0.0,0.0,2.2848,0.0,0.0,2.0414,0.0,0.0,0.0,0.0,0.0,0.0,0.0,1.7989,1.8043,1.8123,1.8242,1.8865,1.9942,0.0,2.1111,2.1937,0.0,0.0,2.1642,2.1605,2.18,2.2255,2.3752,2.4842,2.5564,2.5743,2.5893,2.6079,2.5767,2.5537,0.0,2.6117,0.0,0.0,0.0,0.0,0.0,2.4206,0.0,0.0,0.0,0.0,0.0,0.0,0.0,0.0,0.0,0.0,0.0,0.0,0.0,0.0,0.0,0.0,1.7709,0.0,1.8831,0.0,0.0,0.0,0.0,0.0,1.8216,1.7944,1.8621,1.842,1.8454,1.8815,1.8999,1.9233,1.9509,1.9848,2.0232,2.0791,2.108,2.1514,2.2059,2.2204,2.2069,2.1701,2.1709,2.1368,2.0693,2.0155,1.9824,1.9528,1.8982,1.8667,1.8487,1.8354,1.8034,1.7579,1.7468,1.7479,1.7578,1.7948,1.7828,0.0,0.0,0.0,0.0,0.0,0.0,0.0,0.0,0.0,0.0,0.0,0.0,0.0,0.0,0.0,2.6497,2.661,0.0,2.2812,0.0,0.0,1.9741,0.0,0.0,0.0,0.0,0.0,1.8083,1.7922,1.8321,1.8428,1.8368,2.0224,2.1087,2.1213,2.2208,2.3163,2.3906,2.3004,2.3336,2.4349,0.0,2.4448,2.523,2.5425,0.0,0.0,2.5915,2.61,0.0,0.0,0.0,0.0,0.0,0.0,0.0,0.0,0.0,0.0,2.1804,0.0,0.0,0.0,0.0,1.9211,0.0,0.0,0.0,0.0,0.0,0.0,0.0,0.0,0.0,0.0,0.0,0.0,0.0,0.0,0.0,0.0,1.685,1.7118,1.7786,1.7883,1.824,1.8939,1.9263,1.938,1.9393,1.9537,2.0163,2.1269,2.0747,2.1506,2.3492,2.2293,2.2206,2.3063,2.1591,2.0772,2.0494,2.001,1.9433,1.8875,1.9093,1.904,1.8792,1.8846,1.8452,1.7897,1.803,1.8084,1.8123,1.7988,0.0,0.0,0.0,0.0,0.0,0.0,2.0165,0.0,0.0,0.0,0.0,0.0,2.5755,2.6973,0.0,0.0,2.776,2.8057,2.5131,0.0,0.0,0.0,2.0493,0.0,0.0,0.0,0.0,0.0,1.853,1.8755,1.8581,1.8833,1.9516,0.0,2.1412,0.0,0.0,0.0,0.0,0.0,2.3582,2.4242,0.0,2.519,2.5564,2.5907,2.6165,0.0,2.6556,2.6612,2.6568,2.6856,2.6612,2.6303,2.6484,2.644,2.632,0.0,0.0,2.6393,2.3956,0.0,0.0,0.0,0.0,0.0,0.0,0.0,0.0,0.0,0.0,0.0,0.0,0.0,0.0,0.0,0.0,0.0,0.0,0.0,0.0,0.0,0.0,1.6841,1.8232,1.8084,1.8376,1.9202,1.9368,1.958,1.9949,2.027,2.0781,2.1437,2.1781,2.2261,2.2774,2.3097,2.3166,2.2941,2.2652,2.225,2.182,2.1046,2.054,2.0257,1.9637,1.9203,1.8999,1.8542,1.8398,1.8426,1.8828,1.8691,1.8442,1.8559,0.0,0.0,0.0,0.0,0.0,0.0,0.0,0.0,0.0,2.3509,0.0,2.5738,0.0,2.7616,0.0,2.8997,2.887,2.8348,2.6624,0.0,2.5953,2.3428,0.0,0.0,0.0,0.0,0.0,0.0,1.8845,1.8755,1.8845,1.9069,1.9488,0.0,2.1462,2.2358,0.0,2.363,0.0,0.0,2.4313,0.0,0.0,2.5563,2.5598,0.0,2.6379,2.663,2.6989,2.7018,2.6986,2.747,2.7154,2.676,2.7167,2.7128,2.6979,2.7263,2.7801,0.0,2.5528,2.4986,0.0,2.0959,0.0,0.0,0.0,0.0,0.0,0.0,0.0,0.0,0.0,0.0,0.0,0.0,1.9116,0.0,0.0,0.0,0.0,0.0,1.6413,1.6503,1.838,1.8164,1.843,1.949,1.9617,1.983,2.0138,2.0522,2.0947,2.1411,2.2249,2.2691,2.2713,2.3683,2.3772,2.3124,2.3098,2.2897,2.2402,2.1378,2.0924,2.08,1.9818,1.9312,1.9182,1.8861,1.8786,1.8936,1.9252,1.9285,1.9115,1.9512,1.9594,0.0,0.0,1.87,0.0,0.0,0.0,2.201,0.0,2.4214,2.5025,2.6175,2.7242,2.7987,2.8284,2.9862,0.0,2.8012,2.8454,0.0,0.0,2.6106,2.5702,2.5813,0.0,0.0,0.0,0.0,0.0,1.8138,1.9081,1.9107,1.8394,2.0184,0.0,2.1911,2.3078,2.4187,2.523,2.5425,2.5481,2.5453,2.5674,2.5514,2.5275,2.5884,2.6447,2.6832,2.713,2.7284,2.7503,2.7855,2.8103,2.8186,2.8186,2.8381,2.8589,2.8539,2.8506,2.8102,2.6378,2.6061,0.0,0.0,0.0,2.1961,0.0,0.0,0.0,0.0,0.0,0.0,0.0,0.0,0.0,0.0,0.0,0.0,0.0,0.0,0.0,0.0,1.5838,1.6182,1.8265,1.8125,1.8493,0.0,2.0042,2.0105,2.0042,2.0309,2.072,2.1263,2.1981,2.2719,2.3339,2.3975,2.4089,2.3697,2.3124,2.2657,2.2224,2.1275,2.0711,2.0515,1.9768,1.9377,1.9226,1.9619,1.9645,1.9509,1.9453,1.9726,2.0127,1.965,2.0057,2.0355,0.0,2.0216,2.05,0.0,0.0,0.0,0.0,2.6252,2.7432,2.7952,2.9748,3.0735,3.0232,3.1191,0.0,0.0,0.0,0.0,2.8886,2.6904,2.6259,2.7185,2.416,0.0,2.2586,0.0,0.0,1.9642,1.9199,1.9336,1.9922,0.0,0.0,2.2838,2.2999,2.3906,2.523,2.5633,2.5355,2.4845,0.0,2.5781,2.5431,2.6136,2.6698,2.713,2.7284,2.7554,2.7855,2.7855,2.794,2.8054,2.8186,2.8348,2.866,2.9647,3.001,2.9859,2.8499,2.8051,2.7195,0.0,0.0,0.0,0.0,0.0,0.0,0.0,0.0,0.0,0.0,0.0,0.0,0.0,0.0,0.0,1.8091,0.0,0.0,1.6173,1.5681,1.6372,1.8618,1.8345,1.8748,2.0181,1.9971,1.9946,2.0118,2.0233,2.05,2.0933,2.1678,2.226,2.2762,2.381,2.408,2.3615,2.4053,2.4003,2.3415,2.2917,2.2217,2.142,2.0507,1.9708,1.9059,1.9209,1.9912,2.0854,2.0321,2.0534,2.094,2.0737,0.0,0.0,2.1772,0.0,0.0,2.2179,0.0,0.0,2.5122,2.6599,0.0,2.8337,3.008,3.1126,3.0908,3.1497,0.0,3.0411,0.0,0.0,2.8983,2.8032,2.7846,2.8535,2.5819,0.0,2.3491,0.0,0.0,1.9069,1.9555,1.9634,0.0,0.0,2.0996,2.2175,2.3041,2.411,2.5244,2.5672,2.5628,0.0,2.5929,2.6112,2.6182,2.6657,2.6945,2.7167,2.7386,2.764,2.784,2.794,2.8039,2.8152,2.8332,2.8742,2.9275,3.0086,3.0657,3.072,2.9685,2.9335,2.8544,2.5955,2.5105,2.4879,0.0,2.4115,2.3741,0.0,0.0,0.0,0.0,0.0,0.0,0.0,0.0,0.0,0.0,1.7826,1.7282,1.6055,1.6014,1.6957,1.9123,1.8613,1.8762,0.0,1.9847,1.9646,1.9649,1.9992,2.0306,2.0633,2.1622,2.2315,2.2704,2.3694,2.412,2.4,2.4407,2.438,2.4014,2.3189,2.2316,2.1406,2.0318,1.9782,1.9719,2.0421,2.1559,2.2669,2.1862,2.1628,2.1565,2.2104,0.0,0.0,0.0,0.0,0.0,0.0,2.2817,0.0,2.5412,0.0,2.7405,2.8284,2.9633,3.0574,3.0934,0.0,3.094,2.9177,3.0225,3.0178,2.8526,2.9209,2.9665,2.9665,2.7866,0.0,0.0,0.0,0.0,1.8097,2.0067,1.9991,0.0,0.0,0.0,0.0,2.3311,2.468,2.5512,2.5626,2.6082,2.6611,2.5955,2.6236,2.7026,2.7151,2.7129,2.7167,2.7575,2.7675,2.7725,2.8137,2.8296,2.8406,2.8664,2.9357,3.0068,3.0291,3.0718,3.094,3.0226,3.0052,2.9437,2.7103,2.6593,2.6502,2.6029,2.5393,2.5437,2.7195,0.0,0.0,0.0,0.0,0.0,0.0,0.0,0.0,0.0,0.0,0.0,1.6121,1.6488,1.7567,1.9512,1.8782,1.8713,0.0,0.0,1.94,1.8996,1.9687,2.0254,2.0556,2.1847,2.2752,2.3195,2.3741,2.418,2.4431,2.4271,2.4176,2.4013,2.2627,2.1686,2.108,1.9874,1.9904,2.0786,2.2321,2.3581,2.4297,2.3598,2.2955,2.2286,0.0,0.0,0.0,0.0,0.0,2.3226,2.4381,2.5632,2.6576,2.7093,2.8997,3.0271,2.9965,3.1565,3.2317,3.1246,3.1555,0.0,0.0,0.0,0.0,2.9811,2.9922,2.9988,2.9988,2.774,2.6083,0.0,0.0,0.0,0.0,0.0,0.0,0.0,0.0,0.0,2.3241,2.4124,0.0,2.6989,2.6045,2.6395,2.7292,2.5509,2.5756,2.7027,2.6683,2.7061,2.774,2.8103,2.8186,2.8137,2.8429,2.8848,2.9246,2.9492,2.9878,3.0291,3.1006,3.0927,3.0576,3.0464,3.0433,3.0084,2.8716,2.8013,2.7671,2.7873,2.7457,2.7272,2.8005,0.0,0.0,0.0,0.0,0.0,0.0,0.0,0.0,0.0,0.0,1.7661,0.0,1.629,1.7166,1.8689,0.0,0.0,0.0,1.9586,1.9331,1.9333,1.9827,2.0489,2.1308,2.2101,2.3216,2.4657,2.4301,2.4123,2.4016,2.381,2.3468,2.2949,2.2459,2.1914,2.1407,2.0752,2.0828,2.1423,2.3131,2.3864,2.3962,2.4399,2.4297,2.3682,0.0,0.0,0.0,0.0,0.0,0.0,0.0,2.7647,2.8396,2.8028,2.8786,2.9582,3.0188,3.1132,3.1609,3.1501,3.1263,3.0884,3.0429,3.0221,3.0148,3.0125,2.9974,0.0,3.0111,2.8383,2.6845,2.5603,0.0,0.0,0.0,0.0,0.0,0.0,0.0,2.2052,0.0,0.0,2.6076,2.7195,2.6736,2.721,2.806,2.6872,2.668,2.7081,2.7788,2.7844,2.7712,2.8321,2.8676,2.8953,2.9245,2.9762,3.0292,3.0456,3.0701,3.0943,3.0943,3.0782,3.0523,3.017,3.0044,2.9872,2.9339,2.896,2.8756,2.895,2.8715,2.8418,2.8325,2.8012,0.0,0.0,0.0,0.0,0.0,0.0,0.0,0.0,0.0,0.0,0.0,0.0,0.0,0.0,0.0,0.0,0.0,1.9526,1.9002,1.8983,2.0098,2.0849,2.1263,2.2763,2.3949,2.4759,2.4597,2.4526,2.4479,2.4531,2.4311,2.3877,2.3526,2.287,2.2001,2.2087,2.2313,2.2777,2.4463,2.5149,2.5217,2.5425,2.5315,2.4811,0.0,2.4836,0.0,0.0,2.5784,0.0,2.7484,2.8778,2.9358,2.8731,2.8414,2.8825,3.0104,3.0383,3.0735,3.1418,3.0815,3.0331,3.0269,2.9981,2.9898,3.0111,3.0021,3.0083,3.0233,2.929,2.7853,0.0,0.0,0.0,0.0,0.0,0.0,0.0,0.0,0.0,0.0,0.0,2.6864,2.7527,2.7642,2.8213,2.8884,2.8353,2.7885,2.7727,2.9015,2.8867,2.8186,2.8871,2.9368,2.9759,3.0112,3.0618,3.1142,3.1207,3.1341,3.1341,3.078,3.0599,3.0448,2.996,2.9742,2.9653,2.9653,2.9681,2.9681,2.9649,2.9717,2.9512,2.8705,2.8505,0.0,0.0,0.0,0.0,0.0,0.0,0.0,0.0,0.0,0.0,1.6743,0.0,0.0,0.0,0.0,0.0,2.0575,1.966,1.903,1.8864,2.0466,2.1299,2.1244,2.3552,2.4791,2.4818,2.5011,2.5099,2.5019,2.5023,2.4967,2.4822,2.4302,2.3592,2.2825,2.3381,2.3761,2.4114,2.571,2.6418,2.6457,2.6336,2.6162,2.5741,0.0,0.0,0.0,0.0,0.0,0.0,2.7102,2.851,2.9526,2.9331,2.9827,3.0333,3.0437,3.0853,3.094,3.048,3.0197,2.9892,2.954,2.9568,2.9851,3.0266,3.0447,3.0568,3.0702,3.0235,2.8729,0.0,0.0,2.3576,0.0,0.0,0.0,0.0,0.0,2.4194,2.6745,2.7315,2.8166,2.9163,2.8689,2.9102,2.9907,2.847,2.8652,2.967,2.94,2.9601,3.0037,3.0568,3.0411,3.0066,3.0694,3.1177,3.1534,3.1404,3.1198,3.0962,3.1034,3.0575,3.0098,3.0307,3.0231,3.0146,3.0146,3.0156,3.0182,3.0146,3.0826,3.0971,2.9543,3.036,3.0302,0.0,0.0,0.0,0.0,0.0,0.0,0.0,0.0,0.0,0.0,1.8585,0.0,0.0,2.044,0.0,0.0,2.0472,2.0196,1.9712,2.1011,2.1869,2.2086,2.4326,2.5621,2.5941,2.593,2.5647,2.5147,2.4247,2.4046,2.4325,2.342,2.332,2.3775,2.4234,2.4566,2.5005,2.6445,2.6811,2.651,2.6788,2.6721,2.639,0.0,0.0,0.0,0.0,0.0,0.0,0.0,2.9233,2.9588,2.9289,2.9827,3.0517,3.1253,3.0949,3.0644,3.058,3.0256,2.9932,2.9554,2.9741,2.9974,3.0158,3.0462,3.0642,3.0821,3.025,2.9378,0.0,0.0,0.0,0.0,0.0,0.0,0.0,2.5173,2.6153,2.7214,2.9031,3.0069,3.047,3.0251,3.054,3.101,2.9986,2.9738,2.9937,3.0425,3.0446,3.0482,3.1494,3.1684,3.148,3.1402,3.2026,3.2686,3.1822,3.1581,3.1477,3.1086,3.0614,3.029,3.0359,3.0401,3.0401,3.0485,3.051,3.0551,3.0634,3.0891,3.0908,3.0301,2.9871,2.936,2.853,0.0,0.0,0.0,0.0,0.0,0.0,0.0,0.0,0.0,0.0,0.0,0.0,0.0,0.0,0.0,2.13,2.1065,2.0407,2.2338,2.33,2.3159,2.55,2.6711,2.675,2.6748,2.6564,2.6211,2.585,2.5778,2.5879,2.5299,2.499,2.5085,2.5634,2.6085,2.6521,2.7324,2.7906,2.8299,2.8103,2.8229,2.8404,2.9991,0.0,2.8305,0.0,2.8872,2.8321,2.9529,2.9713,2.9637,2.9415,2.9741,3.0253,3.1069,3.0625,3.033,3.06,3.023,2.9974,2.9789,2.9913,3.0097,3.0233,3.0462,0.0,3.094,3.0499,3.0039,2.9619,2.7585,0.0,0.0,0.0,2.4503,2.5358,2.701,2.7948,2.8427,3.0729,3.1497,3.1328,3.1667,3.1849,3.1857,3.1612,3.1181,3.0761,3.1636,3.1579,3.1294,3.2442,3.2908,3.2896,3.2142,3.2545,3.3079,3.1854,3.1556,3.1434,3.0957,3.0652,3.0526,3.0609,3.0651,3.0733,3.0838,3.0918,3.1015,3.1213,3.0948,3.0729,3.0821,2.9721,2.8921,2.939,0.0,0.0,0.0,2.5192,0.0,0.0,2.1741,2.0955,2.0285,2.1149,0.0,0.0,0.0,0.0,0.0,2.2306,2.2144,2.1708,2.3613,2.4505,2.4309,2.6495,2.7539,2.7306,2.7473,2.7408,2.721,2.7291,2.7282,2.7125,2.6883,2.6763,2.6767,2.7162,2.7626,2.8132,2.8336,2.8918,2.9596,2.9213,2.9419,2.9914,3.0235,3.0199,3.0162,3.0511,3.0326,3.0083,3.0111,2.9679,2.954,3.005,2.9803,2.9554,2.9443,2.9803,3.0111,3.0125,2.9898,2.9931,3.0251,3.0007,3.0068,0.0,0.0,3.0807,3.1278,3.1176,3.0726,3.0008,0.0,0.0,2.7334,2.592,2.5968,2.7224,2.8088,2.9554,3.1435,3.2384,3.2344,3.1694,3.2835,3.2866,3.2349,3.3008,3.299,3.2602,3.3129,3.3061,3.2867,3.3641,3.4034,3.4054,3.2946,3.2482,3.2158,3.1365,3.0822,3.0543,3.0667,3.0757,3.0845,3.1134,3.119,3.123,3.1274,3.1466,3.1617,3.1746,3.1087,3.0649,3.1094,3.0509,2.9947,2.9827,0.0,0.0,0.0,2.5773,0.0,2.375,2.2916,2.2362,2.2362,2.3094,0.0,0.0,0.0,0.0,0.0,2.3475,2.3569,2.3752,2.4706,2.5273,2.5488,2.7273,2.7959,2.7515,2.8122,2.822,2.7898,2.8143,2.795,2.7396,2.7684,2.8178,2.8837,2.8661,2.9032,2.9762,2.9492,2.9569,2.9903,2.9729,3.0013,3.0458,3.1093,3.085,3.0587,3.0598,3.0387,3.0061,2.9511,2.9704,2.9695,2.9134,2.9582,2.9803,2.9415,3.0036,3.0462,0.0,3.0582,3.0702,0.0,3.111,3.1214,3.0881,3.1471,3.1664,3.1452,3.1379,3.1315,3.1222,0.0,0.0,2.917,2.8795,2.9061,2.984,3.0626,3.135,3.1992,3.2909,3.3135,3.2909,3.3407,3.3515,3.3377,3.307,3.3185,3.3478,3.3221,3.3335,3.3743,3.3969,3.4201,3.4268,3.3437,3.3436,3.3563,3.2397,3.2022,3.2061,3.2276,3.1756,3.1336,3.2115,3.1953,3.1634,3.1674,3.1839,3.1809,3.1289,3.0905,3.0676,3.0773,2.9989,2.9634,3.0671,2.9181,0.0,2.8297,0.0,2.5765,2.4963,2.463,2.428,2.3685,2.4348,0.0,0.0,0.0,0.0,0.0,2.5317,2.5887,2.4879,2.6446,2.7261,2.7148,2.8387,2.8826,2.8463,2.8826,2.8995,2.9025,2.9268,2.9319,2.9182,2.9531,2.9848,3.0088,3.0256,3.0853,3.1652,3.0948,3.1363,3.2299,3.1941,3.2193,3.2771,3.1495,3.1278,3.1043,3.0821,3.0687,3.0363,2.9734,2.9961,2.9954,2.9405,2.99,3.0144,2.9898,3.0326,0.0,3.0401,3.0717,3.0895,3.0821,3.1336,3.1426,3.1058,3.1619,3.1811,3.1495,3.148,3.1667,3.2053,3.162,3.1212,3.0872,3.097,3.1142,3.1467,3.1943,3.2325,3.2645,3.3296,3.3591,3.3642,3.3899,3.4,3.4002,3.3549,3.3712,3.4086,3.3632,3.386,3.4382,3.4399,3.4546,3.4625,3.41,3.4329,3.4459,3.3155,3.2813,3.2977,3.3389,3.2695,3.2072,3.2783,3.2464,3.1965,3.2073,3.2179,3.2074,3.1533,3.0907,3.0595,3.0991,3.0036,2.9602,3.0834,2.9476,2.8351,2.8608,0.0,2.6925,0.0,0.0,2.5962,2.5071,2.5746,2.6292,0.0,0.0,0.0,2.595,2.6998,2.7355,2.6678,2.7971,2.871,2.869,2.9403,2.9673,2.9524,2.9827,3.0051,3.0236,3.0508,3.0637,3.0723,3.1213,3.1496,3.1602,3.1872,3.2478,3.3105,3.2325,3.2676,3.3616,3.3329,3.3576,3.3794,3.1597,3.164,3.1567,3.119,3.1058,3.0955,3.0629,3.0447,3.0416,3.0569,3.0553,3.0582,3.0628,3.0776,3.0686,3.023,0.0,0.0,3.0821,3.1013,3.1087,3.1146,3.1382,3.1483,3.1552,3.1537,3.1853,3.257,3.3143,3.3124,3.259,3.2542,3.2408,3.2321,3.2273,3.2656,3.3346,3.3642,3.3797,3.3949,3.4349,3.4448,3.4349,3.4349,3.4399,3.4546,3.4399,3.4561,3.4833,3.493,3.5041,3.5088,3.4994,3.5041,3.4868,3.3698,3.3321,3.3432,3.406,3.3598,3.298,3.3273,3.2773,3.2267,3.2458,3.2526,3.2473,3.2249,3.1144,3.0515,3.1564,3.0576,2.9868,3.0575,2.9866,2.9076,2.8575,2.8399,2.7858,2.6566,2.7145,2.7391,2.6644,2.7274,2.7949,0.0,0.0,0.0,2.9977,2.863,2.8246,2.8993,2.9383,2.9739,3.0119,3.0285,3.0485,3.0697,3.1033,3.13,3.1579,3.1826,3.1987,3.2039,3.2697,3.3092,3.3313,3.3445,3.3801,3.4166,3.3428,3.3485,3.3897,3.3333,3.3404,3.2837,3.194,3.1925,3.1811,3.1452,3.1379,3.1142,3.0495,3.0969,3.1187,3.0467,3.0909,3.1166,3.0776,3.1245,3.1492,3.1246,3.1523,3.1499,3.1205,3.2931,3.3292,3.1672,3.2734,3.2912,3.1883,3.1966,3.2715,3.4083,3.4298,3.4771,3.5336,3.4667,3.4322,3.429,3.3745,3.3652,3.3899,3.4101,3.425,3.4349,3.4448,3.4546,3.4594,3.4594,3.4739,3.4947,3.5041,3.5165,3.527,3.5379,3.5367,3.5291,3.5412,3.5367,3.5178,3.4901,3.4577,3.4542,3.5528,3.4471,3.3343,3.4177,3.3459,3.2664,3.3299,3.31,3.2707,3.2592,3.1815,3.1232,3.137,3.1043,3.0958,3.1637,3.0612,2.9622,2.9382,2.8561,2.8106,2.8305,2.8238,2.8464,2.9355,2.91,2.9265,0.0,0.0,3.0927,3.1398,3.1062,3.0718,3.0451,3.0874,3.1213,3.1308,3.1342,3.149,3.1748,3.1842,3.2336,3.3213,3.2783,3.3154,3.4091,3.385,3.3971,3.4302,3.3671,3.3901,3.4502,3.2957,3.3289,3.3914,2.7644,2.5577,2.4809,3.215,3.2507,3.2614,3.1727,3.2038,3.208,3.1019,3.1367,3.156,3.0932,3.1367,3.1679,3.1738,3.1975,3.2256,3.2566,3.2596,3.2494,3.2258,3.3622,3.3789,3.2412,3.3193,3.3356,3.2695,3.2598,3.3209,3.4622,3.4908,3.5542,3.6413,3.5717,3.5375,3.5326,3.4509,3.4379,3.4789,3.4839,3.4955,3.5103,3.525,3.5101,3.4787,3.4947,3.5041,3.5182,3.5152,3.5274,3.547,3.535,3.5367,3.5458,3.5458,3.5549,3.5639,3.5639,3.5484,3.5489,3.6323,3.5427,3.4341,3.4799,3.374,3.2907,3.4126,3.389,3.3512,3.3718,3.2965,3.2303,3.238,3.1802,3.1434,3.1756,3.0873,3.0113,3.0127,2.9686,2.9492,2.9866,3.0107,3.0378,3.072,3.0748,3.112,3.2138,3.2474,3.2883,3.3469,3.346,3.2929,3.1784,3.2121,3.2331,3.2429,3.2559,3.2823,3.3199,3.2965,3.343,3.4461,3.3863,3.4031,3.4767,3.4226,3.4431,3.5035,3.4145,3.2157,2.9565,2.8508,2.6359,2.3326,1.8818,1.7219,1.6143,3.2388,3.3268,3.3603,3.2088,3.2756,3.3043,3.1829,3.1845,3.189,3.1625,3.1935,3.2309,3.2777,3.2915,3.3186,3.3985,3.3815,3.36,3.3376,3.3878,3.3849,3.3029,3.3249,3.3376,3.3306,3.3232,3.3761,3.4872,3.548,3.6214,3.6934,3.6437,3.6125,3.5993,3.512,3.5038,3.5531,3.5531,3.5696,3.5927,3.5974,3.5673,3.5143,3.5232,3.5291,3.5291,3.5088,3.5258,3.5577,3.5211,3.5304,3.5622,3.5503,3.5728,3.6019,3.6062,3.6122,3.6191,3.6667,3.6212,3.5448,3.4959,3.3915,3.3381,3.4799,3.4755,3.4587,3.5136,3.4235,3.349,3.393,3.2793,3.1738,3.1568,3.1044,3.0618,3.0561,3.0894,3.119,3.1247,3.2025,3.2386,3.1884,3.2462,3.3283,3.4245,3.4887,3.5362,3.5656,3.5608,3.4921,3.3515,3.3418,3.3433,3.3587,3.3715,3.3982,3.4404,3.4071,3.4427,3.5366,3.4809,3.4745,3.5028,3.4469,3.405,3.373,3.2765,2.813,2.1604,2.1086,1.6713,1.0496,0.9089,0.8357,0.692,3.2952,3.3839,3.4275,3.2709,3.3039,3.3172,3.2242,3.2524,3.2576,3.2,3.3011,3.3661,3.3188,3.4149,3.4866,3.5186,3.5476,3.5059,3.3773,3.5171,3.5186,3.3074,3.3824,3.3767,3.2582,3.3855,3.5048,3.6198,3.7134,3.8071,3.903,3.8334,3.7652,3.702,3.6272,3.5673,3.5177,3.5177,3.5668,3.6424,3.5616,3.5618,3.6081,3.5525,3.5291,3.5337,3.5458,3.5622,3.5773,3.58,3.58,3.5817,3.6191,3.6216,3.6156,3.6502,3.6602,3.6602,3.6684,3.6348,3.5664,3.4305,3.4478,3.5021,3.5168,3.5334,3.566,3.6285,3.5223,3.4393,3.5217,3.3874,3.2428,3.1923,3.1775,3.1315,3.0035,3.0757,3.1722,3.2428,3.2767,3.3414,3.4643,3.4959,3.546,3.6286,3.6563,3.6742,3.6898,3.681,3.6694,3.6594,3.5624,3.5052,3.4899,3.4444,3.4147,3.408,3.4285,3.4858,3.5698,3.5114,3.5354,3.6202,3.5494,3.1523,2.5446,2.4351,1.9518,1.2605,1.0634,0.9964,0.9211,0.1891,-0.1269,-0.3142,3.3067,3.3787,3.4091,3.2983,3.3262,3.3562,3.3181,3.3115,3.3172,3.3391,3.3885,3.4283,3.4404,3.5076,3.5644,3.6106,3.6461,3.6338,3.5554,3.6153,3.5753,3.4002,3.4837,3.4774,3.356,3.4781,3.5808,3.6519,3.7107,3.811,3.9362,3.8941,3.8555,3.8185,3.7542,3.7239,3.729,3.7259,3.7177,3.7141,3.6709,3.6195,3.5807,3.5518,3.54,3.54,3.5412,3.5503,3.5656,3.5667,3.58,3.5975,3.6276,3.6426,3.6509,3.6643,3.6725,3.6678,3.6322,3.5852,3.5403,3.5226,3.4972,3.507,3.636,3.6476,3.6519,3.728,3.662,3.5869,3.5815,3.4744,3.3792,3.3502,3.3221,3.3104,3.335,3.363,3.4102,3.4847,3.5075,3.5474,3.6302,3.64,3.6851,3.79,3.7997,3.8079,3.8322,3.8249,3.8231,3.8322,3.7204,3.6338,3.5687,3.6023,3.5836,3.5143,3.5482,3.5893,3.6309,3.56,3.3463,3.0231,2.912,2.4392,1.739,1.6121,1.0946,0.3691,0.2565,-0.0231,-0.4261,-0.8843,-1.1118,-1.2592,3.3181,3.3826,3.407,3.3146,3.3693,3.4123,3.3951,3.3723,3.3844,3.4558,3.4627,3.4935,3.5535,3.5885,3.63,3.6845,3.7134,3.7194,3.7181,3.6923,3.6257,3.5047,3.5533,3.5565,3.4883,3.5857,3.6551,3.6832,3.7294,3.8162,3.9415,3.9143,3.9037,3.9069,3.8418,3.8346,3.8656,3.8577,3.8159,3.754,3.7492,3.6706,3.5635,3.5698,3.5597,3.5446,3.5337,3.5446,3.5566,3.5532,3.5783,3.6148,3.6343,3.6609,3.6788,3.6788,3.6829,3.6808,3.625,3.5823,3.567,3.6257,3.5735,3.5529,3.7268,3.7406,3.7344,3.8008,3.7649,3.7038,3.665,3.5739,3.502,3.4981,3.4723,3.4899,3.5929,3.6115,3.6351,3.6897,3.7192,3.7442,3.7595,3.7726,3.823,3.9233,3.9256,3.9342,3.9623,3.9576,3.9548,3.9552,3.8517,3.76,3.6825,3.7517,3.7435,3.6596,3.6869,3.7055,3.7066,3.4488,3.0346,2.5051,2.1755,1.6118,0.9137,0.7917,0.2315,-0.5396,-0.5434,-0.9869,-1.6351,-1.7229,-1.8468,-1.9944,3.3419,3.4383,3.4889,3.3492,3.4321,3.4814,3.4029,3.4425,3.4716,3.4531,3.5381,3.6052,3.5998,3.6723,3.737,3.7642,3.7492,3.7492,3.7642,3.7642,3.7074,3.5939,3.5618,3.5633,3.5959,3.6994,3.7637,3.792,3.8844,3.9489,3.9833,3.9294,3.9134,3.9358,3.8606,3.7894,3.7143,3.7143,3.7109,3.7012,3.6764,3.6696,3.6641,3.6438,3.5924,3.5291,3.5291,3.552,3.5773,3.5932,3.6191,3.6502,3.669,3.6788,3.6829,3.7031,3.7164,3.7241,3.7038,3.7212,3.7238,3.6577,3.7057,3.7569,3.7009,3.7558,3.8216,3.835,3.7699,3.7416,3.8419,3.7064,3.5736,3.5495,3.6031,3.6099,3.4999,3.6184,3.7255,3.7431,3.8055,3.8571,3.8747,3.949,4.0042,4.0204,4.0369,4.0519,4.0583,4.0583,4.0595,4.0591,3.9601,3.9054,3.8979,3.8369,3.808,3.8059,3.8128,3.8178,3.7929,3.0019,2.6236,2.544,1.6731,0.8182,0.0311,-0.0374,-0.6282,-1.4977,-1.4704,-1.6338,-1.8741,-1.8952,-2.0807,-2.3299,3.3356,3.3574,3.3724,3.3335,3.3536,3.4046,3.4833,3.5005,3.5436,3.6474,3.688,3.7112,3.7069,3.7467,3.7685,3.77,3.7918,3.7976,3.7817,3.7616,3.7383,3.7186,3.6717,3.6573,3.6864,3.7378,3.774,3.8002,3.846,3.9087,3.9781,3.9699,3.9527,3.9262,3.9084,3.8555,3.7809,3.7716,3.7352,3.6881,3.6801,3.6514,3.6062,3.5862,3.5768,3.5711,3.5694,3.5871,3.6131,3.6426,3.6632,3.6811,3.6908,3.697,3.7031,3.7223,3.7392,3.7503,3.7631,3.731,3.6862,3.6696,3.7012,3.7449,3.7729,3.8085,3.8401,3.8546,3.8401,3.8228,3.8229,3.7655,3.7201,3.7231,3.7563,3.783,3.791,3.863,3.9166,3.9166,3.9508,3.9769,3.9941,4.021,4.0446,4.059,4.0674,4.0757,4.0809,4.0824,4.0793,4.0754,4.0385,3.9924,3.9393,3.97,3.9287,3.8144,3.3757,3.1331,3.0376,2.189,1.549,1.091,0.6519,-0.0064,-0.7716,-0.8812,-1.1941,-1.6039,-1.6665,-1.7886,-1.9531,-2.0773,-2.2343,-2.4165,3.315,3.3058,3.3005,3.315,3.3457,3.407,3.5348,3.5726,3.6416,3.7748,3.7876,3.7801,3.7801,3.7976,3.7976,3.786,3.8164,3.8278,3.7976,3.7834,3.7728,3.768,3.7609,3.763,3.7812,3.7997,3.8192,3.8438,3.8631,3.9089,3.9713,3.9514,3.934,3.9197,3.8785,3.8491,3.8218,3.7823,3.7339,3.6743,3.7055,3.67,3.6028,3.6409,3.6627,3.6703,3.6429,3.6517,3.6797,3.6841,3.697,3.714,3.7386,3.7535,3.7598,3.7425,3.7503,3.7739,3.7845,3.7449,3.7018,3.7154,3.729,3.757,3.8223,3.8446,3.851,3.8762,3.891,3.8878,3.8484,3.8458,3.8584,3.8799,3.8934,3.9252,3.9964,4.0233,4.0356,4.0353,4.0446,4.0535,4.0649,4.0636,4.068,4.083,4.0849,4.0894,4.0953,4.0964,4.0922,4.0867,4.0834,3.9295,3.6102,3.9257,3.8858,3.4816,3.0131,2.6139,2.2622,1.3821,0.6947,0.1737,-0.2467,-0.7474,-1.2758,-1.4059,-1.5522,-1.7055,-1.7859,-1.9346,-2.1102,-2.2639,-2.4085,-2.5511,3.2912,3.3005,3.3058,3.2912,3.4313,3.5379,3.5394,3.6695,3.7759,3.7876,3.8017,3.81,3.81,3.8262,3.8319,3.8116,3.8262,3.8319,3.81,3.8511,3.8368,3.7361,3.8003,3.86,3.8969,3.9023,3.9094,3.9272,3.9694,3.9833,3.9696,3.8452,3.8391,3.9146,3.7653,3.7398,3.8027,3.7204,3.6726,3.67,3.7393,3.7354,3.6988,3.843,3.8724,3.8225,3.7573,3.75,3.7735,3.7171,3.7143,3.7438,3.8217,3.8638,3.861,3.762,3.7612,3.7882,3.7667,3.7792,3.8036,3.8086,3.8138,3.8241,3.8368,3.851,3.8676,3.896,3.9101,3.9245,3.9477,3.9551,3.9693,3.9954,4.006,4.0177,4.0353,4.0466,4.0554,4.0681,4.0696,4.0721,4.0791,4.0859,4.0904,4.0909,4.0948,4.1031,4.1097,4.1092,4.1073,4.1001,4.0925,3.6933,2.8655,3.6646,3.6254,2.7522,2.8052,2.4019,1.5785,0.6331,0.1854,0.1038,-0.907,-1.3769,-1.4499,-1.5479,-1.7128,-1.9032,-1.9209,-2.1167,-2.3906,-2.4638,-2.6115,-2.7818,3.3654,3.3193,3.3107,3.4241,3.4462,3.4896,3.6045,3.6878,3.7625,3.8157,3.8391,3.8432,3.8319,3.8335,3.8391,3.8319,3.8544,3.8766,3.8914,3.886,3.8761,3.8727,3.8761,3.8931,3.9202,3.9325,3.9379,3.9448,3.9625,3.9729,3.9713,3.9531,3.9325,3.9069,3.8897,3.8538,3.8061,3.784,3.7767,3.7889,3.7989,3.8001,3.7986,3.8261,3.8312,3.8242,3.8284,3.8087,3.793,3.816,3.7947,3.7612,3.7825,3.8251,3.8643,3.8598,3.8672,3.885,3.9075,3.9125,3.8961,3.828,3.8171,3.834,3.8621,3.8785,3.8942,3.9165,3.935,3.9526,3.967,3.9804,3.9954,4.0118,4.0269,4.0399,4.0466,4.0617,4.0726,4.0768,4.081,4.0871,4.0933,4.0967,4.0998,4.1046,4.1052,4.1089,4.1094,4.1052,4.0994,4.0933,4.0818,3.6351,2.7145,3.0283,2.7674,1.9238,1.3275,0.8878,0.5751,-0.3227,-0.7701,-0.8602,-1.2201,-1.4123,-1.4894,-1.6244,-1.7711,-1.925,-2.0803,-2.2648,-2.4465,-2.5493,-2.6707,-2.7798,3.3795,3.3481,3.3543,3.4933,3.5109,3.5466,3.6646,3.7351,3.7929,3.8399,3.8616,3.8616,3.8504,3.8448,3.8448,3.8391,3.86,3.8876,3.9272,3.9094,3.9094,3.9379,3.9202,3.9202,3.9395,3.9448,3.9501,3.9501,3.9729,3.9781,3.9625,3.9699,3.9477,3.8988,3.902,3.8845,3.8598,3.815,3.8261,3.8797,3.8564,3.8611,3.8831,3.9016,3.9213,3.933,3.9363,3.9223,3.9071,3.9189,3.9149,3.8972,3.8631,3.9058,3.9646,3.9551,3.959,3.9768,4.0029,3.9874,3.9582,3.9301,3.8824,3.8569,3.919,3.9499,3.9695,3.9933,4.0107,4.0272,4.045,4.0329,4.0233,4.0339,4.0506,4.0636,4.066,4.0791,4.0894,4.0921,4.0948,4.0994,4.1046,4.1328,4.1537,4.1561,4.1266,4.1052,4.1019,4.0986,3.9384,3.5962,3.5552,2.9401,1.6893,1.7024,1.4731,0.9792,0.4374,-0.014,-0.3916,-0.9742,-1.2863,-1.3685,-1.4726,-1.5538,-1.6245,-1.7793,-1.9099,-2.0332,-2.2399,-2.3971,-2.5136,-2.631,-2.6978,-2.7388,3.3774,3.3964,3.4319,3.5241,3.6052,3.6733,3.7134,3.7947,3.8529,3.8632,3.8815,3.8815,3.8616,3.8616,3.856,3.8448,3.8544,3.8805,3.9272,3.9272,3.9325,3.9501,3.9325,3.9325,3.9501,3.9501,3.9501,3.9501,3.9884,3.9884,3.9537,3.9361,3.9253,3.9105,3.8618,3.8781,3.9443,3.841,3.8608,3.9538,3.9268,3.9316,3.9624,4.0374,4.0823,4.0938,4.0604,4.0584,4.066,4.0103,4.0449,4.0967,4.0164,4.0563,4.116,4.0446,4.04,4.0619,4.0636,4.03,4.0115,4.0903,3.9978,3.9111,4.0108,4.0533,4.0813,4.1065,4.1169,4.1269,4.1475,4.0962,4.0535,4.059,4.0729,4.0866,4.0996,4.1013,4.105,4.1193,4.1147,4.1105,4.1092,4.1758,4.2202,4.2279,4.1471,4.1013,4.1081,4.0228,3.6148,2.836,2.679,1.8304,0.205,0.0847,0.0071,-0.0347,-0.076,-0.4894,-1.2283,-1.3665,-1.4579,-1.5228,-1.6599,-1.7549,-1.8282,-1.975,-2.0928,-2.2166,-2.3985,-2.5067,-2.5718,-2.6902,-2.7138,-2.6815,3.5462,3.5279,3.5351,3.6695,3.689,3.7038,3.7794,3.8845,3.9404,3.8832,3.9462,3.9633,3.887,3.8876,3.886,3.8694,3.886,3.9094,3.9432,3.9202,3.9202,3.9501,3.9202,3.9202,3.9501,3.9501,3.9501,3.9501,3.9677,3.9781,3.9798,3.9985,4.0099,4.018,4.0422,4.0504,4.0391,4.0268,4.0457,4.0764,4.0326,4.0343,4.0599,4.0676,4.0662,4.0707,4.0926,4.0806,4.0451,4.0024,4.0506,4.1121,4.0356,4.0623,4.1193,4.1302,4.1397,4.147,4.1632,4.1679,4.1776,4.1959,4.1488,4.1,4.1245,4.1493,4.1743,4.1968,4.1684,4.1397,4.1548,4.1041,4.0597,4.0662,4.0818,4.1181,4.1831,4.1437,4.1339,4.2036,4.1522,4.1093,4.1091,4.1208,4.1499,4.2024,4.1349,4.1402,4.2499,3.4982,2.9923,2.837,2.0776,1.1611,0.0949,-0.0365,-0.3766,-0.9331,-1.006,-1.1704,-1.3957,-1.4549,-1.5362,-1.6343,-1.7118,-1.8153,-1.9399,-2.068,-2.195,-2.326,-2.4637,-2.5506,-2.6085,-2.7079,-2.751,-2.7621,3.6075,3.6032,3.6184,3.7552,3.763,3.7729,3.8254,3.9202,3.9755,3.9378,3.9752,3.9907,3.9306,3.8907,3.8841,3.9201,3.9073,3.9226,3.9769,3.9769,3.9674,3.9412,3.964,3.9674,3.9501,3.9501,3.9501,3.9501,3.9849,3.9986,3.9986,4.0355,4.0534,4.068,4.0853,4.0918,4.0793,4.0728,4.0853,4.1041,4.0728,4.0631,4.0728,4.0853,4.0884,4.0866,4.13,4.1341,4.117,4.106,4.1381,4.1707,4.1396,4.1461,4.1743,4.2134,4.2154,4.2098,4.245,4.2064,4.18,4.2687,4.1952,4.1118,4.1642,4.1946,4.2114,4.193,4.1703,4.1567,4.1744,4.1519,4.1343,4.1461,4.1578,4.1818,4.2236,4.1602,4.1267,4.1738,4.138,4.1247,4.1588,4.1544,4.1742,4.2389,4.2041,4.0087,3.6159,3.0811,2.3938,1.5368,0.981,0.2703,-0.6289,-0.7495,-0.9979,-1.3839,-1.4522,-1.5064,-1.5573,-1.5832,-1.6692,-1.7936,-1.8292,-1.9341,-2.0759,-2.1964,-2.3041,-2.4057,-2.5485,-2.6165,-2.6411,-2.7311,-2.7426,-2.7023,3.6453,3.6622,3.6985,3.801,3.8237,3.8351,3.852,3.9331,3.9902,3.9846,4.0017,4.0082,3.9911,3.9292,3.9121,3.9895,3.9598,3.9666,4.0331,4.0586,4.0363,3.9541,4.0197,4.0234,3.9518,3.9501,3.9537,3.9537,4.0003,4.0188,4.0138,4.0485,4.0745,4.0888,4.0793,4.0793,4.0823,4.0631,4.0728,4.0935,4.0745,4.0648,4.0614,4.1024,4.1117,4.1117,4.1604,4.1858,4.2048,4.2181,4.2246,4.2287,4.2364,4.2305,4.2287,4.2627,4.2591,4.2534,4.2974,4.2177,4.1588,4.2999,4.2149,4.1148,4.178,4.2247,4.2496,4.2201,4.2005,4.1956,4.2194,4.2063,4.1957,4.2078,4.2134,4.2207,4.2341,4.1738,4.1281,4.1293,4.1247,4.1455,4.209,4.2105,4.1639,4.0559,4.0319,3.603,2.636,2.4083,1.6063,0.0741,-0.1855,-0.6599,-1.4318,-1.5173,-1.5677,-1.6109,-1.6516,-1.6766,-1.6795,-1.7176,-1.8105,-1.9367,-1.9782,-2.078,-2.2284,-2.3289,-2.4083,-2.4777,-2.6173,-2.659,-2.6462,-2.7347,-2.7074,-2.6429,3.7408,3.7616,3.7806,3.8148,3.8391,3.8504,3.8448,3.9275,3.9846,3.9764,4.0459,4.0968,4.0811,4.0745,4.077,4.0968,4.0926,4.108,4.1461,4.1332,4.1056,4.045,4.0425,4.0143,3.9501,3.9625,3.9677,3.9677,3.9833,4.0037,4.0305,4.0436,4.0583,4.0745,4.084,4.084,4.0745,4.084,4.0935,4.1047,4.0793,4.0745,4.0871,4.0977,4.1163,4.1391,4.1542,4.1797,4.2005,4.2048,4.2097,4.2103,4.2019,4.2012,4.2072,4.2287,4.249,4.2631,4.2862,4.2996,4.2937,4.2514,4.3082,4.3456,4.2259,4.2806,4.3817,4.4614,4.3836,4.3039,4.3188,4.207,4.1163,4.1247,4.1211,4.1426,4.2123,4.2134,4.2052,4.2054,4.1858,4.1763,4.1938,4.2247,3.9166,3.122,3.0088,2.5795,1.6856,0.822,0.2205,-0.0789,-0.866,-1.3884,-1.6265,-1.6347,-1.6746,-1.7294,-1.7636,-1.7613,-1.7153,-1.783,-1.8723,-1.988,-2.0941,-2.2168,-2.3441,-2.4072,-2.4903,-2.5722,-2.6206,-2.6077,-2.5686,-2.6324,-2.6911,-2.7389,3.7759,3.7934,3.8164,3.8391,3.8448,3.865,3.9056,3.9479,3.9936,4.0261,4.0613,4.0808,4.0857,4.0825,4.0971,4.1379,4.1371,4.1493,4.1816,4.2192,4.2044,4.1271,4.1638,4.156,4.0987,4.0933,4.0822,4.0559,4.0256,4.0155,4.0188,4.0337,4.0502,4.0697,4.068,4.0697,4.0697,4.0745,4.0793,4.0745,4.0551,4.0551,4.0728,4.0913,4.1192,4.1436,4.171,4.1797,4.1797,4.1962,4.1927,4.1805,4.1892,4.1934,4.1888,4.1611,4.1627,4.1658,4.1463,4.1198,4.1104,4.1589,4.1598,4.1642,4.2208,4.2891,4.3561,4.4085,4.3354,4.2663,4.276,4.221,4.1743,4.1829,4.1735,4.196,4.2807,4.2013,4.1315,4.1202,4.1523,4.1724,4.1629,3.7511,3.3024,2.8659,2.336,1.6275,0.7065,0.2335,-0.26,-0.8089,-1.2565,-1.5313,-1.6012,-1.6628,-1.7007,-1.7334,-1.8333,-1.8847,-1.8783,-1.9125,-1.9924,-2.1296,-2.1901,-2.2814,-2.3985,-2.4609,-2.518,-2.5791,-2.6398,-2.6487,-2.6269,-2.6568,-2.6744,-2.6764]}]]